[[{"header":{"parameterUnit":"m.s-1","parameterCategory":1,"la1":30.6,"la2":29.2853,"lo1":-89.7004,"lo2":-87.6739,"dy":0.0162,"dx":0.0183,"nx":112,"ny":82,"refTime":"2024-08-30T06:00:00:Z","depth":0,"parameterNumber":2,"parameterNumberName":"U-component_of_WINDS"},"data":[0.0,0.0,0.0,0.0,0.0,0.0,0.0,0.0,0.0,0.0,0.0,0.0,0.0,0.0,0.0,0.0,0.0,0.0,0.0,0.0,0.0,0.0,0.0,0.0,0.0,0.0,0.0,0.0,0.0,0.0,0.0,0.0,0.0,0.0,0.0,0.0,0.0,0.0,0.0,0.0,0.0,0.0,0.0,0.0,0.0,0.0,0.0,0.0,0.0,0.0,0.0,0.0,0.0,0.0,0.0,0.0,0.0,0.0,0.0,0.0,0.0,0.0,0.0,0.0,0.0,0.0,0.0,0.0,0.0,0.0,0.0,0.0,0.0,0.0,0.0,0.0,0.0,0.0,0.0,0.0,0.0,0.0,0.0,0.0,0.0,0.0,0.0,0.0,0.0,0.0,0.4887,0.4152,0.4755,0.5617,0.6655,0.6859,0.6502,0.5479,0.0,0.0,0.0,0.0,0.0,0.0,0.0,0.0,0.0,0.0,0.0,0.0,0.0,0.0,0.0,0.0,0.0,0.0,0.0,0.0,0.0,0.0,0.0,0.0,0.0,0.0,0.0,0.0,0.0,0.0,0.0,0.0,0.0,0.0,0.0,0.0,0.0,0.0,0.0,0.0,0.0,0.0,0.0,0.0,0.0,0.0,0.0,0.0,0.0,0.0,0.0,0.0,0.0,0.0,0.0,0.0,0.0,0.0,0.0,0.0,0.0,0.0,0.0,0.0,0.0,0.0,0.0,0.0,0.0,0.0,0.0,0.0,0.0,0.0,0.0,0.0,0.0,0.0,0.0,0.0,0.0,0.0,0.0,0.0,0.0,0.0,0.0,0.0,0.0,0.0,0.0,0.0,0.0,0.0,0.0,0.0,0.0,0.0,0.0,0.0,0.0,0.0,0.0,0.0,0.4982,0.4839,0.5077,0.5289,0.5454,0.6297,0.6412,0.5473,0.0,0.0,0.0,0.0,0.0,0.0,0.0,0.0,0.0,0.0,0.0,0.0,0.0,0.0,0.0,0.0,0.0,0.0,0.0,0.0,0.0,0.0,0.0,0.0,0.0,0.0,0.0,0.0,0.0,0.0,0.0,0.0,0.0,0.0,0.0,0.0,0.0,0.0,0.0,0.0,0.0,0.0,0.0,0.0,0.0,0.0,0.0,0.0,0.0,0.0,0.0,0.0,0.0,0.0,0.0,0.0,0.0,0.0,0.0,0.0,0.0,0.0,0.0,0.0,0.0,0.0,0.0,0.0,0.0,0.0,0.0,0.0,0.0,0.0,0.0,0.0,0.0,0.0,0.0,0.0,0.0,0.0,0.0,0.0,0.0,0.0,0.0,0.0,0.0,0.0,0.0,0.0,0.0,0.0,0.0,0.0,0.0,0.0,0.0,0.0,0.0,0.0,0.0,0.3531,0.369,0.408,0.3669,0.3598,0.4252,0.4721,0.4839,0.4538,0.429,0.0,0.0,0.0,0.0,0.0,0.0,0.0,0.0,0.0,0.0,0.0,0.0,0.0,0.0,0.0,0.0,0.0,0.0,0.0,0.0,0.0,0.0,0.0,0.0,0.0,0.0,0.0,0.0,0.0,0.0,0.0,0.0,0.0,0.0,0.0,0.0,0.0,0.0,0.0,0.0,0.0,0.0,0.0,0.0,0.0,0.0,0.0,0.0,0.0,0.0,0.0,0.0,0.0,0.0,0.0,0.0,0.0,0.0,0.0,0.0,0.0,0.0,0.0,0.0,0.0,0.0,0.0,0.0,0.0,0.0,0.0,0.0,0.0,0.0,0.0,0.0,0.0,0.0,0.0,0.0,0.0,0.0,0.0,0.0,0.0,0.0,0.0,0.0,0.0,0.0,0.0,0.0,0.0,0.0,0.0,0.0,0.0,0.0,0.0,0.0,0.0,0.0,0.2473,0.2296,0.293,0.2253,0.2166,0.3073,0.3301,0.3447,0.3501,0.3269,0.0,0.0,0.0,0.0,0.0,0.0,0.0,0.0,0.0,0.0,0.0,0.0,0.0,0.0,0.0,0.0,0.0,0.0,0.0,0.0,0.0,0.0,0.0,0.0,0.0,0.0,0.0,0.0,0.0,0.0,0.0,0.0,0.0,0.0,0.0,0.0,0.0,0.0,0.0,0.0,0.0,0.0,0.0,0.0,0.0,0.0,0.0,0.0,0.0,0.0,0.0,0.0,0.0,0.0,0.0,0.0,0.0,0.0,0.0,0.0,0.0,0.0,0.0,0.0,0.0,0.0,0.0,0.0,0.0,0.0,0.0,0.0,0.0,0.0,0.0,0.0,0.0,0.0,0.0,0.0,0.0,0.0,0.0,0.0,0.0,0.0,0.0,0.0,0.0,0.0,0.0,0.0,0.0,0.0,0.0,0.0,0.0,0.0,0.0,0.0,0.0,0.0,0.1917,0.1515,0.1709,0.1792,0.1799,0.1719,0.2776,0.3161,0.2615,0.2841,0.0,0.0,0.0,0.0,0.0,0.0,0.0,0.0,0.0,0.0,0.0,0.0,0.0,0.0,0.0,0.0,0.0,0.0,0.0,0.0,0.0,0.0,0.0,0.0,0.0,0.0,0.0,0.0,0.0,0.0,0.0,0.0,0.0,0.0,0.0,0.0,0.0,0.0,0.0,0.0,0.0,0.0,0.0,0.0,0.0,0.0,0.0,0.0,0.0,0.0,0.0,0.0,0.0,0.0,0.0,0.0,0.0,0.0,0.0,0.0,0.0,0.0,0.0,0.0,0.0,0.0,0.0,0.0,0.0,0.0,0.0,0.0,0.0,0.0,0.0,0.0,0.0,0.0,0.0,0.0,0.0,0.0,0.0,0.0,0.0,0.0,0.0,0.0,0.0,0.0,0.0,0.0,0.0,0.0,0.0,0.0,0.0,0.0,0.0,0.0,0.0,0.0,0.1006,0.0964,0.0,0.0626,0.0679,0.0623,0.1,0.1336,0.1503,0.0,0.0,0.0,0.0,0.0,0.0,0.0,0.0,0.0,0.0,0.0,0.0,0.0,0.0,0.0,0.0,0.0,0.0,0.0,0.0,0.0,0.0,0.0,0.0,0.0,0.0,0.0,0.0,0.0,0.0,0.0,0.0,0.0,0.0,0.0,0.0,0.0,0.0,0.0,0.0,0.0,0.0,0.0,0.0,0.0,0.0,0.0,0.0,0.0,0.0,0.0,0.0,0.0,0.0,0.0,0.0,0.0,0.0,0.0,0.0,0.0,0.0,0.0,0.0,0.0,0.0,0.0,0.0,0.0,0.0,0.0,0.0,0.0,0.0,0.0,0.0,0.0,0.0,0.0,0.0,0.0,0.0,0.0,0.0,0.0,0.0,0.0,0.0,0.0,0.0,0.0,0.0,0.0,0.0,0.0,0.0,0.0,0.0,0.0,0.0,0.0,0.0,0.0077,0.0349,0.0479,0.0,0.0,0.0,0.0,0.0,0.0183,0.0594,0.0,0.0,0.0,0.0,0.0,0.0,0.0,0.0,0.0,0.0,0.0,0.0,0.0,0.0,0.0,0.0,0.0,0.0,0.0,0.0,0.0,0.0,0.0,0.0,0.0,0.0,0.0,0.0,0.0,0.0,0.0,0.0,0.0,0.0,0.0,0.0,0.0,0.0,0.0,0.0,0.0,0.0,0.0,0.0,0.0,0.0,0.0,0.0,0.0,0.0,0.0,0.0,0.0,0.0,0.0,0.0,0.0,0.0,0.0,0.0,0.0,0.0,0.0,0.0,0.0,0.0,0.0,0.0,0.0,0.0,0.0,0.0,0.0,0.0,0.0,0.0,0.0,0.0,0.0,0.0,0.0,0.0,0.0,0.0,0.0,0.0,0.0,0.0,0.0,0.0,0.0,0.0,0.0,0.0,0.0,0.0,0.0,0.0,0.0,0.0,0.0,0.0,0.0,0.0,0.0,0.0,0.0,0.0,0.0,0.0,0.0,0.0,0.0,0.0,0.0,0.0,0.0,0.0,0.0,0.0,0.0,0.0,0.0,0.0,0.0,0.0,0.0,0.0,0.0,0.0,0.0,0.0,0.0,0.0,0.0,0.0,0.0,0.0,0.0,0.0,0.0,0.0,0.0,0.0,0.0,0.0,0.0,0.0,0.0,0.0,0.0,0.0,0.0,0.0,0.0,0.0,0.0,0.0,0.0,0.0,0.0,0.0,0.0,0.0,0.0,0.0,0.0,0.0,0.0,0.0,0.0,0.0,0.0,0.0,0.0,0.0,0.0,0.0,0.0,0.0,0.0,0.0,0.0,0.0,0.0,0.0,0.0,0.0,0.0,0.0,0.0,0.0,0.0,0.0,0.0,0.0,0.0,0.0,0.0,0.0,0.0,0.0,0.0,0.0,0.0,0.0,0.0,0.0,0.0,0.0,0.0,0.0,0.0,0.0,0.0,0.0,0.0,0.0,0.0,0.0,0.0,0.0,0.0,0.0,0.0,0.0,0.0,0.0,0.0,0.0,0.0,0.0,0.0,0.0,0.0,0.0,0.0,0.0,0.0,0.0,0.0,0.0,0.0,0.0,0.0,0.0,0.0,0.0,0.0,0.0,0.0,0.0,0.0,0.0,0.0,0.0,0.0,0.0,0.0,0.0,0.0,0.0,0.0,0.0,0.0,0.0,0.0,0.0,0.0,0.0,0.0,0.0,0.0,0.0,0.0,0.0,0.0,0.0,0.0,0.0,0.0,0.0,0.0,0.0,0.0,0.0,0.0,0.0,0.0,0.0,0.0,0.0,0.0,0.0,0.0,0.0,0.0,0.0,0.0,0.0,0.0,0.0,0.0,0.0,0.0,0.0,0.0,0.0,0.0,0.0,0.0,0.0,0.0,0.0,0.0,0.0,0.0,0.0,0.0,0.0,0.0,0.0,0.0,0.0,0.0,0.0,0.0,0.0,0.0,0.0,0.0,0.0,0.0,0.0,0.0,0.0,0.0,0.0,0.0,0.0,0.0,0.0,0.0,0.0,0.0,0.0,0.0,0.0,0.0,0.0,0.0,0.0,0.0,0.0,0.0,0.0,0.0,0.0,0.0,0.0,0.0,0.0,0.0,0.0,0.0,0.0,0.0,0.0,0.0,0.0,0.0,0.0,0.0,0.0,0.0,0.0,0.0,0.0,0.0,0.0,0.0,0.0,0.0,0.0,0.0,0.0,0.0,0.0,0.0,0.0,0.0,0.0,0.0,0.0,0.0,0.0,0.0,0.0,0.0,0.0,0.0,0.0,0.0,0.0,0.0,0.0,0.0,0.0,0.0,0.0,0.0,0.0,0.0,0.0,0.0,0.0,0.0,0.0,0.0,0.0,0.0,0.0,0.0,0.0,0.0,0.0,0.0,0.0,0.0,0.0,0.0,0.0,0.0,0.0,0.0,0.0,0.0,0.0,0.0,0.0,0.0,0.0,0.0,0.0,0.0,0.0,0.0,0.0,0.0,0.0,0.0,0.0,0.0,0.0,0.0,0.0,0.0,0.0,0.0,0.0,0.0,0.0,0.0,0.0,0.0,0.0,0.0,0.0,0.0,0.0,0.0,0.0,0.0,0.0,0.0,0.0,0.0,0.0,0.0,0.0,0.0,0.0,0.0,0.0,0.0,0.0,0.0,0.0,0.0,0.0,0.0,0.0,0.0,0.0,0.0,0.0,0.0,0.0,0.0,0.0,0.0,0.0,0.0,0.0,0.0,0.0,0.0,0.0,0.1198,0.1639,0.0,0.0,0.0,0.0,0.0,0.0,0.0,0.0,0.0,0.0,0.0,0.0,0.0,0.0,0.0,0.0,0.0,0.0,0.0,0.0,0.0,0.0,0.0,0.0,0.0,0.0,0.0,0.0,0.0,0.0,0.0,0.0,0.0,0.0,0.0,0.0,0.0,0.0,0.0,0.0,0.0,0.0,0.0,0.0,0.0,0.0,0.0,0.0,0.0,0.0,0.0,0.0,0.0,0.0,0.0,0.0,0.0,0.0,0.0,0.0,0.0,0.0,0.0,0.0,0.0,0.0,0.0,0.0,0.0,0.0,0.0,0.0,0.0,0.0,0.0,0.0,0.0,0.0,0.0,0.0,0.0,0.0,0.0,0.0,0.0,0.0,0.0,0.0,0.0,0.0,0.0,0.0,0.0,0.0,0.0,0.0,0.0,0.0,0.0,0.0,0.0,0.0,0.0,0.0,0.0,0.0,0.0,0.0,0.0,0.0,0.0593,0.0882,0.0,0.0,0.0,0.0,0.0,0.0,0.0,0.0,0.0,0.0,0.0,0.0,0.0,0.0,0.0,0.0,0.0,0.0,0.0,0.0,0.0,0.0,0.0,0.0,0.0,0.0,0.0,0.0,0.0,0.0,0.0,0.0,0.0,0.0,0.0,0.0,0.0,0.0,0.0,0.0,0.0,0.0,0.0,0.0,0.0,0.0,0.0,0.0,0.0,0.0,0.0,0.0,0.0,0.0,0.0,0.0,0.0,0.0,0.0,0.0,0.0,0.0,0.0,0.0,0.0,0.0,0.0,0.0,0.0,0.0,0.0,0.0,0.0,0.0,0.0,0.0,0.0,0.0,0.0,0.0,0.0,0.0,0.0,0.0,0.0,0.0,0.0,0.0,0.0,0.0,0.0,0.0,0.0,0.0,0.0,0.0,0.0,0.0,0.0,0.0,0.0,0.0,0.0,0.0,0.0,0.0,0.0,0.0,0.0,0.0,0.0,0.0,0.0,0.0,0.0,0.0,0.0,0.0,0.0,0.0,0.0,0.0,0.0,0.0,0.0,0.0,0.0,0.0,0.0,0.0,0.0,0.0,0.0,0.0,0.0,0.0,0.0,0.0,0.0,0.0,0.0,0.0,0.0,0.0,0.0,0.0,0.0,0.0,0.0,0.0,0.0,0.0,0.0,0.0,0.0,0.0,0.0,0.0,0.0,0.0,0.0,0.0,0.0,0.0,0.0,0.0,0.0,0.0,0.0,0.0,0.0,0.0,0.0,0.0,0.0,0.0,0.0,0.0,0.0,0.0,0.0,0.0,0.0,0.0,0.0,0.0,0.0,0.0,0.0,0.0,0.0,0.0,0.0,0.0,0.0,0.0,-0.0571,-0.0539,0.0,0.0,0.0,0.0,0.0,0.0,0.0,0.0,0.0,0.0,0.0,0.0,0.0,0.0,-0.0048,0.0,0.0,0.0,0.0,0.0,0.0,0.0,0.0,0.0,0.0,0.0,0.0,0.0,0.0,0.0,0.0,0.0,0.0,0.0,0.0,0.0,0.0,0.0,0.0,0.0,0.0,0.0,0.0,0.0,0.0,0.0,0.0,0.0,0.0,0.0,0.0,0.0,0.0,0.0,0.0,0.0,0.0,0.0,0.0,0.0,0.0,0.0,0.0,0.0,0.0,0.0,0.0,0.0,0.0,0.0,0.0,0.0,0.0,0.0,0.0,0.0,0.0,0.0,0.0,0.0,0.0,0.0,0.0,0.0,0.0,0.0,0.0,0.0,0.0,0.0,0.0,0.0,0.0,0.0,0.0,0.0,0.0,0.0,0.0,0.0,0.0,0.0,0.0,0.0,0.0,0.0,0.0,0.0,0.0,-0.0772,-0.0838,-0.0822,-0.0956,-0.0981,0.0,0.0,0.0,0.0,0.0,0.0,0.0,0.0,0.0,-0.0944,-0.0722,-0.0642,-0.0831,-0.0464,-0.0297,-0.0298,-0.0062,0.0,0.0,0.0,0.0,0.0,0.0,0.0,0.0,0.0,0.0,0.0,0.0,0.0,0.0,0.0,0.0,0.0,0.0,0.0,-0.0098,-0.0796,0.0,0.0,0.0,0.0,0.0,0.0,0.0,-0.2135,-0.2181,-0.2202,-0.2027,-0.1315,-0.1104,-0.0943,-0.0165,0.0,0.0,0.0,0.0,0.0,0.0,0.0,0.0,0.0,0.0,0.0,0.0,0.0,0.0,0.0,0.0,0.0,0.0,0.0,0.0,0.0,0.0,0.0,0.0,0.0,0.0,0.0,0.0,0.0,0.0,0.0,0.0,0.0,0.0,0.0,0.0,0.0,0.0,0.0,0.0,0.0,0.0,0.0,0.0,0.0,0.0,0.0,0.0,0.0,0.0,0.0,0.0,0.0,0.0,-0.0978,-0.1028,-0.104,-0.1215,-0.1299,0.0,0.0,0.0,0.0,0.0,0.0,-0.1275,-0.129,-0.1315,-0.1409,-0.1162,-0.1135,-0.1412,-0.0873,-0.0632,-0.0639,-0.0385,-0.0258,-0.0261,-0.0261,-0.0261,-0.0261,-0.026,-0.0258,-0.0254,-0.0059,0.0,0.0,0.0,0.0,0.0,0.0,-0.0212,-0.0531,-0.0507,-0.0741,-0.1119,-0.2028,-0.2342,-0.2483,-0.3388,0.0,0.0,0.0,0.0,-0.3854,-0.3906,-0.388,-0.3682,-0.272,-0.246,-0.2127,-0.0792,-0.0503,-0.0434,-0.005,0.0,0.0,0.0,0.0,0.0,0.0,0.0,0.0,0.0,0.0,0.0,0.0,0.0,0.0,0.0,0.0,0.0,0.0,0.0,0.0,0.0,0.0,0.0,0.0,0.0,0.0,0.0,0.0,0.0,0.0,0.0,0.0,0.0,0.0,0.0,0.0,0.0,0.0,0.0,0.0,0.0,0.0,0.0,0.0,0.0,0.0,0.0,0.0,0.0,0.0,0.0,0.0,0.0,-0.1371,-0.1501,0.0,0.0,0.0,0.0,-0.1465,-0.16,-0.1699,-0.1786,-0.1615,-0.1506,-0.1473,-0.1247,-0.1077,-0.1092,-0.1109,-0.1051,-0.1052,-0.1067,-0.1074,-0.1075,-0.1075,-0.1075,-0.1074,-0.1059,-0.1053,-0.0983,-0.0313,0.0,0.0,0.0,0.0,0.0,0.0,-0.0808,-0.1924,-0.1902,-0.2695,-0.3732,-0.3773,-0.3785,-0.3799,-0.3888,-0.3889,0.0,0.0,-0.3888,-0.387,-0.3883,-0.3876,-0.3864,-0.3805,-0.3808,-0.3444,-0.2186,-0.1891,-0.153,-0.0274,0.0,0.0,0.0,0.0,0.0,0.0,0.0,0.0,0.0,0.0,0.0,0.0,0.0,0.0,0.0,0.0,0.0,0.0,0.0,0.0,0.0,0.0,0.0,0.0,0.0,0.0,0.0,0.0,0.0,0.0,0.0,0.0,0.0,0.0,0.0,0.0,0.0,0.0,0.0,0.0,0.0,0.0,0.0,0.0,0.0,0.0,0.0,0.0,0.0,0.0,0.0,0.0,0.0,-0.1545,-0.1614,0.0,-0.1544,-0.1607,-0.1705,-0.1705,-0.2659,-0.3252,-0.3305,-0.4141,-0.4636,-0.4623,-0.4585,-0.4497,-0.4491,-0.4318,-0.4198,-0.4198,-0.3951,-0.3892,-0.3892,-0.3892,-0.3892,-0.3891,-0.3871,-0.3863,-0.3859,-0.3603,-0.289,-0.2074,-0.2062,-0.2618,-0.3485,-0.3466,-0.3782,-0.4169,-0.4208,-0.4418,-0.4796,-0.5501,-0.6253,-0.6858,-0.6858,-0.6886,-0.6868,-0.6943,-0.6995,-0.6987,-0.6824,-0.681,-0.6517,-0.5437,-0.5184,-0.4807,-0.3505,-0.3377,-0.3424,-0.2927,-0.1273,0.0,0.0,0.0,-0.0052,-0.0253,-0.026,-0.0322,-0.0546,-0.0552,-0.0554,-0.0602,-0.0383,-0.027,-0.026,-0.0104,-0.0052,-0.0253,-0.01,-0.0099,-0.0248,-0.0097,0.0,0.0,0.0,0.0,0.0,0.0,0.0,0.0,0.0,0.0,0.0,0.0,0.0,0.0,0.0,0.0,0.0,0.0,0.0,0.0,0.0,0.0,0.0,0.0,0.0,0.0,0.0,0.0,0.0,-0.2304,-0.2196,-0.2344,-0.2009,-0.1926,-0.2352,-0.2513,-0.2814,-0.3273,-0.4278,-0.4857,-0.4906,-0.5803,-0.6354,-0.6411,-0.6415,-0.6376,-0.6431,-0.6166,-0.6101,-0.6034,-0.5832,-0.5765,-0.5765,-0.5765,-0.5765,-0.5765,-0.5765,-0.5765,-0.5765,-0.5765,-0.5436,-0.4954,-0.4238,-0.4564,-0.5405,-0.5379,-0.5691,-0.6074,-0.656,-0.6633,-0.6614,-0.7312,-0.8053,-0.8703,-0.8657,-0.8642,-0.866,-0.8752,-0.878,-0.8738,-0.859,-0.8552,-0.8282,-0.7165,-0.6904,-0.6573,-0.5219,-0.5084,-0.5136,-0.464,-0.2962,-0.1599,-0.1563,-0.1565,-0.1397,-0.105,-0.1456,-0.1653,-0.1377,-0.178,-0.2119,-0.2095,-0.1928,-0.1739,-0.1678,-0.1203,-0.1087,-0.1564,-0.1096,-0.1036,-0.1519,-0.0962,-0.0663,-0.0607,-0.0223,0.0,0.0,0.0,0.0,0.0,0.0,0.0,0.0,0.0,0.0,0.0,0.0,0.0,0.0,0.0,0.0,0.0,0.0,0.0,0.0,0.0,0.0,0.0,0.0,0.0,-0.509,-0.4162,-0.3555,-0.3851,-0.2759,-0.2583,-0.3958,-0.4177,-0.4852,-0.6233,-0.6404,-0.6441,-0.6441,-0.6521,-0.6566,-0.6566,-0.6566,-0.6566,-0.6566,-0.6566,-0.6566,-0.6566,-0.6566,-0.6566,-0.6566,-0.6566,-0.6566,-0.6566,-0.6566,-0.6566,-0.6566,-0.6566,-0.7369,-0.844,-0.6299,-0.5498,-0.5554,-0.5545,-0.6366,-0.7594,-0.8913,-0.9321,-0.93,-0.9171,-0.9128,-0.9103,-0.8965,-0.8922,-0.8922,-0.8915,-0.8915,-0.8915,-0.8915,-0.8915,-0.8915,-0.8915,-0.8915,-0.8572,-0.723,-0.6963,-0.6574,-0.5299,-0.4924,-0.4811,-0.4692,-0.4576,-0.4026,-0.2515,-0.3576,0.0,-0.2515,-0.3576,-0.4528,-0.4528,-0.4528,-0.4409,-0.4259,-0.324,-0.3035,-0.3979,-0.3015,-0.284,-0.3767,-0.2689,-0.1997,-0.1856,-0.0719,-0.0128,-0.0122,0.0,0.0,0.0,0.0,0.0,0.0,0.0,0.0,0.0,0.0,0.0,0.0,0.0,0.0,0.0,0.0,0.0,0.0,0.0,0.0,0.0,-0.6325,-0.6406,-0.5468,-0.5305,-0.5305,-0.5437,-0.5257,-0.5234,-0.5651,-0.5768,-0.5972,-0.6362,-0.7388,-0.7995,-0.7995,-0.8958,-0.951,-0.951,-0.951,-0.951,-0.951,-0.951,-0.951,-0.951,-0.951,-0.951,-0.951,-0.951,-0.951,-0.951,-0.951,-0.951,-0.951,-0.951,-0.9779,-0.9981,-0.8371,-0.8371,-0.9238,-0.9269,-0.9456,-0.9836,-1.0091,-1.0171,-1.0148,-1.0012,-0.9966,-0.9936,-0.9725,-0.9679,-0.9656,-0.9609,-0.9579,-0.9521,-0.9275,-0.9217,-0.9156,-0.8976,-0.8915,-0.8781,-0.8436,-0.8484,-0.8533,-0.8191,-0.8203,-0.7468,-0.5112,-0.4674,-0.4528,-0.4195,-0.4521,-0.4745,-0.4522,-0.4914,-0.5139,-0.5139,-0.4914,-0.4761,-0.4714,-0.4118,-0.3941,-0.4415,-0.38,-0.3681,-0.4204,-0.3644,-0.3323,-0.3371,-0.3087,-0.2866,0.0,0.0,0.0,0.0,0.0,0.0,0.0,0.0,0.0,0.0,0.0,0.0,0.0,0.0,0.0,0.0,0.0,0.0,0.0,0.0,0.0,0.0,-0.792,-0.8069,-0.7432,-0.7095,-0.6908,-0.706,-0.6611,-0.6565,-0.7192,-0.7316,-0.7551,-0.8146,-0.9004,-0.9513,-0.9513,-1.025,-1.0721,-1.0721,-1.0721,-1.0721,-1.0721,-1.0721,-1.0721,-1.0721,-1.0721,-1.0721,-1.0721,-1.0721,-1.0721,-1.0721,-1.0721,-1.0721,-1.0721,-1.0721,-1.0721,-1.0654,0.0,0.0,0.0,0.0,-1.0721,-1.0707,-1.0619,-1.0585,-1.0565,-1.0415,-1.0368,-1.0341,-1.0192,-1.0144,-1.0127,-1.0039,-0.9968,-0.9856,-0.9671,-0.9564,-0.9457,-0.9339,-0.9278,-0.9278,-0.9278,-0.94,-0.9518,-0.9518,-0.9573,0.0,-0.7094,-0.6637,-0.6381,-0.5814,-0.6221,-0.6417,-0.5975,-0.6478,-0.6866,-0.6866,-0.6697,-0.6541,-0.6487,-0.5826,0.0,0.0,0.0,-0.5039,-0.5071,-0.4853,0.0,0.0,0.0,0.0,0.0,0.0,0.0,0.0,-0.1745,-0.1625,0.0,0.0,0.0,0.0,0.0,0.0,0.0,0.0,0.0,0.0,0.0,0.0,0.0,0.0,0.0,0.0,-0.9293,-0.9781,-0.9997,-0.9102,-0.843,-0.864,-0.7629,-0.7407,-0.8698,-0.8842,-0.9377,-1.0588,-1.0721,-1.0721,-1.0721,-1.0721,0.0,0.0,0.0,-1.0721,-1.0721,-1.0721,-1.0721,-1.0721,-1.0721,-1.0721,-1.0721,-1.0721,-1.0721,-1.0721,-1.0721,-1.0721,-1.0721,-1.0721,-1.0721,-1.0721,-1.0721,-1.0721,-1.0721,-1.0721,-1.0721,-1.0721,-1.0721,0.0,0.0,-1.0561,-1.0517,-1.049,-1.0348,-1.0304,-1.03,-1.0287,-1.0181,-1.0014,-1.0014,-0.9975,-0.9869,-0.9849,-0.9846,-0.9842,-0.9825,-0.9822,-0.9822,-0.9822,-0.9822,-0.9781,-0.9656,-0.9395,-0.879,-0.738,-0.8192,-0.8452,-0.7093,-0.8097,-0.8885,-0.8885,-0.8885,0.0,-0.8747,-0.7849,-0.7579,-0.8285,-0.7416,-0.6732,-0.6289,-0.6295,-0.5677,-0.4356,-0.4882,-0.4996,-0.4709,-0.5133,-0.5348,-0.528,-0.4347,-0.3883,0.0,0.0,0.0,0.0,0.0,0.0,0.0,0.0,0.0,0.0,0.0,0.0,0.0,0.0,0.0,-0.9167,-0.9758,-1.0209,-1.0382,-1.025,-1.0169,-1.0107,-0.9939,-0.9956,-1.025,-1.0316,-1.0386,-1.0654,-1.0721,-1.0721,-1.0721,-1.0721,-1.0721,-1.0721,-1.0721,-1.0721,-1.0721,-1.0721,-1.0721,-1.0721,-1.0721,0.0,-1.0721,-1.0721,-1.0721,-1.0721,-1.0721,-1.0721,-1.0721,-1.0721,-1.0721,-1.0721,-1.0721,-1.0721,-1.0721,-1.0721,-1.0721,-1.0721,-1.0721,-1.0721,-1.0714,-1.0683,-1.0677,-1.0649,-1.0497,-1.0453,0.0,-1.0314,-1.0259,-1.0236,-1.0236,-1.0212,-1.0161,-0.9974,-0.9943,-0.9909,-0.9846,-0.9822,-0.9822,-0.9822,-0.9822,-0.9812,-0.9785,-0.9635,-0.9319,-0.8843,-0.8957,-0.8957,-0.8504,-0.8716,-0.8885,-0.8885,-0.8885,-0.8871,-0.8841,-0.8563,-0.8471,-0.8628,-0.8348,-0.8088,-0.7841,-0.7965,-0.7936,-0.7734,-0.7864,-0.7919,-0.7823,-0.793,-0.799,-0.7931,-0.5451,-0.4364,0.0,0.0,0.0,0.0,0.0,0.0,0.0,0.0,0.0,0.0,0.0,-0.7602,-0.8356,0.0,-0.9415,-0.9863,-1.0192,-1.0436,-1.0585,-1.0673,-1.0694,-1.0616,-1.0673,-1.0721,-1.0721,-1.0721,-1.0721,-1.0721,-1.0721,-1.0721,-1.0721,-1.0721,-1.0721,-1.0721,-1.0721,-1.0721,-1.0721,-1.0721,-1.0721,-1.0721,-1.0721,-1.0721,-1.0721,-1.0721,-1.0721,-1.0721,-1.0721,-1.0721,-1.0721,-1.0721,-1.0721,-1.0721,-1.0721,-1.0721,-1.0721,-1.0721,-1.0721,-1.0721,-1.0721,-1.0721,-1.0721,-1.0721,-1.0721,-1.0707,-1.0629,-1.0605,-1.0592,-1.0521,-1.0446,-1.0385,-1.0385,-1.0334,-1.0259,-1.0181,-1.0164,-1.0124,-0.9906,-0.9872,-0.9852,-0.9836,-0.9822,-0.9822,-0.9822,-0.9764,-0.9639,-0.9415,-0.9317,-0.9215,-0.9066,-0.9045,-0.9018,-0.8892,-0.8885,-0.8885,-0.8885,-0.8798,-0.871,-0.871,-0.8567,-0.8486,-0.8489,-0.8632,-0.8726,-0.8709,-0.897,-0.906,-0.8971,-0.9232,-0.938,-0.9335,-0.78,-0.7004,0.0,0.0,0.0,0.0,0.0,0.0,0.0,-0.7102,-0.7421,-0.7926,-0.8435,-0.8933,-0.9422,-0.9751,-1.007,-1.0432,-1.0517,-1.0578,-1.0704,-1.0721,-1.0721,-1.0721,-1.0721,-1.0721,-1.0721,-1.0721,-1.0721,-1.0721,-1.0721,-1.0721,-1.0721,-1.0721,-1.0721,-1.0721,-1.0721,-1.0721,-1.0721,-1.0721,-1.0721,-1.0721,-1.0721,-1.0721,-1.0721,-1.0721,-1.0721,-1.0721,-1.0721,-1.0721,-1.0721,-1.0721,-1.0721,-1.0721,-1.0721,-1.0721,-1.0721,-1.0721,-1.0721,-1.0721,-1.0721,-1.0721,-1.0721,-1.0721,-1.0721,-1.0721,-1.0721,-1.0721,-1.0721,-1.0721,-1.0629,-1.0534,-1.0534,-1.0453,-1.0358,-1.0327,-1.0321,-1.028,-1.0127,-1.0007,-0.995,-0.989,-0.9842,-0.9822,-0.9822,-0.9822,-0.9774,-0.9632,-0.9503,-0.9361,-0.9231,-0.921,-0.9096,-0.8898,-0.8885,-0.8885,-0.8885,-0.8852,-0.8798,-0.8798,-0.871,-0.8713,-0.8835,-0.8957,-0.898,-0.8899,-0.9365,-0.9516,-0.9327,-0.9808,-1.0004,-1.0034,-0.9989,-0.9678,-0.4865,-0.5472,-0.6265,-0.709,-0.7017,-0.7202,0.0,-0.8859,-0.8713,-0.9425,-0.9674,-0.9832,-0.9899,-1.0215,-1.0432,-1.0483,-1.0605,-1.07,-1.0717,-1.0721,-1.0721,-1.0721,-1.0721,-1.0721,-1.0721,-1.0721,-1.0721,-1.0721,-1.0721,-1.0721,-1.0721,-1.0721,-1.0721,-1.0721,-1.0721,-1.0721,-1.0721,-1.0721,-1.0721,-1.0721,-1.0721,-1.0721,-1.0721,-1.0721,-1.0721,-1.0721,-1.0721,-1.0721,-1.0721,-1.0721,-1.0721,-1.0721,-1.0721,-1.0721,-1.0721,-1.0721,-1.0721,-1.0721,-1.0721,-1.0721,-1.0721,-1.0721,-1.0721,-1.0721,-1.0721,-1.0721,-1.0721,-1.0721,-1.0707,-1.0694,-1.0694,-1.0683,-1.0636,-1.05,-1.047,-1.0429,-1.0287,-1.0148,-0.998,-0.9963,-0.9852,-0.9822,-0.9822,-0.9822,-0.9774,-0.9632,-0.9595,-0.9479,-0.9248,-0.921,-0.9096,-0.8898,-0.8885,-0.8885,-0.8885,-0.9042,-0.9159,-0.9159,-0.9215,-0.9286,-0.9306,-0.9323,-0.9405,-0.9495,-0.9591,-0.9677,-0.9936,-0.997,-1.012,-1.0256,-1.0402,-1.0201,-0.6659,-0.702,-0.7428,-0.7977,-0.8235,-0.8554,-0.9306,-0.9415,-0.9496,-0.9988,-1.0205,-1.0334,-1.0358,-1.0541,-1.0626,-1.0626,-1.0677,-1.0721,-1.0721,-1.0643,-1.0585,-1.0585,-1.0585,-1.0622,-1.0711,-1.0721,-1.0721,-1.0721,-1.0721,-1.0721,-1.0721,-1.0721,-1.0761,-1.0782,-1.0765,-1.0761,-1.0853,-1.0765,-1.0721,-1.0721,-1.0809,-1.0786,-1.0789,-1.0938,-1.0975,-1.0972,-1.089,-1.0786,-1.0779,-1.0758,-1.0721,-1.0721,-1.0721,-1.0721,-1.0721,-1.0721,-1.0721,-1.0721,-1.0721,-1.0721,-1.0721,-1.0721,-1.0721,-1.0721,-1.0721,-1.0721,-1.0721,-1.0721,-1.0721,-1.0721,-1.0721,-1.0721,-1.0704,-1.0639,-1.0626,-1.0585,-1.0436,-1.0351,-1.0256,-1.0021,-0.9936,-0.9866,-0.9836,-0.9822,-0.9802,-0.9741,-0.9734,-0.9656,-0.9445,-0.9418,-0.9361,-0.9211,-0.9195,-0.9195,-0.9195,-0.9252,-0.9344,-0.9344,-0.9347,-0.9422,-0.951,-0.9513,-0.9585,-0.973,-0.9822,-0.9866,-0.9987,-1.0222,-1.0341,-1.0409,-1.0555,-1.056,-0.7762,-0.7988,-0.8252,-0.8635,-0.912,-0.9534,-0.9659,-0.9852,-1.008,-1.0348,-1.0514,-1.0654,-1.0636,-1.0722,-1.0722,-1.0656,-1.0694,-1.0721,-1.0721,-1.0588,-1.0507,-1.0551,-1.0517,-1.0551,-1.0707,-1.0721,-1.0721,-1.0721,-1.0721,-1.0721,-1.0721,-1.0761,-1.0766,-1.0877,-1.088,-1.0894,-1.1006,-1.0897,-1.0843,-1.0843,-1.0955,-1.1006,-1.1012,-1.1114,-1.1231,-1.1158,-1.1053,-1.1006,-1.0995,-1.0846,-1.0782,-1.0778,-1.0734,-1.0721,-1.0721,-1.0721,-1.0721,-1.0721,-1.0721,-1.0721,-1.0721,-1.0721,-1.0721,-1.0721,-1.0721,-1.0721,-1.0721,-1.0721,-1.0721,-1.0721,-1.0721,-1.0721,-1.0721,-1.0721,-1.0721,-1.069,-1.0578,-1.0521,-1.0429,-1.0215,-1.0141,-1.0,-0.991,-0.9883,-0.9869,-0.9829,-0.9822,-0.9771,-0.9629,-0.9571,-0.9503,-0.9395,-0.9381,-0.9381,-0.9381,-0.9418,-0.9445,-0.9445,-0.9483,-0.9551,-0.9663,-0.9666,-0.9737,-0.988,-0.993,-1.0027,-1.0171,-1.0388,-1.0514,-1.0558,-1.067,-1.0721,-0.7645,-0.8031,-0.8611,-0.9205,-0.9585,-0.992,-1.0358,-1.0466,-1.0517,-1.0673,-1.0854,-1.0879,-1.0562,-1.0757,-1.0886,-1.0565,-1.0622,-1.0721,-1.0721,-1.0588,-1.0548,-1.0697,-1.0582,-1.0551,-1.0707,-1.0721,-1.0721,-1.0721,-1.0721,-1.0721,-1.0721,-1.0793,-1.0877,-1.088,-1.108,-1.122,-1.1155,-1.122,-1.1148,-1.1148,-1.1224,-1.1155,-1.1155,-1.1231,-1.1231,-1.1231,-1.1158,-1.1155,-1.1214,-1.0999,-1.0873,-1.086,-1.0778,-1.0721,-1.0721,-1.0721,-1.0721,-1.0721,-1.0721,-1.0721,-1.0721,-1.0721,-1.0721,-1.0721,-1.0721,-1.0721,-1.0721,-1.0721,-1.0721,-1.0721,-1.0721,-1.0721,-1.0721,-1.0721,-1.0721,-1.0717,-1.0714,-1.0599,-1.0487,-1.048,-1.0368,-1.0222,-1.0007,-0.998,-0.993,-0.9842,-0.9822,-0.9771,-0.9629,-0.9479,-0.9388,-0.9381,-0.9381,-0.9381,-0.9381,-0.9517,-0.9602,-0.9602,-0.973,-0.9812,-0.9815,-0.9815,-0.9886,-0.9977,-0.9984,-1.0192,-1.0477,-1.0487,-1.0568,-1.0714,-1.0717,-1.0721,-0.8339,-0.8852,-0.9327,-0.9727,-1.017,-1.065,-1.0912,-1.1169,-1.1352,-1.1228,-1.116,-1.1082,-1.0847,-1.0888,-1.0987,-1.0969,-1.0923,-1.093,-1.1035,-1.0719,-1.051,-1.0561,-1.0524,-1.0514,-1.0565,-1.066,-1.0721,-1.0721,-1.0721,-1.0765,-1.0799,-1.0853,-1.0971,-1.1236,-1.1189,-1.1212,-1.1314,-1.1212,-1.1231,-1.1234,-1.1267,-1.1369,-1.1467,-1.1467,-1.1467,-1.146,-1.1358,-1.1314,-1.1304,-1.1151,-1.1033,-1.0877,-1.0826,-1.0809,-1.0721,-1.0721,-1.0721,-1.0721,-1.0721,-1.0721,-1.0721,-1.0721,-1.0721,-1.0721,-1.0721,-1.0721,-1.0721,-1.0721,-1.0721,-1.0721,-1.0721,-1.0721,-1.0721,-1.0721,-1.0721,-1.0721,-1.0721,-1.068,-1.0612,-1.051,-1.0453,-1.0375,-1.0229,-1.0202,-1.0151,-0.9933,-0.9886,-0.9802,-0.9754,-0.9703,-0.9673,-0.9673,-0.9673,-0.9673,-0.9673,-0.972,-0.9751,-0.9751,-0.9795,-0.9822,-0.9822,-0.9822,-0.9893,-0.9984,-1.0151,-1.0297,-1.049,-1.0595,-1.067,-1.0721,-1.0721,-1.0721,-0.8947,-0.9501,-0.9952,-1.012,-1.0713,-1.1254,-1.1226,-1.1468,-1.1627,-1.14,-1.1243,-1.1018,-1.0673,-1.0632,-1.0725,-1.1003,-1.0932,-1.0938,-1.1142,-1.0916,-1.064,-1.0565,-1.0524,-1.0514,-1.0568,-1.0663,-1.0721,-1.0721,-1.0721,-1.0785,-1.0873,-1.0995,-1.1138,-1.1385,-1.1348,-1.1372,-1.147,-1.1375,-1.1324,-1.1328,-1.1426,-1.1525,-1.1619,-1.1619,-1.1619,-1.1613,-1.1514,-1.147,-1.146,-1.1307,-1.1189,-1.1094,-1.0921,-1.0823,-1.0795,-1.0741,-1.0721,-1.0721,-1.0721,-1.0721,-1.0721,-1.0721,-1.0721,-1.0721,-1.0721,-1.0721,-1.0721,-1.0721,-1.0721,-1.0721,-1.0721,-1.0721,-1.0721,-1.0721,-1.0721,-1.0721,-1.0721,-1.0721,-1.069,-1.0592,-1.0571,-1.0527,-1.0382,-1.0314,-1.0246,-1.0148,-1.0049,-0.9944,-0.9836,-0.9822,-0.9822,-0.9822,-0.9822,-0.9822,-0.9822,-0.9822,-0.9822,-0.9822,-0.9822,-0.9846,-0.9839,-0.99,-0.9998,-1.0139,-1.0304,-1.0429,-1.0575,-1.0673,-1.0721,-1.0721,-1.0721,-1.0721,-0.9296,-0.9933,-1.0464,-1.0588,-1.1264,-1.1839,-1.149,-1.1555,-1.1592,-1.1243,-1.1147,-1.0864,-1.0119,-1.0029,-1.0261,-1.0737,-1.0739,-1.0784,-1.1183,-1.1181,-1.1011,-1.077,-1.0719,-1.0689,-1.0707,-1.0727,-1.0731,-1.0731,-1.0731,-1.0799,-1.0884,-1.1097,-1.1246,-1.1399,-1.1545,-1.1619,-1.1619,-1.1619,-1.1619,-1.1619,-1.1619,-1.1619,-1.1619,-1.1619,-1.1619,-1.1619,-1.1619,-1.1619,-1.1609,-1.1463,-1.1399,-1.1362,-1.1073,-1.0887,-1.086,-1.0775,-1.0721,-1.0721,-1.0721,-1.0721,-1.0721,-1.0721,-1.0721,-1.0721,-1.0721,-1.0721,-1.0721,-1.0721,-1.0721,-1.0721,-1.0721,-1.0721,-1.0721,-1.0721,-1.0721,-1.0721,-1.0721,-1.0721,-1.0721,-1.0721,-1.0721,-1.0673,-1.0527,-1.0385,-1.029,-1.029,-1.0287,-1.0175,-0.9883,-0.9842,-0.9842,-0.9842,-0.9842,-0.9842,-0.9842,-0.9842,-0.9842,-0.9842,-0.9842,-0.991,-0.9994,-1.0,-1.0195,-1.0487,-1.049,-1.0568,-1.0721,-1.0721,-1.0721,-1.0721,-1.0721,-1.0721,-0.9849,-1.043,-1.1229,-1.2315,-1.2968,-1.3518,-1.4311,-1.4586,-1.4351,-1.3485,-1.3049,-1.2354,-1.0968,-1.1186,-1.1449,-1.1008,-1.1285,-1.1614,-1.1991,-1.2644,-1.2562,-1.1244,-1.2185,-1.237,-1.0846,-1.109,-1.116,-1.089,-1.0823,-1.0955,-1.1101,-1.125,-1.1402,-1.1555,-1.1599,-1.1619,-1.1619,-1.1619,-1.1619,-1.1619,-1.1619,-1.1619,-1.1619,-1.1619,-1.1619,-1.1619,-1.1619,-1.1619,-1.1616,-1.1575,-1.1494,-1.1372,-1.1182,-1.1043,-1.086,-1.0775,-1.0721,-1.0721,-1.0721,-1.0721,-1.0721,-1.0721,-1.0721,-1.0721,-1.0721,-1.0721,-1.0721,-1.0721,-1.0721,-1.0721,-1.0721,-1.0721,-1.0721,-1.0721,-1.0721,-1.0721,-1.0721,-1.0721,-1.0721,-1.0721,-1.0721,-1.0707,-1.067,-1.0538,-1.0436,-1.0436,-1.0348,-1.0253,-1.0171,-1.0164,-1.0164,-1.0164,-1.0164,-1.0164,-1.0164,-1.0164,-1.0164,-1.0164,-1.0164,-1.0181,-1.0219,-1.0222,-1.0307,-1.0487,-1.049,-1.0568,-1.0721,-1.0721,-1.0721,-1.0721,-1.0721,-1.0721,-1.0224,-1.125,-1.2557,-1.3132,-1.4047,-1.4797,-1.4978,-1.5009,-1.4603,-1.3153,-1.2697,-1.2181,-1.0856,-1.0972,-1.1406,-1.1841,-1.2226,-1.28,-1.3789,-1.4,-1.3656,-1.2487,-1.2749,-1.2531,-1.1414,-1.2229,-1.2667,-1.2263,-1.1517,-1.1375,-1.2285,-1.2381,-1.2789,-1.3519,-1.3595,-1.3246,-1.261,-1.1972,-1.1619,-1.1619,-1.1619,-1.1975,-1.261,-1.1903,-1.1972,-1.2538,-1.1903,-1.1619,-1.1619,-1.1619,-1.1569,-1.1474,-1.1321,-1.1172,-1.1023,-1.0877,-1.0778,-1.0721,-1.0721,-1.0721,-1.0721,-1.0721,-1.0721,-1.0721,-1.0721,-1.0721,-1.0721,-1.0721,-1.0721,-1.0721,-1.0721,-1.0721,-1.0721,-1.0721,-1.0721,-1.0721,-1.0721,-1.0721,-1.0721,-1.0721,-1.0721,-1.0721,-1.0721,-1.0649,-1.0592,-1.0592,-1.0524,-1.0473,-1.0473,-1.0361,-1.028,-1.028,-1.028,-1.028,-1.028,-1.028,-1.028,-1.028,-1.028,-1.031,-1.0371,-1.0375,-1.0443,-1.0588,-1.0592,-1.0633,-1.0721,-1.0721,-1.0721,-1.0721,-1.0721,-1.0721,-1.083,-1.2376,-1.3927,-1.3944,-1.5061,-1.5908,-1.4876,-1.4481,-1.3814,-1.1972,-1.1648,-1.14,-1.0421,-1.0387,-1.1101,-1.2826,-1.3242,-1.4024,-1.5783,-1.5257,-1.4544,-1.4171,-1.3232,-1.2613,-1.2479,-1.3938,-1.4686,-1.428,-1.2793,-1.2508,-1.3948,-1.3977,-1.4692,-1.6056,-1.5919,-1.5217,-1.388,-1.2398,-1.1619,-1.1619,-1.1832,-1.261,-1.388,-1.2753,-1.2964,-1.4093,-1.2749,-1.2183,-1.2183,-1.2183,-1.2115,-1.1886,-1.173,-1.1517,-1.1172,-1.1009,-1.0796,-1.0748,-1.0727,-1.0721,-1.0721,-1.0721,-1.0721,-1.0721,-1.0721,-1.0721,-1.0721,-1.0721,-1.0721,-1.0721,-1.0721,-1.0721,-1.0721,-1.0721,-1.0721,-1.0721,-1.0721,-1.0721,-1.0721,-1.0721,-1.0721,-1.0721,-1.0721,-1.0721,-1.0721,-1.0721,-1.0721,-1.0721,-1.0721,-1.0497,-1.0337,-1.0337,-1.0337,-1.0337,-1.0337,-1.0337,-1.0337,-1.0337,-1.0337,-1.0392,-1.0517,-1.0521,-1.0585,-1.0717,-1.0721,-1.0721,-1.0721,-1.0721,-1.0721,-1.0721,-1.0721,-1.0721,-1.2572,-1.3569,-1.4795,-1.6779,-1.7157,-1.6989,-1.7026,-1.6253,-1.5089,-1.3542,-1.2853,-1.2238,-1.1126,-1.1619,-1.2362,-1.2908,-1.3712,-1.4791,-1.6207,-1.6276,-1.611,-1.5968,-1.5999,-1.5808,-1.52,-1.5691,-1.5924,-1.5579,-1.5375,-1.5336,-1.5496,-1.5639,-1.5812,-1.6061,-1.4937,-1.4164,-1.388,-1.2398,-1.1619,-1.1619,-1.2892,-1.367,-1.3951,-1.4867,-1.5495,-1.5707,-1.5429,-1.5287,-1.5287,-1.5287,-1.4583,-1.3511,-1.3329,-1.2481,-1.1318,-1.1046,-1.0863,-1.0823,-1.0765,-1.0721,-1.0721,-1.0721,-1.0721,-1.0721,-1.0721,-1.0721,-1.0721,-1.0721,-1.0721,-1.0721,-1.0721,-1.0721,-1.0721,-1.0721,-1.0721,-1.0721,-1.0721,-1.0721,-1.0721,-1.0721,-1.0721,-1.0721,-1.0721,-1.0721,-1.0721,-1.0721,-1.0721,-1.0721,-1.0721,-1.0677,-1.0643,-1.0643,-1.0643,-1.0643,-1.0643,-1.0643,-1.0643,-1.0643,-1.0643,-1.0656,-1.068,-1.068,-1.0694,-1.0721,-1.0721,-1.0721,-1.0721,-1.0721,-1.0721,-1.0721,-1.0721,-1.0721,-1.3404,-1.5024,-1.6786,-1.7817,-1.807,-1.786,-1.7094,-1.5992,-1.4599,-1.2814,-1.2258,-1.1817,-1.0994,-1.1486,-1.2386,-1.3389,-1.4117,-1.5364,-1.7685,-1.7355,-1.7213,-1.7908,-1.7439,-1.6902,-1.6746,-1.7475,-1.7887,-1.7544,-1.8261,-1.8272,-1.7261,-1.7987,-1.8465,-1.8465,-1.7062,-1.6216,-1.6216,-1.4729,-1.3951,-1.3947,-1.4725,-1.5504,-1.6216,-1.6136,-1.6554,-1.7268,-1.6484,-1.6131,-1.6131,-1.6131,-1.5707,-1.4929,-1.4136,-1.3275,-1.2485,-1.1504,-1.108,-1.087,-1.0796,-1.0785,-1.0721,-1.0721,-1.0721,-1.0721,-1.0721,-1.0721,-1.0721,-1.0721,-1.0721,-1.0721,-1.0721,-1.0721,-1.0721,-1.0721,-1.0721,-1.0721,-1.0721,-1.0721,-1.0721,-1.0721,-1.0721,-1.0721,-1.0721,-1.0721,-1.0721,-1.0721,-1.0721,-1.0721,-1.0721,-1.0721,-1.0721,-1.0721,-1.0721,-1.0721,-1.0721,-1.0721,-1.0721,-1.0721,-1.0721,-1.0721,-1.0721,-1.0721,-1.0721,-1.0721,-1.0721,-1.0721,-1.0721,-1.0721,-1.0721,-1.0721,-1.0721,-1.0721,-1.4184,-1.641,-1.8581,-1.8569,-1.864,-1.8295,-1.6584,-1.517,-1.366,-1.1782,-1.1295,-1.1122,-1.076,-1.1119,-1.2061,-1.3822,-1.4415,-1.5765,-1.8765,-1.8106,-1.7937,-1.9533,-1.8383,-1.7657,-1.8241,-1.9179,-1.968,-1.9407,-2.0451,-2.0445,-1.8971,-2.0028,-2.0665,-2.0665,-1.9186,-1.8406,-1.8406,-1.6841,-1.6131,-1.6131,-1.6413,-1.7198,-1.8336,-1.7479,-1.776,-1.8832,-1.7619,-1.7117,-1.7117,-1.7117,-1.6911,-1.6413,-1.4937,-1.4144,-1.352,-1.1959,-1.1243,-1.1033,-1.09,-1.0803,-1.0765,-1.0731,-1.0721,-1.0721,-1.0721,-1.0721,-1.0721,-1.0721,-1.0721,-1.0721,-1.0721,-1.0721,-1.0721,-1.0721,-1.0721,-1.0721,-1.0721,-1.0721,-1.0721,-1.0721,-1.0721,-1.0721,-1.0721,-1.0721,-1.0721,-1.0721,-1.0721,-1.0721,-1.0721,-1.0721,-1.0721,-1.0721,-1.0721,-1.0721,-1.0721,-1.0721,-1.0721,-1.0721,-1.0721,-1.0721,-1.0721,-1.0721,-1.0721,-1.0721,-1.0721,-1.0721,-1.0721,-1.0721,-1.0721,-1.0721,-1.0721,-1.0721,-1.5496,-1.744,-1.9112,-1.985,-1.9238,-1.8042,-1.6279,-1.4556,-1.2966,-1.1655,-1.1009,-1.0734,-1.0915,-1.1201,-1.1992,-1.3814,-1.4599,-1.5803,-1.8243,-1.7861,-1.8111,-2.0245,-1.9406,-1.9148,-2.0373,-2.0577,-2.0596,-2.0533,-2.0665,-2.0665,-2.0527,-2.0596,-2.0665,-2.0665,-1.9186,-1.8406,-1.8406,-1.6841,-1.6131,-1.6131,-1.7554,-1.8266,-1.8406,-1.9675,-2.0382,-2.0457,-2.0312,-2.0312,-2.0312,-2.0312,-1.9465,-1.8051,-1.6489,-1.5066,-1.3693,-1.1998,-1.1372,-1.1311,-1.1043,-1.0873,-1.0836,-1.0765,-1.0721,-1.0721,-1.0721,-1.0721,-1.0721,-1.0721,-1.0721,-1.0721,-1.0721,-1.0721,-1.0721,-1.0721,-1.0721,-1.0721,-1.0721,-1.0721,-1.0721,-1.0721,-1.0721,-1.0721,-1.0721,-1.0721,-1.0721,-1.0721,-1.0721,-1.0721,-1.0721,-1.0721,-1.0721,-1.0721,-1.0721,-1.0721,-1.0721,-1.0721,-1.0721,-1.0721,-1.0721,-1.0721,-1.0721,-1.0721,-1.0721,-1.0721,-1.0721,-1.0721,-1.0721,-1.0721,-1.0721,-1.0721,-1.0721,-1.0721,-1.6837,-1.8664,-2.005,-2.0151,-1.9352,-1.8023,-1.6191,-1.4426,-1.2872,-1.1635,-1.0962,-1.0626,-1.0747,-1.0969,-1.163,-1.3085,-1.3514,-1.4499,-1.6871,-1.6879,-1.7598,-2.009,-1.9745,-1.9828,-2.1233,-2.0951,-2.0665,-2.0665,-2.0665,-2.0665,-2.0665,-2.0665,-2.0665,-2.0665,-2.0104,-1.975,-1.975,-1.9175,-1.889,-1.889,-1.946,-1.975,-1.982,-2.0451,-2.0665,-2.0665,-2.0665,-2.0665,-2.0665,-2.0665,-2.0312,-1.9535,-1.7047,-1.5707,-1.4924,-1.2465,-1.147,-1.1372,-1.1257,-1.1097,-1.087,-1.0809,-1.0795,-1.0721,-1.0721,-1.0721,-1.0721,-1.0721,-1.0721,-1.0721,-1.0721,-1.0721,-1.0721,-1.0721,-1.0721,-1.0721,-1.0721,-1.0721,-1.0721,-1.0721,-1.0721,-1.0982,-1.1835,-1.1244,-1.0982,-1.1835,-1.1244,-1.0721,-1.0721,-1.1442,-1.1637,-1.0787,-1.0721,-1.0721,-1.0721,-1.0721,-1.0721,-1.0721,-1.0721,-1.0721,-1.0721,-1.0721,-1.0721,-1.0721,-1.0721,-1.0721,-1.0721,-1.0721,-1.0721,-1.0721,-1.0721,-1.0721,-1.7156,-1.9013,-2.0221,-1.992,-1.8965,-1.7649,-1.5959,-1.4275,-1.2739,-1.1543,-1.0935,-1.0593,-1.0593,-1.076,-1.1256,-1.2348,-1.267,-1.3548,-1.5752,-1.6362,-1.7355,-1.9403,-1.9652,-2.0043,-2.1141,-2.094,-2.0665,-2.0665,-2.0665,-2.0665,-2.0665,-2.0665,-2.0665,-2.0665,-2.0665,-2.0665,-2.0665,-2.0665,-2.0665,-2.0665,-2.0665,-2.0665,-2.0665,-2.0665,-2.0665,-2.0665,-2.0665,-2.0665,-2.0665,-2.0665,-2.0665,-2.0451,-1.783,-1.6484,-1.5778,-1.3246,-1.1902,-1.1453,-1.1406,-1.1226,-1.1006,-1.0894,-1.0779,-1.0721,-1.0721,-1.0721,-1.0721,-1.0721,-1.0721,-1.0721,-1.0721,-1.0721,-1.0721,-1.0721,-1.1049,-1.131,-1.131,-1.1637,-1.1963,-1.1963,-1.1963,-1.2227,-1.3276,-1.2622,-1.2293,-1.3276,-1.2553,-1.1963,-1.1963,-1.2816,-1.3013,-1.2029,-1.1963,-1.1571,-1.0784,-1.0721,-1.0721,-1.0721,-1.0721,-1.0721,-1.0721,-1.0721,-1.0721,-1.0721,-1.0721,-1.0721,-1.0721,-1.0721,-1.0721,-1.0721,-1.0765,-1.0809,-1.6127,-1.7995,-1.9305,-1.9011,-1.8043,-1.6831,-1.535,-1.3862,-1.2455,-1.1243,-1.0801,-1.0593,-1.0593,-1.0593,-1.0888,-1.1772,-1.2402,-1.3407,-1.515,-1.6455,-1.7483,-1.8346,-1.918,-1.979,-1.9931,-2.0404,-2.0665,-2.0665,-2.0665,-2.0665,-2.0665,-2.0665,-2.0665,-2.0665,-2.0665,-2.0665,-2.0665,-2.0665,-2.0665,-2.0665,-2.0665,-2.0665,-2.0665,-2.0665,-2.0665,-2.0665,-2.0665,-2.0665,-2.0665,-2.0665,-2.0665,-2.0527,-1.8971,-1.7414,-1.5919,-1.4445,-1.2892,-1.1596,-1.1443,-1.129,-1.1138,-1.0927,-1.0779,-1.0721,-1.0721,-1.0721,-1.0721,-1.0721,-1.0721,-1.0721,-1.0721,-1.0721,-1.0721,-1.0721,-1.1769,-1.275,-1.275,-1.3862,-1.4842,-1.4842,-1.4842,-1.4842,-1.4912,-1.4842,-1.4842,-1.4912,-1.4842,-1.4842,-1.4842,-1.4842,-1.4842,-1.4842,-1.4842,-1.3731,-1.0916,-1.0721,-1.0721,-1.0721,-1.0721,-1.0721,-1.0721,-1.0721,-1.0721,-1.0721,-1.0721,-1.0721,-1.0721,-1.0721,-1.0721,-1.0724,-1.0806,-1.1023,-1.5193,-1.6491,-1.7134,-1.664,-1.6086,-1.537,-1.4055,-1.308,-1.2164,-1.1196,-1.0794,-1.0593,-1.0593,-1.0593,-1.1149,-1.2806,-1.324,-1.3975,-1.5745,-1.6884,-1.7782,-1.8569,-1.9884,-2.0678,-2.0471,-2.0589,-2.0665,-2.0665,-2.0665,-2.0665,-2.0665,-2.0665,-2.0665,-2.0665,-2.0665,-2.0665,-2.0665,-2.0665,-2.0665,-2.0665,-2.0665,-2.0665,-2.0665,-2.0665,-2.0665,-2.0665,-2.0665,-2.0665,-2.0665,-2.0665,-2.0665,-2.0527,-1.8971,-1.8121,-1.7484,-1.5995,-1.5075,-1.4645,-1.4651,-1.4423,-1.4143,-1.4082,-1.3854,-1.3604,-1.3604,-1.2882,-1.2359,-1.3276,-1.3604,-1.3604,-1.3604,-1.3604,-1.3604,-1.3604,-1.3927,-1.4254,-1.4254,-1.4581,-1.4907,-1.4907,-1.4907,-1.5233,-1.6138,-1.5559,-1.5233,-1.6203,-1.5489,-1.4907,-1.4907,-1.5749,-1.5944,-1.4973,-1.5749,-1.5554,-1.3731,-1.3604,-1.3144,-1.2227,-1.2161,-1.1703,-1.0721,-1.0721,-1.0721,-1.0721,-1.0721,-1.0721,-1.0721,-1.0721,-1.0721,-1.0724,-1.0809,-1.1026,-1.3939,-1.5003,-1.5364,-1.499,-1.4603,-1.4048,-1.3086,-1.2405,-1.1757,-1.0989,-1.072,-1.0593,-1.0593,-1.0593,-1.1089,-1.2521,-1.3086,-1.3888,-1.5591,-1.6627,-1.7659,-1.8809,-1.9996,-2.0656,-2.0563,-2.062,-2.0665,-2.0665,-2.0665,-2.0665,-2.0665,-2.0665,-2.0665,-2.0665,-2.0665,-2.0665,-2.0665,-2.0665,-2.0665,-2.0665,-2.0665,-2.0665,-2.0665,-2.0665,-2.0665,-2.0665,-2.0665,-2.0665,0.0,-2.0665,-2.0665,-2.0596,-1.9611,-1.8901,-1.8266,-1.7338,-1.6625,-1.6122,-1.5971,-1.5722,-1.5493,-1.535,-1.5172,-1.4973,-1.5554,-1.4712,-1.3796,-1.4646,-1.4907,-1.4907,-1.4907,-1.4907,-1.4907,-1.4907,-1.5298,-1.5684,-1.5684,-1.6143,-1.6467,-1.6467,-1.6467,-1.6732,-1.763,-1.7055,-1.6791,-1.7636,-1.705,-1.6467,-1.6467,-1.7249,-1.7442,-1.6602,-1.7243,-1.7437,-1.6532,-1.5494,-1.4516,-1.3665,-1.36,-1.2947,-1.1574,-1.1508,-1.1244,-1.0721,-1.0721,-1.0721,-1.0721,-1.0721,-1.0778,-1.089,-1.0985,-1.1138,0.0,-1.3373,-1.3828,-1.3788,-1.338,-1.2839,-1.2251,-1.171,0.0,-1.0673,-1.0559,-1.0586,-1.0667,-1.0667,-1.0894,-1.1555,-1.2435,-1.3501,-1.497,-1.6094,-1.7402,-1.9105,-1.9647,-2.0028,-2.0366,-2.0581,-2.0665,-2.0665,-2.0665,-2.0665,-2.0665,-2.0665,-2.0665,-2.0665,-2.0665,-2.0665,-2.0665,-2.0665,-2.0665,-2.0665,-2.0665,-2.0665,-2.0665,-2.0665,-2.0665,-2.0665,-2.0665,-2.0665,-2.0665,-2.0665,-2.0665,-2.0665,-2.0665,-1.982,-1.8552,-1.8552,-1.7684,-1.6365,-1.6099,-1.5952,-1.5721,-1.5448,-1.5322,-1.5429,-1.6721,-1.6138,-1.5038,-1.5168,-1.5168,-1.5168,-1.5168,-1.5168,-1.5168,-1.5168,-1.6203,-1.7173,-1.7173,-1.8156,-1.9078,-1.9078,-1.9078,-1.9078,-1.9078,-1.9078,-1.9078,-1.9078,-1.9078,-1.9078,-1.9078,-1.9078,-1.9078,-1.9078,-1.9078,-1.9078,-1.9078,-1.6732,-1.5168,-1.5038,-1.5038,-1.445,-1.3013,-1.2947,-1.2359,-1.1049,-1.0916,-1.0787,-1.0721,-1.0721,-1.0867,-1.1148,-1.1158,-1.1321,-0.997,0.0,-1.1316,-1.0861,-1.0782,-1.0748,0.0,-1.0367,-1.0356,-1.0247,-1.0221,-1.0494,-1.143,-1.1376,-1.1931,-1.4108,-1.4636,-1.5325,-1.6767,-1.7684,-1.8749,-2.0322,-2.031,-2.0392,-2.0928,-2.08,-2.0665,-2.0665,-2.0665,-2.0665,-2.0665,-2.0665,-2.0665,-2.0665,-2.0665,-2.0665,-2.0665,-2.0665,-2.0665,-2.0665,-2.0665,-2.0665,-2.0665,-2.0665,-2.0665,-2.0665,-2.0665,-2.0665,-2.0665,-2.0665,-2.0665,-2.0665,-2.0665,-2.0457,-2.0173,-2.0173,-1.9767,-1.9307,-1.925,-1.8929,-1.851,-1.8258,-1.8144,-1.8162,-1.8489,-1.7636,-1.6721,-1.7835,-1.8098,-1.8098,-1.8098,-1.8098,-1.8098,-1.8098,-1.8355,-1.8617,-1.8617,-1.888,-1.9078,-1.9078,-1.9078,-1.9078,-1.9078,-1.9078,-1.9078,-1.9078,-1.9078,-1.9078,-1.9078,-1.9078,-1.9078,-1.9078,-1.9078,-1.9078,-1.9078,-1.8489,-1.7641,-1.6586,-1.6527,-1.5874,-1.445,-1.4385,-1.4254,-1.3927,-1.2882,-1.1769,-1.0721,-1.0721,-1.0816,-1.1002,-1.1111,-1.1263,-0.9011,-0.998,-1.0882,-1.0561,-1.0701,-1.0882,-1.0754,-1.0494,-1.0321,-1.0321,-1.0321,-1.0595,-1.1496,-1.165,-1.2278,-1.4269,-1.5044,-1.6062,-1.7896,-1.896,-1.984,-2.0567,-2.0582,-2.0649,-2.0912,-2.0804,-2.0665,-2.0665,-2.0665,-2.0665,-2.0665,-2.0665,-2.0665,-2.0665,-2.0665,-2.0665,-2.0665,-2.0665,-2.0665,-2.0665,-2.0665,-2.0665,-2.0665,-2.0665,-2.0665,-2.0665,-2.0665,-2.0665,-2.0665,-2.0665,-2.0665,-2.0665,-2.0665,-2.0665,-2.0653,-2.0533,-2.04,-2.0243,-1.9989,-1.9633,-1.9265,-1.912,-1.9078,-1.9078,-1.9078,-1.8553,-1.8092,-1.888,-1.9078,-1.9078,-1.9078,-1.9078,-1.9078,-1.9078,-1.9078,-1.9078,-1.9078,-1.9078,-1.9078,-1.9078,-1.9078,-1.9078,-1.9078,-1.9078,-1.9078,-1.9078,-1.9078,-1.9078,-1.9078,-1.9078,-1.9078,-1.9078,-1.9078,-1.9078,-1.9078,-1.9078,-1.8746,-1.8022,-1.7958,-1.7308,-1.5944,-1.5879,-1.5554,-1.4907,-1.4124,-1.3407,-1.2618,-1.2765,-1.2496,-1.1998,-1.2222,-1.2042,-0.9025,-1.0226,-1.1393,-1.1196,-1.1483,-1.1812,-1.1725,-1.1129,-1.06,-1.0646,-1.0693,-1.0941,-1.1595,-1.2044,-1.2692,-1.3968,-1.5113,-1.6568,-1.859,-1.9714,-2.031,-2.0344,-2.052,-2.0656,-2.0719,-2.0717,-2.0665,-2.0665,-2.0665,-2.0665,-2.0665,-2.0665,-2.0665,-2.0665,-2.0665,-2.0665,-2.0665,-2.0665,-2.0665,-2.0665,-2.0665,-2.0665,-2.0665,-2.0665,-2.0665,-2.0665,-2.0665,-2.0665,-2.0665,-2.0665,-2.0665,-2.0665,-2.0665,-2.0641,-2.0581,-2.0358,-2.0225,-2.008,-1.9579,-1.9259,-1.9078,-1.9078,-1.9078,-1.9078,-1.9078,-1.9078,-1.9078,-1.9078,-1.9078,-1.9078,-1.9078,-1.9078,-1.9078,-1.9078,-1.9078,-1.9078,-1.9078,-1.9078,-1.9078,-1.9078,-1.9078,-1.9078,-1.9078,-1.9078,-1.9078,-1.9078,-1.9078,-1.9078,-1.9078,-1.9078,-1.9078,-1.9078,-1.9078,-1.9078,-1.9078,-1.9078,-1.9078,-1.9078,-1.9078,-1.8547,-1.7367,-1.7302,-1.6656,-1.5233,-1.5233,-1.5103,-1.4907,-1.5181,-1.4715,-1.3622,-1.3938,-1.3432,-1.002,-1.0974,-1.1378,-1.0228,-1.0728,-1.1363,-1.0908,-1.0693,-1.066,-1.0875,-1.1122,-1.1668,-1.3014,-1.3706,-1.4663,-1.6388,-1.7381,-1.8199,-1.906,-1.9044,-1.9257,-1.998,-2.0038,-2.0246,-2.0712,-2.0739,-2.0665,-2.0665,-2.0665,-2.0665,-2.0665,-2.0665,-2.0665,-2.0665,-2.0665,-2.0665,-2.0665,-2.0665,-2.0665,-2.0665,-2.0665,-2.0665,-2.0665,-2.0665,-2.0665,-2.0665,-2.0665,-2.0665,-2.0665,-2.0665,-2.0665,-2.0665,-2.0665,-2.0533,-2.0334,-2.0291,-1.9983,-1.9549,-1.9241,-1.9108,-1.9078,-1.9078,-1.9078,-1.9078,-1.9078,-1.9078,-1.9078,-1.9078,-1.9078,-1.9078,-1.9078,-1.9078,-1.9078,-1.9078,-1.9078,-1.9078,-1.9078,-1.9078,-1.9078,-1.9078,-1.9078,-1.9078,-1.9078,-1.9078,-1.9078,-1.9078,-1.9078,-1.9078,-1.9078,-1.9078,-1.9078,-1.9078,-1.9078,-1.9078,-1.9078,-1.9078,-1.9078,-1.9078,-1.9078,-1.9008,-1.881,-1.8746,-1.8092,-1.6721,-1.6651,-1.6073,-1.4907,-1.5181,-1.5252,-1.5173,-1.5459,-1.5523,-0.9431,-1.0502,-1.1252,-1.0614,-1.1663,-1.2785,-1.2561,-1.2257,-1.2031,-1.2164,-1.2298,-1.2662,-1.3693,-1.4333,-1.5349,-1.7282,-1.8263,-1.8952,-1.9426,-1.9481,-1.9616,-1.9949,-1.9979,-2.0038,-2.0307,-2.0306,-2.0243,-2.0243,-2.0243,-2.0243,-2.0243,-2.0243,-2.0243,-2.0243,-2.0382,-2.0388,-2.0249,-2.0388,-2.0527,-2.0665,-2.0665,-2.0665,-2.0665,-2.0665,-2.0665,-2.0665,-2.0665,-2.0665,-2.0659,-2.0515,-2.0454,-2.0442,-2.0297,-2.0171,-2.0044,-1.9893,-1.9591,-1.9241,-1.912,-1.9078,-1.9078,-1.9078,-1.9078,-1.9078,-1.9078,-1.9078,-1.9078,-1.9078,-1.9078,-1.9078,-1.9078,-1.9078,-1.9078,-1.9078,-1.9078,-1.9078,-1.9078,-1.9078,-1.9078,-1.9078,-1.9078,-1.9078,-1.9078,-1.9078,-1.9078,-1.9078,-1.9078,-1.9078,-1.9078,-1.9078,-1.9078,-1.9078,-1.9078,-1.9078,-1.9078,-1.9078,-1.9078,-1.9078,-1.9078,-1.9078,-1.9078,-1.9078,-1.881,-1.8156,-1.8156,-1.7835,-1.7184,-1.756,-1.7387,-1.6673,-1.7029,-1.6822,-0.9056,-1.0084,-1.1123,-1.1407,-1.2654,-1.389,-1.4156,-1.3747,-1.337,-1.3664,-1.3767,-1.3917,-1.432,-1.5074,-1.6202,-1.7837,-1.8772,-1.9398,-1.9631,-1.9783,-1.9869,-1.9822,-1.9831,-1.9889,-1.9833,-1.9845,-1.9887,-1.9887,-1.9887,-1.9887,-1.9887,-1.9887,-1.9887,-1.9887,-2.008,-2.0086,-1.9887,-2.0086,-2.0285,-2.0484,-2.0551,-2.0545,-2.0484,-2.0551,-2.0545,-2.0484,-2.0484,-2.0484,-2.0472,-2.0267,-2.0189,-2.0165,-1.9965,-1.9845,-1.9754,-1.9542,-1.9247,-1.9078,-1.9078,-1.9078,-1.9078,-1.9078,-1.9078,-1.9078,-1.9078,-1.9078,-1.9078,-1.9078,-1.9078,-1.9078,-1.9078,-1.9078,-1.9078,-1.9078,-1.9078,-1.9078,-1.9078,-1.9078,-1.9078,-1.9078,-1.9078,-1.9078,-1.9078,-1.9078,-1.9078,-1.9078,-1.9078,-1.9078,-1.9078,-1.9078,-1.9078,-1.9078,-1.9078,-1.9078,-1.9078,-1.927,-1.927,-1.92,-1.9136,-1.9078,-1.9078,-1.9078,-1.9078,-1.9078,-1.9078,-1.9078,-1.9078,-1.9621,-1.9267,-1.8177,-1.8675,-1.8331,-0.986,-1.0397,-1.0958,-1.219,-1.2757,-1.3261,-1.4317,-1.409,-1.3957,-1.5026,-1.5409,-1.5462,-1.5303,-1.6679,-1.7989,-1.8728,-1.9236,-1.9585,-1.961,-1.938,-1.9148,-1.9166,-1.9384,-1.9542,-1.956,-1.9736,-1.9887,-1.9887,-1.9887,-1.9887,-1.9887,-1.9887,-1.9887,-1.9887,-1.9905,-1.9905,-1.9887,-1.9905,-1.9923,-1.9947,-2.0189,-2.0183,-1.9953,-2.0195,-2.0171,-1.9941,-1.9941,-1.9941,-1.9941,-1.9923,-1.9917,-1.9911,-1.9893,-1.973,-1.953,-1.9199,-1.909,-1.9078,-1.9078,-1.9078,-1.9078,-1.9078,-1.9078,-1.9078,-1.9078,-1.9078,-1.9078,-1.9078,-1.9078,-1.9078,-1.9078,-1.9078,-1.9078,-1.9078,-1.9078,-1.9078,-1.9078,-1.9078,-1.9078,-1.9078,-1.9078,-1.9078,-1.9078,-1.9078,-1.9078,-1.9078,-1.9078,-1.9078,-1.9078,-1.9078,-1.9078,-1.9078,-1.9078,-1.9078,-1.9078,-1.9654,-1.9909,-1.9577,-1.9264,-1.9078,-1.9078,-1.9078,-1.9078,-1.9078,-1.9078,-1.9078,-1.9078,-1.9621,-1.9814,-1.9759,-2.0281,-2.0457,-0.9108,-1.0085,-1.115,-1.1973,-1.2705,-1.3515,-1.4588,-1.5172,-1.5763,-1.66,-1.6791,-1.676,-1.6486,-1.7284,-1.7997,-1.8266,-1.8858,-1.9264,-1.9264,-1.92,-1.9078,-1.9078,-1.9163,-1.9223,-1.9223,-1.932,-1.9386,-1.9386,-1.9386,-1.9386,-1.9386,-1.9386,-1.9386,-1.9386,-1.9537,-1.9549,-1.9386,-1.9543,-1.9543,-1.9386,-1.9827,-1.9983,-1.9887,-1.9989,-1.9983,-1.9887,-1.9887,-1.9887,-1.9875,-1.97,-1.9627,-1.9609,-1.9446,-1.9314,-1.9211,-1.9114,-1.9078,-1.9078,-1.9078,-1.9078,-1.9078,-1.9078,-1.9078,-1.9078,-1.9078,-1.9078,-1.9078,-1.9078,-1.9078,-1.9078,-1.9078,-1.9078,-1.9078,-1.9078,-1.9078,-1.9078,-1.9078,-1.9078,-1.9078,-1.9078,-1.9078,-1.9078,-1.9078,-1.9264,-1.9392,-1.9392,-1.959,-1.9717,-1.9717,-1.9717,-1.9717,-1.9717,-1.9717,-1.9717,-1.9717,-1.9979,-2.0043,-1.9909,-1.9781,-1.9717,-1.9717,-1.952,-1.952,-1.9717,-1.952,-1.9392,-1.9392,-1.9944,-2.0081,-1.9899,-2.0424,-2.0665,-0.8901,-1.0072,-1.1382,-1.186,-1.2883,-1.4085,-1.5125,-1.5891,-1.6639,-1.7636,-1.7597,-1.7372,-1.7369,-1.7554,-1.7805,-1.798,-1.8607,-1.9078,-1.9078,-1.9078,-1.9078,-1.9078,-1.9078,-1.9078,-1.9078,-1.9078,-1.9078,-1.9078,-1.9078,-1.9078,-1.9078,-1.9078,-1.9078,-1.9078,-1.9247,-1.9259,-1.9078,-1.9253,-1.9253,-1.9078,-1.9452,-1.9633,-1.9633,-1.9718,-1.9706,-1.9633,-1.9633,-1.9633,-1.9615,-1.9422,-1.9344,-1.939,-1.9145,-1.9078,-1.9078,-1.9078,-1.9078,-1.9078,-1.9078,-1.9078,-1.9078,-1.9078,-1.9078,-1.9078,-1.9078,-1.9078,-1.9078,-1.9078,-1.9078,-1.9078,-1.9078,-1.9078,-1.9078,-1.9078,-1.9078,-1.9078,-1.9078,-1.9078,-1.9142,-1.9264,-1.92,-1.9142,-1.9398,-1.952,-1.9641,-1.9711,-1.9973,-2.0106,-2.0106,-2.0106,-2.0106,-2.0106,-2.017,-2.0234,-2.0106,-2.0297,-2.0354,-2.0234,-2.0361,-2.0297,-2.0106,-1.9909,-1.9845,-2.0106,-1.9845,-1.9775,-1.9775,-2.0179,-2.0327,-2.0093,-2.0606,-2.0857,-0.9603,-1.0482,-1.1552,-1.207,-1.3417,-1.4902,-1.5968,-1.6064,-1.6393,-1.8043,-1.7713,-1.7267,-1.7781,-1.7666,-1.7672,-1.8203,-1.8734,-1.9078,-1.9078,-1.9078,-1.9078,-1.9078,-1.9078,-1.9078,-1.9078,-1.9078,-1.9078,-1.9078,-1.9078,-1.9078,-1.9078,-1.9078,-1.9078,-1.9078,-1.9078,-1.9078,-1.9078,-1.9078,-1.9078,-1.9078,-1.9078,-1.9078,-1.9084,-1.9409,-1.932,-1.9078,-1.9078,-1.9078,-1.9078,-1.9078,-1.9078,-1.9078,-1.9078,-1.9078,-1.9078,-1.9078,-1.9078,-1.9078,-1.9078,-1.9078,-1.9078,-1.9078,-1.9078,-1.9078,-1.9078,-1.9078,-1.9078,-1.9078,-1.9078,-1.9078,-1.9078,-1.9078,-1.9078,-1.9078,-1.9078,-1.9078,-1.9078,-1.9078,-1.92,-1.9514,-1.9328,-1.9334,-1.9979,-1.9839,-1.9711,-2.0043,-2.0106,-2.0106,-2.0106,-2.0106,-2.0106,-2.0106,-2.0425,-2.0482,-2.017,-2.0736,-2.0982,-2.0609,-2.0919,-2.0799,-2.0106,-2.0106,-2.0106,-2.0106,-2.0106,-2.0106,-2.0106,-2.0386,-2.0469,-2.0414,-2.1017,-2.1288,-0.9628,-1.0791,-1.228,-1.2997,-1.4222,-1.5587,-1.6815,-1.7227,-1.7631,-1.8673,-1.8692,-1.8502,-1.8234,-1.8257,-1.8318,-1.83,-1.8734,-1.9078,-1.9078,-1.9078,-1.9078,-1.9078,-1.9078,-1.9078,-1.9078,-1.9078,-1.9078,-1.9078,-1.9078,-1.9078,-1.9078,-1.9078,-1.9078,-1.9078,-1.9078,-1.9078,-1.9078,-1.9078,-1.9078,-1.9078,-1.9078,-1.9078,-1.9078,-1.9157,-1.9151,-1.9078,-1.9078,-1.9078,-1.9078,-1.9078,-1.9078,-1.9078,-1.9078,-1.9078,-1.9078,-1.9078,-1.9078,-1.9078,-1.9078,-1.9078,-1.9078,-1.9078,-1.9078,-1.9078,-1.9078,-1.9078,-1.9078,-1.9078,-1.9078,-1.9078,-1.9078,-1.9078,-1.9078,-1.9078,-1.9078,-1.9078,-1.9078,-1.9078,-1.9142,-1.92,-1.92,-1.9142,-1.9334,-1.952,-1.9711,-2.0043,-2.0297,-2.0545,-2.0799,-2.0799,-2.0799,-2.0799,-2.0919,-2.0926,-2.0799,-2.0982,-2.1046,-2.0982,-2.1046,-2.0982,-2.0799,-2.0609,-2.0545,-2.0799,-2.0545,-2.0418,-2.0418,-2.0702,-2.079,-2.074,-2.1146,-2.1424,-1.0657,-1.1746,-1.307,-1.3968,-1.4906,-1.6048,-1.7511,-1.8013,-1.8423,-1.8985,-1.8971,-1.879,-1.8658,-1.8565,-1.8547,-1.8595,-1.8873,-1.9078,-1.9078,-1.9078,-1.9078,-1.9078,-1.9078,-1.9078,-1.9078,-1.9078,-1.9078,-1.9078,-1.9078,-1.9078,-1.9078,-1.9078,-1.9078,-1.9078,-1.9078,-1.9078,-1.9078,-1.9078,-1.9078,-1.9078,-1.9078,-1.9078,-1.9078,-1.9078,-1.9078,-1.9078,-1.9078,-1.9078,-1.9078,-1.9078,-1.9078,-1.9078,-1.9078,-1.9078,-1.9078,-1.9078,-1.9078,-1.9078,-1.9078,-1.9078,-1.9078,-1.9078,-1.9078,-1.9078,-1.9078,-1.9078,-1.9078,-1.9078,-1.9078,-1.9078,-1.9078,-1.9078,-1.9078,-1.9078,-1.9078,-1.9078,-1.9078,-1.9078,-1.9136,-1.9264,-1.92,-1.92,-1.9462,-1.952,-1.9711,-2.0043,-2.0361,-2.0736,-2.1046,-2.1109,-2.1109,-2.1109,-2.1109,-2.1109,-2.1109,-2.1109,-2.1109,-2.1109,-2.1109,-2.1109,-2.1109,-2.0926,-2.0919,-2.1109,-2.0919,-2.0799,-2.0799,-2.097,-2.1065,-2.1132,-2.1432,-2.1729,-1.21,-1.2904,-1.3743,-1.4835,-1.5596,-1.6453,-1.7919,-1.8463,-1.8728,-1.9018,-1.8698,-1.8511,-1.8988,-1.8686,-1.8523,-1.9,-1.9078,-1.9078,-1.9078,-1.9078,-1.9078,-1.9078,-1.9078,-1.9078,-1.9078,-1.9078,-1.9078,-1.9078,-1.9078,-1.9078,-1.9078,-1.9078,-1.9078,-1.9078,-1.9078,-1.9078,-1.9078,-1.9078,-1.9078,-1.9078,-1.9078,-1.9078,-1.9078,-1.9078,-1.9078,-1.9078,-1.9078,-1.9078,-1.9078,-1.9078,-1.9078,-1.9078,-1.9078,-1.9078,-1.9078,-1.9078,-1.9078,-1.9078,-1.9078,-1.9078,-1.9078,-1.9078,-1.9078,-1.9078,-1.9078,-1.9078,-1.9078,-1.9078,-1.9078,-1.9078,-1.9078,-1.9078,-1.9078,-1.9078,-1.9078,-1.9078,-1.9078,-1.9078,-1.92,-1.9514,-1.9328,-1.927,-1.9915,-1.9775,-1.9711,-2.0043,-2.0361,-2.0736,-2.1046,-2.1109,-2.1109,-2.1109,-2.1109,-2.1109,-2.1109,-2.1109,-2.1109,-2.1109,-2.1109,-2.1109,-2.1109,-2.1109,-2.1109,-2.1109,-2.1109,-2.1109,-2.1109,-2.1109,-2.1204,-2.1417,-2.1839,-2.2084,-1.132,-1.2399,-1.374,-1.4985,-1.6393,-1.7539,-1.7883,-1.8179,-1.8511,-1.8976,-1.8982,-1.8939,-1.9054,-1.8982,-1.8945,-1.9054,-1.9078,-1.9078,-1.9078,-1.9078,-1.9078,-1.9078,-1.9078,-1.9078,-1.9078,-1.9078,-1.9078,-1.9078,-1.9078,-1.9078,-1.9078,-1.9078,-1.9078,-1.9078,-1.9078,-1.9078,-1.9078,-1.9078,-1.9078,-1.9078,-1.9078,-1.9078,-1.9078,-1.9078,-1.9078,-1.9078,-1.9078,-1.9078,-1.9078,-1.9078,-1.9078,-1.9078,-1.9078,-1.9078,-1.9078,-1.9078,-1.9078,-1.9078,-1.9078,-1.9078,-1.9078,-1.9078,-1.9078,-1.9078,-1.9078,-1.9078,-1.9078,-1.9078,-1.9078,-1.9078,-1.9078,-1.9078,-1.9078,-1.9078,-1.9078,-1.9078,-1.9078,-1.9078,-1.9136,-1.92,-1.9136,-1.9142,-1.927,-1.927,-1.9398,-1.9979,-2.0361,-2.0736,-2.1046,-2.1109,-2.1109,-2.1109,-2.1109,-2.1109,-2.1109,-2.1109,-2.1109,-2.1109,-2.1109,-2.1109,-2.1109,-2.1109,-2.1109,-2.1109,-2.1109,-2.1109,-2.1109,-2.1109,-2.1232,-2.1585,-2.1877,-2.2111,-1.1552,-1.2581,-1.3804,-1.5393,-1.6703,-1.7563,-1.7817,-1.7986,-1.8209,-1.8613,-1.8801,-1.8891,-1.8891,-1.8988,-1.9078,-1.9078,-1.9078,-1.9078,-1.9078,-1.9078,-1.9078,-1.9078,-1.9078,-1.9078,-1.9078,-1.9078,-1.9078,-1.9078,-1.9078,-1.9078,-1.9078,-1.9078,-1.9078,-1.9078,-1.9078,-1.9078,-1.9078,-1.9078,-1.9078,-1.9078,-1.9078,-1.9078,-1.9078,-1.9078,-1.9078,-1.9078,-1.9078,-1.9078,-1.9078,-1.9078,-1.9078,-1.9078,-1.9078,-1.9078,-1.9078,-1.9078,-1.9078,-1.9078,-1.9078,-1.9078,-1.9078,-1.9078,-1.9078,-1.9078,-1.9078,-1.9078,-1.9078,-1.9078,-1.9078,-1.9078,-1.9078,-1.9078,-1.9078,-1.9078,-1.9078,-1.9078,-1.9078,-1.9078,-1.9078,-1.9078,-1.9078,-1.9078,-1.9078,-1.9078,-1.9334,-1.9979,-2.0234,-2.0482,-2.0792,-2.0982,-2.1109,-2.1109,-2.1109,-2.1109,-2.1109,-2.1109,-2.1109,-2.1109,-2.1109,-2.1109,-2.1109,-2.1109,-2.1109,-2.1109,-2.1109,-2.1109,-2.1109,-2.1109,-2.1263,-2.1628,-2.185,-2.2138,-1.1682,-1.275,-1.386,-1.5757,-1.6585,-1.7086,-1.7618,-1.7738,-1.7817,-1.8094,-1.8402,-1.8613,-1.8613,-1.8794,-1.8939,-1.8939,-1.8939,-1.8957,-1.9,-1.9006,-1.9024,-1.9066,-1.9078,-1.9078,-1.9078,-1.9078,-1.9078,-1.9078,-1.9078,-1.9078,-1.9078,-1.9078,-1.9078,-1.9078,-1.9078,-1.9078,-1.9078,-1.9078,-1.9078,-1.9078,-1.9078,-1.9078,-1.9078,-1.9078,-1.9078,-1.9078,-1.9078,-1.9078,-1.9078,-1.9078,-1.9078,-1.9078,-1.9078,-1.9078,-1.9078,-1.9078,-1.9078,-1.9078,-1.9078,-1.9078,-1.9078,-1.9078,-1.9078,-1.9078,-1.9078,-1.9078,-1.9078,-1.9078,-1.9078,-1.9136,-1.92,-1.9206,-1.92,-1.927,-1.927,-1.927,-1.92,-1.9206,-1.92,-1.927,-1.927,-1.927,-1.927,-1.927,-1.9462,-2.0106,-2.017,-2.0297,-2.0672,-2.0919,-2.1109,-2.1109,-2.1109,-2.1109,-2.1109,-2.1109,-2.1109,-2.1109,-2.1109,-2.1109,-2.1109,-2.1109,-2.1109,-2.1109,-2.1109,-2.1109,-2.1109,-2.1109,-2.1236,-2.1547,-2.1777,-2.2064,-1.0128,-1.1891,-1.3863,-1.5523,-1.6169,-1.6531,-1.7074,-1.7195,-1.7267,-1.7539,-1.7992,-1.8348,-1.8348,-1.8372,-1.8396,-1.8396,-1.8396,-1.8475,-1.8704,-1.8734,-1.8819,-1.9048,-1.9078,-1.9078,-1.9078,-1.9078,-1.9078,-1.9078,-1.9078,-1.9078,-1.9078,-1.9078,-1.9078,-1.9078,-1.9078,-1.9078,-1.9078,-1.9078,-1.9078,-1.9078,-1.9078,-1.9078,-1.9078,-1.9078,-1.9078,-1.9078,-1.9078,-1.9078,-1.9078,-1.9078,-1.9078,-1.9078,-1.9078,-1.9078,-1.9078,-1.9078,-1.9078,-1.9078,-1.9078,-1.9078,-1.9078,-1.9078,-1.9078,-1.9078,-1.9078,-1.9078,-1.9078,-1.9078,-1.9078,-1.92,-1.945,-1.9514,-1.9577,-1.9909,-1.9979,-1.9915,-1.9577,-1.9514,-1.9647,-1.9909,-1.9979,-1.9979,-1.9979,-1.9979,-2.0106,-2.0482,-2.0545,-2.0672,-2.0982,-2.1046,-2.1109,-2.1109,-2.1109,-2.1109,-2.1109,-2.1109,-2.1109,-2.1109,-2.1109,-2.1109,-2.1109,-2.1109,-2.1109,-2.1109,-2.1109,-2.1109,-2.1109,-2.1109,-2.1129,-2.1176,-2.1476,-2.1829,-1.0503,-1.2002,-1.3543,-1.5052,-1.5759,-1.6169,-1.6561,-1.6767,-1.6948,-1.7207,-1.7455,-1.7708,-1.8004,-1.8185,-1.8294,-1.8294,-1.8294,-1.833,-1.845,-1.8469,-1.8511,-1.8625,-1.8764,-1.8855,-1.8855,-1.8988,-1.9078,-1.9078,-1.9078,-1.9078,-1.9078,-1.9078,-1.9078,-1.9078,-1.9078,-1.9078,-1.9078,-1.9078,-1.9078,-1.9078,-1.9078,-1.9078,-1.9078,-1.9078,-1.9078,-1.9078,-1.9078,-1.9078,-1.9078,-1.9078,-1.9078,-1.9078,-1.9078,-1.9078,-1.9078,-1.9078,-1.9078,-1.9078,-1.9078,-1.9078,-1.9078,-1.9078,-1.9078,-1.9078,-1.9078,-1.9078,-1.9078,-1.9078,-1.9264,-1.9386,-1.9577,-1.9711,-1.9909,-2.0043,-2.0234,-2.0354,-2.0157,-2.003,-1.9909,-2.0043,-2.0106,-2.017,-2.0361,-2.0234,-2.0234,-2.0545,-2.0609,-2.0672,-2.0799,-2.0982,-2.1109,-2.1109,-2.1109,-2.1109,-2.1109,-2.1109,-2.1109,-2.1109,-2.1109,-2.1109,-2.1109,-2.1109,-2.1109,-2.1109,-2.1109,-2.1109,-2.1109,-2.1109,-2.1109,-2.1116,-2.1416,-2.1688,-1.0554,-1.1558,-1.2413,-1.4063,-1.4896,-1.5409,-1.5897,-1.626,-1.6573,-1.6839,-1.6948,-1.7111,-1.7503,-1.7853,-1.8088,-1.8088,-1.8088,-1.8112,-1.8179,-1.8185,-1.8215,-1.8281,-1.8469,-1.8589,-1.8589,-1.8819,-1.8976,-1.8976,-1.9036,-1.9078,-1.9078,-1.9078,-1.9078,-1.9078,-1.9078,-1.9078,-1.9078,-1.9078,-1.9078,-1.9078,-1.9078,-1.9078,-1.9078,-1.9078,-1.9078,-1.9078,-1.9078,-1.9078,-1.9078,-1.9078,-1.9078,-1.9078,-1.9078,-1.9078,-1.9078,-1.9078,-1.9078,-1.9078,-1.9078,-1.9078,-1.9078,-1.9078,-1.9078,-1.9078,-1.9078,-1.9078,-1.9136,-1.92,-1.9392,-1.9641,-1.9833,-2.0036,-2.0234,-2.0361,-2.0545,-2.0672,-2.0609,-2.0482,-2.0361,-2.0234,-2.0297,-2.0418,-2.0672,-2.0545,-2.0418,-2.0672,-2.0736,-2.0736,-2.0736,-2.0919,-2.1109,-2.1109,-2.1109,-2.1109,-2.1109,-2.1109,-2.1109,-2.1109,-2.1109,-2.1109,-2.1109,-2.1109,-2.1109,-2.1109,-2.1109,-2.1109,-2.1109,-2.1109,-2.1109,-2.1116,-2.1336,-2.1541,-0.9223,-0.9628,-1.0178,-1.2306,-1.3236,-1.3906,-1.4938,-1.5565,-1.6012,-1.6296,-1.6549,-1.673,-1.6754,-1.7177,-1.7527,-1.7527,-1.7527,-1.7612,-1.7859,-1.7895,-1.7992,-1.8263,-1.8306,-1.8312,-1.8312,-1.8553,-1.8704,-1.8704,-1.8933,-1.9078,-1.9078,-1.9078,-1.9078,-1.9078,-1.9078,-1.9078,-1.9078,-1.9078,-1.9078,-1.9078,-1.9078,-1.9078,-1.9078,-1.9078,-1.9078,-1.9078,-1.9078,-1.9078,-1.9078,-1.9078,-1.9078,-1.9078,-1.9078,-1.9078,-1.9078,-1.9078,-1.9078,-1.9078,-1.9078,-1.9078,-1.9078,-1.9078,-1.9078,-1.9078,-1.9078,-1.9078,-1.92,-1.945,-1.9577,-1.9769,-2.0354,-2.0545,-2.0672,-2.0982,-2.1046,-2.0982,-2.0672,-2.0862,-2.0919,-2.0609,-2.0862,-2.1046,-2.1046,-2.1046,-2.1046,-2.1046,-2.1046,-2.1046,-2.1046,-2.1109,-2.1109,-2.1109,-2.1109,-2.1109,-2.1109,-2.1109,-2.1109,-2.1109,-2.1109,-2.1109,-2.1109,-2.1109,-2.1109,-2.1109,-2.1109,-2.1109,-2.1109,-2.1109,-2.1109,-2.1109,-2.1122,-2.1283,-0.8944,-0.9513,-1.0151,-1.1487,-1.2529,-1.3318,-1.3749,-1.4642,-1.5511,-1.5952,-1.6115,-1.6284,-1.6634,-1.699,-1.7231,-1.7231,-1.737,-1.7515,-1.7612,-1.7624,-1.766,-1.7762,-1.7919,-1.8022,-1.8022,-1.8269,-1.8432,-1.8432,-1.8523,-1.865,-1.8813,-1.8825,-1.8903,-1.9066,-1.9078,-1.9078,-1.9078,-1.9078,-1.9078,-1.9078,-1.9078,-1.9078,-1.9078,-1.9078,-1.9078,-1.9078,-1.9078,-1.9078,-1.9078,-1.9078,-1.9078,-1.9078,-1.9078,-1.9078,-1.9078,-1.9078,-1.9078,-1.9078,-1.9078,-1.9078,-1.9078,-1.9078,-1.9078,-1.9136,-1.9392,-1.945,-1.9514,-1.9845,-2.0094,-2.0284,-2.0545,-2.0736,-2.0919,-2.1046,-2.1109,-2.1046,-2.0919,-2.1046,-2.1046,-2.0919,-2.1046,-2.1109,-2.1109,-2.1109,-2.1109,-2.1109,-2.1109,-2.1109,-2.1109,-2.1109,-2.1109,-2.1109,-2.1109,-2.1109,-2.1109,-2.1109,-2.1109,-2.1109,-2.1109,-2.1109,-2.1109,-2.1109,-2.1109,-2.1109,-2.1109,-2.1109,-2.1109,-2.1109,-2.1109,-2.1109,-2.1109,-2.1162,-0.8312,-0.8946,-0.9668,-1.0802,-1.1605,-1.2305,-1.3073,-1.387,-1.4618,-1.5228,-1.5499,-1.5765,-1.6211,-1.6513,-1.6748,-1.693,-1.7111,-1.7249,-1.734,-1.7352,-1.7382,-1.7473,-1.7636,-1.7744,-1.7744,-1.7992,-1.8155,-1.8155,-1.8239,-1.8366,-1.8547,-1.8553,-1.8674,-1.8933,-1.903,-1.9078,-1.9078,-1.9078,-1.9078,-1.9078,-1.9078,-1.9078,-1.9078,-1.9078,-1.9078,-1.9078,-1.9078,-1.9078,-1.9078,-1.9078,-1.9078,-1.9078,-1.9078,-1.9078,-1.9078,-1.9078,-1.9078,-1.9078,-1.9078,-1.9078,-1.9136,-1.92,-1.9264,-1.9328,-1.9647,-1.9775,-1.9839,-2.0164,-2.0418,-2.0609,-2.0729,-2.0919,-2.1109,-2.1109,-2.1109,-2.1109,-2.1109,-2.1109,-2.1109,-2.1109,-2.1109,-2.1109,-2.1109,-2.1109,-2.1109,-2.1109,-2.1109,-2.1109,-2.1109,-2.1109,-2.1109,-2.1109,-2.1109,-2.1109,-2.1109,-2.1109,-2.1109,-2.1109,-2.1109,-2.1109,-2.1109,-2.1109,-2.1109,-2.1109,-2.1109,-2.1109,-2.1109,-2.1109,-2.1109,-2.1109,-2.1109,-2.1109,0.0,0.0,0.0,-1.0222,-1.0341,-1.0673,-1.2874,-1.323,-1.3296,-1.4111,-1.4684,-1.5143,-1.5433,-1.5692,-1.6042,-1.6579,-1.6682,-1.6791,-1.7044,-1.708,-1.7171,-1.743,-1.7467,-1.7473,-1.7473,-1.7708,-1.7859,-1.7859,-1.8118,-1.8275,-1.8281,-1.8294,-1.8414,-1.8674,-1.8933,-1.9066,-1.9078,-1.9078,-1.9078,-1.9078,-1.9078,-1.9078,-1.9078,-1.9078,-1.9078,-1.9078,-1.9078,-1.9078,-1.9078,-1.9078,-1.9078,-1.9078,-1.9078,-1.9078,-1.9078,-1.9078,-1.9078,-1.9078,-1.9078,-1.9142,-1.92,-1.9514,-1.9641,-1.9705,-2.0043,-2.0106,-2.017,-2.0545,-2.0609,-2.0672,-2.1046,-2.1109,-2.1109,-2.1109,-2.1109,-2.1109,-2.1109,-2.1109,-2.1109,-2.1109,-2.1109,-2.1109,-2.1109,-2.1109,-2.1109,-2.1109,-2.1109,-2.1109,-2.1109,-2.1109,-2.1109,-2.1109,-2.1109,-2.1109,-2.1109,-2.1109,-2.1109,-2.1109,-2.1109,-2.1109,-2.1109,-2.1109,-2.1109,-2.1109,-2.1109,-2.1109,-2.1109,-2.1109,-2.1109,-2.1109,-2.1109,-2.1109,-0.7685,0.0,0.0,0.0,0.0,0.0,-1.0695,-1.1273,-1.2059,-1.3447,-1.3701,-1.399,-1.5028,-1.5276,-1.5439,-1.5777,-1.632,-1.6724,-1.6797,-1.6809,-1.6833,-1.6911,-1.7086,-1.7201,-1.7201,-1.7436,-1.7587,-1.7587,-1.7666,-1.7793,-1.798,-1.8185,-1.8414,-1.8674,-1.8758,-1.8885,-1.9072,-1.9078,-1.9078,-1.9078,-1.9078,-1.9078,-1.9078,-1.9078,-1.9078,-1.9078,-1.9078,-1.9078,-1.9078,-1.9078,-1.9078,-1.9078,-1.9078,-1.9078,-1.9078,-1.9078,-1.9078,-1.9078,-1.9078,-1.9264,-1.945,-1.9577,-1.9775,-2.0036,-2.0354,-2.0488,-2.0545,-2.0856,-2.0982,-2.0982,-2.1109,-2.1109,-2.1109,-2.1109,-2.1109,-2.1109,-2.1109,-2.1109,-2.1109,-2.1109,-2.1109,-2.1109,-2.1109,-2.1109,-2.1109,-2.1109,-2.1109,-2.1109,-2.1109,-2.1109,-2.1109,-2.1109,-2.1109,-2.1109,-2.1109,-2.1109,-2.1109,-2.1109,-2.1109,-2.1109,-2.1109,-2.1109,-2.1109,-2.1109,-2.1109,-2.1109,-2.1109,-2.1109,-2.1109,-2.1109,-2.1109,-2.1109,-0.826,-0.8555,-0.8986,-0.9187,0.0,0.0,-1.0352,-1.0575,-1.1008,-1.25,-1.2813,-1.3127,-1.4238,-1.4533,-1.4733,-1.5113,-1.5656,-1.6151,-1.6483,-1.6525,-1.6567,-1.6688,-1.6833,-1.693,-1.693,-1.7165,-1.7322,-1.7322,-1.7418,-1.7545,-1.7702,-1.7968,-1.8185,-1.8342,-1.8565,-1.8758,-1.8909,-1.9018,-1.9078,-1.9078,-1.9078,-1.9078,-1.9078,-1.9078,-1.9078,-1.9078,-1.9078,-1.9078,-1.9078,-1.9078,-1.9078,-1.9078,-1.9078,-1.9206,-1.9264,-1.9136,-1.92,-1.9328,-1.9328,-1.9456,-1.9641,-1.9896,-2.0164,-2.0354,-2.0736,-2.0799,-2.0856,-2.1046,-2.1109,-2.1109,-2.1109,-2.1109,-2.1109,-2.1109,-2.1109,-2.1109,-2.1109,-2.1109,-2.1109,-2.1109,-2.1109,-2.1109,-2.1109,-2.1109,-2.1109,-2.1109,-2.1109,-2.1109,-2.1109,-2.1109,-2.1109,-2.1109,-2.1109,-2.1109,-2.1109,-2.1109,-2.1109,-2.1109,-2.1109,-2.1109,-2.1109,-2.1109,-2.1109,-2.1109,-2.1109,-2.1109,-2.1109,-2.1109,-2.1109,-2.1109,-2.1109,-2.1109,-0.8963,-0.923,0.0,-1.0387,-0.9888,0.0,-1.0882,-1.0497,-1.0202,-1.1411,-1.1826,-1.2258,-1.3097,-1.3489,-1.3845,-1.4328,-1.4727,-1.5246,-1.6036,-1.6151,-1.6254,-1.6537,-1.6592,-1.6622,-1.6652,-1.6893,-1.705,-1.705,-1.7292,-1.7455,-1.7485,-1.7702,-1.7847,-1.7871,-1.8342,-1.8607,-1.8644,-1.8897,-1.9036,-1.9036,-1.906,-1.9078,-1.9078,-1.9078,-1.9078,-1.9078,-1.9078,-1.9078,-1.9078,-1.9078,-1.9078,-1.9078,-1.9136,-1.9322,-1.9577,-1.9328,-1.9392,-1.9641,-1.9641,-1.9705,-1.9833,-2.0418,-2.0609,-2.0736,-2.0982,-2.1109,-2.1109,-2.1109,-2.1109,-2.1109,-2.1109,-2.1109,-2.1109,-2.1109,-2.1109,-2.1109,-2.1109,-2.1109,-2.1109,-2.1109,-2.1109,-2.1109,-2.1109,-2.1109,-2.1109,-2.1109,-2.1109,-2.1109,-2.1109,-2.1109,-2.1109,-2.1109,-2.1109,-2.1109,-2.1109,-2.1109,-2.1109,-2.1109,-2.1109,-2.1109,-2.1109,-2.1109,-2.1109,-2.1109,-2.1109,-2.1109,-2.1109,-2.1109,-2.1109,-2.1109,-2.1109,-2.1109,-1.0112,-1.0363,-1.061,-0.9901,-1.0218,0.0,-0.9462,-0.9426,-0.9721,-1.0196,-1.0166,-1.0358,-1.1395,-1.198,-1.2301,-1.2451,-1.3411,-1.4419,-1.5228,-1.5336,-1.5439,-1.5698,-1.5916,-1.6133,-1.6344,-1.6616,-1.6779,-1.6779,-1.702,-1.7261,-1.7473,-1.7533,-1.7654,-1.7865,-1.798,-1.8137,-1.8366,-1.8632,-1.8758,-1.8764,-1.8976,-1.9078,-1.9078,-1.9078,-1.9078,-1.9078,-1.9078,-1.9078,-1.9078,-1.9078,-1.9078,-1.9142,-1.9386,-1.9514,-1.9641,-1.9845,-1.9979,-1.9979,-1.9979,-2.0164,-2.0418,-2.0545,-2.0799,-2.0982,-2.1109,-2.1109,-2.1109,-2.1109,-2.1109,-2.1109,-2.1109,-2.1109,-2.1109,-2.1109,-2.1109,-2.1109,-2.1109,-2.1109,-2.1109,-2.1109,-2.1109,-2.1109,-2.1109,-2.1109,-2.1109,-2.1109,-2.1109,-2.1109,-2.1109,-2.1109,-2.1109,-2.1109,-2.1109,-2.1109,-2.1109,-2.1109,-2.1109,-2.1109,-2.1109,-2.1109,-2.1109,-2.1109,-2.1109,-2.1109,-2.1109,-2.1109,-2.1109,-2.1109,-2.1109,-2.1109,-2.1109,-2.1109,-1.1032,-1.108,-1.1188,-1.0791,0.0,0.0,0.0,-0.9697,-0.9739,-1.0533,-1.0069,-0.9877,-1.1062,-1.1431,-1.1525,-1.1663,-1.2692,-1.3562,-1.3694,-1.4521,-1.5155,-1.5288,-1.5421,-1.5553,-1.5686,-1.606,-1.641,-1.6682,-1.6821,-1.7008,-1.7274,-1.7286,-1.7406,-1.7672,-1.7805,-1.7943,-1.8082,-1.8354,-1.8553,-1.8686,-1.8819,-1.8945,-1.9078,-1.9078,-1.9078,-1.9078,-1.9078,-1.92,-1.9328,-1.9328,-1.9456,-1.959,-1.9577,-1.9769,-2.0094,-2.0106,-2.0234,-2.0361,-2.0361,-2.0488,-2.0609,-2.0799,-2.0982,-2.1109,-2.1109,-2.1109,-2.1109,-2.1109,-2.1109,-2.1109,-2.1109,-2.1109,-2.1109,-2.1109,-2.1109,-2.1109,-2.1109,-2.1109,-2.1109,-2.1109,-2.1109,-2.1109,-2.1109,-2.1109,-2.1109,-2.1109,-2.1109,-2.1109,-2.1109,-2.1109,-2.1109,-2.1109,-2.1109,-2.1109,-2.1109,-2.1109,-2.1109,-2.1109,-2.1109,-2.1109,-2.1109,-2.1109,-2.1109,-2.1109,-2.1109,-2.1109,-2.1109,-2.1109,-2.1109,-2.1109,-2.1109,-2.1109,0.0,0.0,-1.2,0.0,0.0,-1.1256,0.0,0.0,0.0,-1.093,-1.0262,-0.9841,-1.0918,-1.093,-1.0864,-1.1002,-1.1964,-1.253,-1.1938,-1.3381,-1.4533,-1.4636,-1.4823,-1.495,-1.495,-1.524,-1.5722,-1.6416,-1.6326,-1.6441,-1.6911,-1.7032,-1.7189,-1.74,-1.766,-1.7799,-1.7799,-1.8076,-1.8318,-1.8529,-1.8583,-1.8746,-1.9,-1.9,-1.9094,-1.92,-1.92,-1.9392,-1.9711,-1.9711,-1.9903,-2.017,-1.9903,-2.0094,-2.0609,-2.0354,-2.0482,-2.0672,-2.0672,-2.0672,-2.0729,-2.0982,-2.1109,-2.1109,-2.1109,-2.1109,-2.1109,-2.1109,-2.1109,-2.1109,-2.1109,-2.1109,-2.1109,-2.1109,-2.1109,-2.1109,-2.1109,-2.1109,-2.1109,-2.1109,-2.1109,-2.1109,-2.1109,-2.1109,-2.1109,-2.1109,-2.1109,-2.1109,-2.1109,-2.1109,-2.1109,-2.1109,-2.1109,-2.1109,-2.1109,-2.1109,-2.1109,-2.1109,-2.1109,-2.1109,-2.1109,-2.1109,-2.1109,-2.1109,-2.1109,-2.1109,-2.1109,-2.1109,-2.1109,-2.1109,-2.1109,-2.1109,0.0,0.0,0.0,0.0,-1.2741,0.0,0.0,0.0,-1.0695,-0.9907,0.0,-0.9558,-0.9715,0.0,0.0,-0.9402,-1.0454,-1.1075,-1.028,-1.1369,-1.2457,-1.2922,-1.3809,-1.4389,-1.4389,-1.402,-1.4298,-1.5541,-1.4974,-1.5095,-1.6308,-1.6827,-1.7105,-1.7135,-1.7394,-1.7527,-1.7527,-1.7787,-1.7937,-1.7968,-1.8221,-1.8475,-1.8728,-1.8728,-1.9045,-1.9514,-1.9514,-1.9711,-2.0043,-2.0043,-2.0234,-2.0545,-2.0482,-2.0545,-2.0609,-2.0919,-2.0982,-2.1046,-2.1046,-2.1046,-2.1046,-2.1109,-2.1109,-2.1109,-2.1109,-2.1109,-2.1109,-2.1109,-2.1109,-2.1109,-2.1109,-2.1109,-2.1109,-2.1109,-2.1109,-2.1109,-2.1109,-2.1109,-2.1109,-2.1109,-2.1109,-2.1109,-2.1109,-2.1109,-2.1109,-2.1109,-2.1109,-2.1109,-2.1109,-2.1109,-2.1109,-2.1109,-2.1109,-2.1109,-2.1109,-2.1109,-2.1109,-2.1109,-2.1109,-2.1109,-2.1109,-2.1109,-2.1109,-2.1109,-2.1109,-2.1109,-2.1109,-2.1109,-2.1109,-2.1109,-2.1109,-2.1109,0.0,0.0,0.0,0.0,0.0,0.0,-1.1182,0.0,-1.0863,0.0,0.0,0.0,0.0,0.0,0.0,0.0,-0.9937,-1.0172,-0.9528,-1.0316,-1.1212,-1.1904,-1.2421,-1.2934,-1.3556,-1.3417,-1.3707,-1.4727,-1.4208,-1.4425,-1.5759,-1.6187,-1.661,-1.7074,-1.7201,-1.7328,-1.7485,-1.7587,-1.7726,-1.7871,-1.7992,-1.8313,-1.8698,-1.8919,-1.9243,-1.9682,-1.984,-2.01,-2.0418,-2.0418,-2.0609,-2.0919,-2.0919,-2.0919,-2.0926,-2.1046,-2.1109,-2.1109,-2.1109,-2.1109,-2.1109,-2.1109,-2.1109,-2.1109,-2.1109,-2.1109,-2.1109,-2.1109,-2.1109,-2.1109,-2.1109,-2.1109,-2.1109,-2.1109,-2.1109,-2.1109,-2.1109,-2.1109,-2.1109,-2.1109,-2.1109,-2.1109,-2.1109,-2.1109,-2.1109,-2.1109,-2.1109,-2.1109,-2.1109,-2.1109,-2.1109,-2.1109,-2.1109,-2.1109,-2.1109,-2.1109,-2.1109,-2.1109,-2.1109,-2.1109,-2.1109,-2.1109,-2.1109,-2.1109,-2.1109,-2.1109,-2.1109,-2.1109,-2.1109,-2.1109,-2.1109,-2.1109,-1.3803,0.0,0.0,0.0,0.0,0.0,0.0,0.0,0.0,0.0,0.0,0.0,0.0,0.0,0.0,0.0,0.0,-0.9666,-0.8981,-0.9444,-1.013,-1.0863,-1.1206,-1.1742,-1.2662,-1.2463,-1.2741,-1.3779,-1.3242,-1.3583,-1.5089,-1.5559,-1.6115,-1.6845,-1.7014,-1.7277,-1.7661,-1.7543,-1.7699,-1.8066,-1.7947,-1.8208,-1.8721,-1.8981,-1.9348,-1.9831,-2.0029,-2.0353,-2.0736,-2.0736,-2.0862,-2.1109,-2.1109,-2.1109,-2.1109,-2.1109,-2.1109,-2.1109,-2.1109,-2.1109,-2.1109,-2.1109,-2.1109,-2.1109,-2.1109,-2.1109,-2.1109,-2.1109,-2.1109,-2.1109,-2.1109,-2.1109,-2.1109,-2.1109,-2.1109,-2.1109,-2.1109,-2.1109,-2.1109,-2.1109,-2.1109,-2.1109,-2.1109,-2.1109,-2.1109,-2.1109,-2.1109,-2.1109,-2.1109,-2.1109,-2.1109,-2.1109,-2.1109,-2.1109,-2.1109,-2.1109,-2.1109,-2.1109,-2.1109,-2.1109,-2.1109,-2.1109,-2.1109,-2.1109,-2.1109,-2.1109,-2.1109,-2.1109,-2.1109,-2.1109,-2.1109,-2.1109,0.0,0.0,0.0,-1.2783,0.0,0.0,0.0,0.0,-1.1399,0.0,0.0,0.0,0.0,0.0,0.0,0.0,0.0,0.0,0.0,-0.8584,-0.8963,-0.951,-1.0472,-1.1347,-1.1868,-1.0864,-1.0894,-1.2614,-1.1872,-1.2241,-1.422,-1.5083,-1.5759,-1.629,-1.6815,-1.7399,-1.7966,-1.7667,-1.7784,-1.8376,-1.8096,-1.8292,-1.8788,-1.8794,-1.9287,-2.0185,-2.0198,-2.0542,-2.1109,-2.1109,-2.1109,-2.1109,-2.1109,-2.1109,-2.1109,-2.1109,-2.1109,-2.1109,-2.1109,-2.1109,-2.1109,-2.1109,-2.1109,-2.1109,-2.1109,-2.1109,-2.1109,-2.1109,-2.1109,-2.1109,-2.1109,-2.1109,-2.1109,-2.1109,-2.1109,-2.1109,-2.1109,-2.1109,-2.1109,-2.1109,-2.1109,-2.1109,-2.1109,-2.1109,-2.1109,-2.1109,-2.1109,-2.1109,-2.1109,-2.1109,-2.1109,-2.1109,-2.1109,-2.1109,-2.1109,-2.1109,-2.1109,-2.1109,-2.1109,-2.1109,-2.1109,-2.1109,-2.1109,-2.1109,-2.1109,-2.1109,-2.1109,-2.1109,-2.1109,-2.1109,-2.1109,-2.1109,0.0,0.0,-1.5004,-1.3483,0.0,0.0,0.0,0.0,0.0,0.0,0.0,0.0,0.0,0.0,0.0,0.0,0.0,0.0,0.0,-0.8363,-0.8489,-0.8669,-0.9943,-1.0638,-1.0328,-1.0392,-1.0856,-1.1842,-1.1782,-1.2447,-1.4229,-1.5041,-1.5734,-1.6281,-1.6876,-1.7352,-1.7739,-1.7977,-1.8188,-1.8421,-1.8311,-1.8472,-1.8855,-1.9036,-1.9416,-1.9939,-2.0391,-2.0673,-2.0842,-2.1029,-2.1109,-2.1109,-2.1109,-2.1109,-2.1109,-2.1109,-2.1109,-2.1109,-2.1109,-2.1109,-2.1109,-2.1109,-2.1109,-2.1109,-2.1109,-2.1109,-2.1109,-2.1109,-2.1109,-2.1109,-2.1109,-2.1109,-2.1109,-2.1109,-2.1109,-2.1109,-2.1109,-2.1109,-2.1109,-2.1109,-2.1109,-2.1109,-2.1109,-2.1109,-2.1109,-2.1109,-2.1109,-2.1109,-2.1109,-2.1109,-2.1109,-2.1109,-2.1109,-2.1109,-2.1109,-2.1109,-2.1109,-2.1109,-2.1109,-2.1109,-2.1109,-2.1109,-2.1109,-2.1109,-2.1109,-2.1109,-2.1109,-2.1109,-2.1109,-2.1109,-2.1109,-2.1109,-1.5137,-1.53,0.0,-1.3966,-1.3652,0.0,-1.1934,0.0,-1.2047,0.0,0.0,0.0,0.0,0.0,0.0,0.0,0.0,0.0,0.0,-0.8231,-0.8255,-0.8165,-0.9248,-0.9863,-0.939,-0.976,-1.035,-1.116,-1.1446,-1.2305,-1.3946,-1.4762,-1.55,-1.6262,-1.6911,-1.7435,-1.7875,-1.8217,-1.8538,-1.8771,-1.8655,-1.8765,-1.9068,-1.9253,-1.9516,-1.982,-2.0201,-2.0481,-2.0688,-2.0882,-2.1015,-2.1109,-2.1109,-2.1109,-2.1109,-2.1109,-2.1109,-2.1109,-2.1109,-2.1109,-2.1109,-2.1109,-2.1109,-2.1109,-2.1109,-2.1109,-2.1109,-2.1109,-2.1109,-2.1109,-2.1109,-2.1109,-2.1109,-2.1109,-2.1109,-2.1109,-2.1109,-2.1109,-2.1109,-2.1109,-2.1109,-2.1109,-2.1109,-2.1109,-2.1109,-2.1109,-2.1109,-2.1109,-2.1109,-2.1109,-2.1109,-2.1109,-2.1109,-2.1109,-2.1109,-2.1109,-2.1109,-2.1109,-2.1109,-2.1109,-2.1109,-2.1109,-2.1109,-2.1109,-2.1109,-2.1109,-2.1109,-2.1109,-2.1109,-2.1109,-2.1109,-2.1109]},{"header":{"parameterUnit":"m.s-1","parameterCategory":1,"la1":30.6,"la2":29.2853,"lo1":-89.7004,"lo2":-87.6739,"dy":0.0162,"dx":0.0183,"nx":112,"ny":82,"refTime":"2024-08-30T06:00:00:Z","depth":0,"parameterNumber":3,"parameterNumberName":"V-component_of_WINDS"},"data":[0.0,0.0,0.0,0.0,0.0,0.0,0.0,0.0,0.0,0.0,0.0,0.0,0.0,0.0,0.0,0.0,0.0,0.0,0.0,0.0,0.0,0.0,0.0,0.0,0.0,0.0,0.0,0.0,0.0,0.0,0.0,0.0,0.0,0.0,0.0,0.0,0.0,0.0,0.0,0.0,0.0,0.0,0.0,0.0,0.0,0.0,0.0,0.0,0.0,0.0,0.0,0.0,0.0,0.0,0.0,0.0,0.0,0.0,0.0,0.0,0.0,0.0,0.0,0.0,0.0,0.0,0.0,0.0,0.0,0.0,0.0,0.0,0.0,0.0,0.0,0.0,0.0,0.0,0.0,0.0,0.0,0.0,0.0,0.0,0.0,0.0,0.0,0.0,0.0,0.0,3.8086,4.1688,4.6712,4.9782,4.9713,4.9586,4.6264,3.8676,0.0,0.0,0.0,0.0,0.0,0.0,0.0,0.0,0.0,0.0,0.0,0.0,0.0,0.0,0.0,0.0,0.0,0.0,0.0,0.0,0.0,0.0,0.0,0.0,0.0,0.0,0.0,0.0,0.0,0.0,0.0,0.0,0.0,0.0,0.0,0.0,0.0,0.0,0.0,0.0,0.0,0.0,0.0,0.0,0.0,0.0,0.0,0.0,0.0,0.0,0.0,0.0,0.0,0.0,0.0,0.0,0.0,0.0,0.0,0.0,0.0,0.0,0.0,0.0,0.0,0.0,0.0,0.0,0.0,0.0,0.0,0.0,0.0,0.0,0.0,0.0,0.0,0.0,0.0,0.0,0.0,0.0,0.0,0.0,0.0,0.0,0.0,0.0,0.0,0.0,0.0,0.0,0.0,0.0,0.0,0.0,0.0,0.0,0.0,0.0,0.0,0.0,0.0,0.0,3.8822,4.6526,4.8819,4.9798,4.98,4.907,4.5626,3.8638,0.0,0.0,0.0,0.0,0.0,0.0,0.0,0.0,0.0,0.0,0.0,0.0,0.0,0.0,0.0,0.0,0.0,0.0,0.0,0.0,0.0,0.0,0.0,0.0,0.0,0.0,0.0,0.0,0.0,0.0,0.0,0.0,0.0,0.0,0.0,0.0,0.0,0.0,0.0,0.0,0.0,0.0,0.0,0.0,0.0,0.0,0.0,0.0,0.0,0.0,0.0,0.0,0.0,0.0,0.0,0.0,0.0,0.0,0.0,0.0,0.0,0.0,0.0,0.0,0.0,0.0,0.0,0.0,0.0,0.0,0.0,0.0,0.0,0.0,0.0,0.0,0.0,0.0,0.0,0.0,0.0,0.0,0.0,0.0,0.0,0.0,0.0,0.0,0.0,0.0,0.0,0.0,0.0,0.0,0.0,0.0,0.0,0.0,0.0,0.0,0.0,0.0,0.0,3.7098,4.1143,4.7834,4.9375,4.989,4.9858,4.9031,4.5564,3.87,3.6585,0.0,0.0,0.0,0.0,0.0,0.0,0.0,0.0,0.0,0.0,0.0,0.0,0.0,0.0,0.0,0.0,0.0,0.0,0.0,0.0,0.0,0.0,0.0,0.0,0.0,0.0,0.0,0.0,0.0,0.0,0.0,0.0,0.0,0.0,0.0,0.0,0.0,0.0,0.0,0.0,0.0,0.0,0.0,0.0,0.0,0.0,0.0,0.0,0.0,0.0,0.0,0.0,0.0,0.0,0.0,0.0,0.0,0.0,0.0,0.0,0.0,0.0,0.0,0.0,0.0,0.0,0.0,0.0,0.0,0.0,0.0,0.0,0.0,0.0,0.0,0.0,0.0,0.0,0.0,0.0,0.0,0.0,0.0,0.0,0.0,0.0,0.0,0.0,0.0,0.0,0.0,0.0,0.0,0.0,0.0,0.0,0.0,0.0,0.0,0.0,0.0,0.0,4.1176,4.3807,4.7899,4.9147,4.9601,4.9357,4.7953,4.4417,3.8101,3.4749,0.0,0.0,0.0,0.0,0.0,0.0,0.0,0.0,0.0,0.0,0.0,0.0,0.0,0.0,0.0,0.0,0.0,0.0,0.0,0.0,0.0,0.0,0.0,0.0,0.0,0.0,0.0,0.0,0.0,0.0,0.0,0.0,0.0,0.0,0.0,0.0,0.0,0.0,0.0,0.0,0.0,0.0,0.0,0.0,0.0,0.0,0.0,0.0,0.0,0.0,0.0,0.0,0.0,0.0,0.0,0.0,0.0,0.0,0.0,0.0,0.0,0.0,0.0,0.0,0.0,0.0,0.0,0.0,0.0,0.0,0.0,0.0,0.0,0.0,0.0,0.0,0.0,0.0,0.0,0.0,0.0,0.0,0.0,0.0,0.0,0.0,0.0,0.0,0.0,0.0,0.0,0.0,0.0,0.0,0.0,0.0,0.0,0.0,0.0,0.0,0.0,0.0,4.1811,4.6284,4.745,4.8306,4.8482,4.7723,4.4582,4.0737,3.6253,3.1297,0.0,0.0,0.0,0.0,0.0,0.0,0.0,0.0,0.0,0.0,0.0,0.0,0.0,0.0,0.0,0.0,0.0,0.0,0.0,0.0,0.0,0.0,0.0,0.0,0.0,0.0,0.0,0.0,0.0,0.0,0.0,0.0,0.0,0.0,0.0,0.0,0.0,0.0,0.0,0.0,0.0,0.0,0.0,0.0,0.0,0.0,0.0,0.0,0.0,0.0,0.0,0.0,0.0,0.0,0.0,0.0,0.0,0.0,0.0,0.0,0.0,0.0,0.0,0.0,0.0,0.0,0.0,0.0,0.0,0.0,0.0,0.0,0.0,0.0,0.0,0.0,0.0,0.0,0.0,0.0,0.0,0.0,0.0,0.0,0.0,0.0,0.0,0.0,0.0,0.0,0.0,0.0,0.0,0.0,0.0,0.0,0.0,0.0,0.0,0.0,0.0,0.0,4.0085,4.4189,0.0,4.7828,4.7886,4.7593,4.5848,4.2205,3.6238,0.0,0.0,0.0,0.0,0.0,0.0,0.0,0.0,0.0,0.0,0.0,0.0,0.0,0.0,0.0,0.0,0.0,0.0,0.0,0.0,0.0,0.0,0.0,0.0,0.0,0.0,0.0,0.0,0.0,0.0,0.0,0.0,0.0,0.0,0.0,0.0,0.0,0.0,0.0,0.0,0.0,0.0,0.0,0.0,0.0,0.0,0.0,0.0,0.0,0.0,0.0,0.0,0.0,0.0,0.0,0.0,0.0,0.0,0.0,0.0,0.0,0.0,0.0,0.0,0.0,0.0,0.0,0.0,0.0,0.0,0.0,0.0,0.0,0.0,0.0,0.0,0.0,0.0,0.0,0.0,0.0,0.0,0.0,0.0,0.0,0.0,0.0,0.0,0.0,0.0,0.0,0.0,0.0,0.0,0.0,0.0,0.0,0.0,0.0,0.0,0.0,0.0,3.5469,3.9959,4.3884,0.0,4.7187,4.7187,4.7187,4.5391,4.1875,3.6284,0.0,0.0,0.0,0.0,0.0,0.0,0.0,0.0,0.0,0.0,0.0,0.0,0.0,0.0,0.0,0.0,0.0,0.0,0.0,0.0,0.0,0.0,0.0,0.0,0.0,0.0,0.0,0.0,0.0,0.0,0.0,0.0,0.0,0.0,0.0,0.0,0.0,0.0,0.0,0.0,0.0,0.0,0.0,0.0,0.0,0.0,0.0,0.0,0.0,0.0,0.0,0.0,0.0,0.0,0.0,0.0,0.0,0.0,0.0,0.0,0.0,0.0,0.0,0.0,0.0,0.0,0.0,0.0,0.0,0.0,0.0,0.0,0.0,0.0,0.0,0.0,0.0,0.0,0.0,0.0,0.0,0.0,0.0,0.0,0.0,0.0,0.0,0.0,0.0,0.0,0.0,0.0,0.0,0.0,0.0,0.0,0.0,0.0,0.0,0.0,0.0,0.0,3.5781,4.2031,4.6308,4.6308,4.6308,4.6308,4.6308,4.2383,3.8809,0.0,0.0,0.0,0.0,0.0,0.0,0.0,0.0,0.0,0.0,0.0,0.0,0.0,0.0,0.0,0.0,0.0,0.0,0.0,0.0,0.0,0.0,0.0,0.0,0.0,0.0,0.0,0.0,0.0,0.0,0.0,0.0,0.0,0.0,0.0,0.0,0.0,0.0,0.0,0.0,0.0,0.0,0.0,0.0,0.0,0.0,0.0,0.0,0.0,0.0,0.0,0.0,0.0,0.0,0.0,0.0,0.0,0.0,0.0,0.0,0.0,0.0,0.0,0.0,0.0,0.0,0.0,0.0,0.0,0.0,0.0,0.0,0.0,0.0,0.0,0.0,0.0,0.0,0.0,0.0,0.0,0.0,0.0,0.0,0.0,0.0,0.0,0.0,0.0,0.0,0.0,0.0,0.0,0.0,0.0,0.0,0.0,0.0,0.0,0.0,0.0,0.0,0.0,3.5781,4.2031,4.6308,4.6308,4.6308,4.6308,4.6308,4.4004,4.0703,3.6289,0.0,0.0,0.0,0.0,0.0,0.0,0.0,0.0,0.0,0.0,0.0,0.0,0.0,0.0,0.0,0.0,0.0,0.0,0.0,0.0,0.0,0.0,0.0,0.0,0.0,0.0,0.0,0.0,0.0,0.0,0.0,0.0,0.0,0.0,0.0,0.0,0.0,0.0,0.0,0.0,0.0,0.0,0.0,0.0,0.0,0.0,0.0,0.0,0.0,0.0,0.0,0.0,0.0,0.0,0.0,0.0,0.0,0.0,0.0,0.0,0.0,0.0,0.0,0.0,0.0,0.0,0.0,0.0,0.0,0.0,0.0,0.0,0.0,0.0,0.0,0.0,0.0,0.0,0.0,0.0,0.0,0.0,0.0,0.0,0.0,0.0,0.0,0.0,0.0,0.0,0.0,0.0,0.0,0.0,0.0,0.0,0.0,0.0,0.0,0.0,0.0,0.0,3.5781,4.2031,4.6308,4.6308,4.6308,4.6308,4.6308,4.5019,4.2168,3.7344,0.0,0.0,0.0,0.0,0.0,0.0,0.0,0.0,0.0,0.0,0.0,0.0,0.0,0.0,0.0,0.0,0.0,0.0,0.0,0.0,0.0,0.0,0.0,0.0,0.0,0.0,0.0,0.0,0.0,0.0,0.0,0.0,0.0,0.0,0.0,0.0,0.0,0.0,0.0,0.0,0.0,0.0,0.0,0.0,0.0,0.0,0.0,0.0,0.0,0.0,0.0,0.0,0.0,0.0,0.0,0.0,0.0,0.0,0.0,0.0,0.0,0.0,0.0,0.0,0.0,0.0,0.0,0.0,0.0,0.0,0.0,0.0,0.0,0.0,0.0,0.0,0.0,0.0,0.0,0.0,0.0,0.0,0.0,0.0,0.0,0.0,0.0,0.0,0.0,0.0,0.0,0.0,0.0,0.0,0.0,0.0,0.0,0.0,0.0,0.0,0.0,0.0,3.5898,4.207,4.6308,4.6308,4.6308,4.6308,4.6308,4.5508,4.3242,3.9101,0.0,0.0,0.0,0.0,0.0,0.0,0.0,0.0,0.0,0.0,0.0,0.0,0.0,0.0,0.0,0.0,0.0,0.0,0.0,0.0,0.0,0.0,0.0,0.0,0.0,0.0,0.0,0.0,0.0,0.0,0.0,0.0,0.0,0.0,0.0,0.0,0.0,0.0,0.0,0.0,0.0,0.0,0.0,0.0,0.0,0.0,0.0,0.0,0.0,0.0,0.0,0.0,0.0,0.0,0.0,0.0,0.0,0.0,0.0,0.0,3.3279,3.1266,0.0,0.0,0.0,0.0,0.0,0.0,0.0,0.0,0.0,0.0,0.0,0.0,0.0,0.0,0.0,0.0,0.0,0.0,0.0,0.0,0.0,0.0,0.0,0.0,0.0,0.0,0.0,0.0,0.0,0.0,0.0,0.0,0.0,0.0,0.0,0.0,0.0,0.0,0.0,0.0,3.6719,4.2441,4.6308,4.6308,4.6308,4.6308,4.6308,4.5508,4.375,4.082,3.7207,0.0,0.0,0.0,0.0,0.0,0.0,0.0,0.0,0.0,0.0,0.0,0.0,0.0,0.0,0.0,0.0,0.0,0.0,0.0,0.0,0.0,0.0,0.0,0.0,0.0,0.0,0.0,0.0,0.0,0.0,0.0,0.0,0.0,0.0,0.0,0.0,0.0,0.0,0.0,0.0,0.0,0.0,0.0,0.0,0.0,0.0,0.0,0.0,0.0,0.0,0.0,0.0,0.0,0.0,0.0,0.0,0.0,0.0,0.0,3.8824,3.6747,0.0,0.0,0.0,0.0,0.0,0.0,0.0,0.0,0.0,0.0,0.0,0.0,0.0,0.0,0.0,0.0,0.0,0.0,0.0,0.0,0.0,0.0,0.0,0.0,0.0,0.0,0.0,0.0,0.0,0.0,0.0,0.0,0.0,0.0,0.0,0.0,0.0,0.0,0.0,0.0,3.8164,4.3086,4.6465,4.6875,4.6543,4.6308,4.6308,4.5879,4.4707,4.2539,3.9941,0.0,0.0,0.0,0.0,0.0,0.0,0.0,0.0,0.0,0.0,0.0,0.0,0.0,0.0,0.0,0.0,0.0,0.0,0.0,0.0,0.0,0.0,0.0,0.0,0.0,0.0,0.0,0.0,0.0,0.0,0.0,0.0,0.0,0.0,0.0,0.0,0.0,0.0,0.0,0.0,0.0,0.0,0.0,0.0,0.0,0.0,0.0,0.0,0.0,0.0,0.0,0.0,0.0,4.3848,4.5273,4.7851,4.7285,4.8203,4.9961,4.4805,4.3262,4.4004,3.9297,0.0,0.0,0.0,0.0,0.0,0.0,0.0,0.0,0.0,0.0,0.0,0.0,0.0,0.0,0.0,0.0,0.0,0.0,0.0,0.0,0.0,0.0,4.2363,4.1641,4.3633,4.4316,3.9316,0.0,0.0,0.0,0.0,0.0,0.0,0.0,0.0,0.0,0.0,0.0,4.0098,4.4043,4.6797,4.7519,4.6953,4.6465,4.6308,4.6308,4.5683,4.4238,4.2578,4.0273,0.0,0.0,0.0,0.0,0.0,0.0,0.0,0.0,0.0,0.0,0.0,0.0,0.0,0.0,0.0,0.0,0.0,0.0,0.0,0.0,0.0,0.0,0.0,0.0,0.0,0.0,0.0,0.0,0.0,0.0,0.0,0.0,2.9076,3.0874,0.0,0.0,0.0,0.0,0.0,0.0,0.0,0.0,0.0,0.0,0.0,0.0,0.0,4.2344,4.3965,4.7793,4.9531,4.9219,5.2832,5.4414,5.4141,5.4785,5.5254,5.5508,5.3945,0.0,4.6855,4.3906,0.0,0.0,0.0,0.0,0.0,0.0,0.0,0.0,0.0,0.0,0.0,0.0,0.0,0.0,0.0,0.0,0.0,0.0,0.0,0.0,0.0,0.0,4.7851,4.7734,4.8066,4.8164,4.7363,4.248,3.7637,3.5566,3.3848,3.209,0.0,0.0,0.0,0.0,0.0,0.0,4.2656,4.5664,4.7461,4.7598,4.75,4.7129,4.6367,4.6308,4.6191,4.5976,4.4336,4.2812,4.1601,3.8496,0.0,0.0,0.0,0.0,0.0,0.0,0.0,0.0,0.0,0.0,0.0,0.0,0.0,0.0,0.0,0.0,0.0,0.0,0.0,0.0,0.0,0.0,0.0,0.0,0.0,0.0,0.0,0.0,0.0,2.831,3.2001,3.2744,3.3697,3.3286,0.0,0.0,0.0,0.0,0.0,0.0,0.0,0.0,0.0,4.5537,4.7299,4.9039,5.0774,5.3142,5.4394,5.455,5.6426,5.7383,5.75,5.789,5.8066,5.8047,5.7656,5.5937,5.3066,4.9023,4.6113,4.4023,0.0,0.0,0.0,0.0,4.2441,4.2695,4.5117,4.5625,4.4902,4.2942,0.0,0.0,0.0,0.0,0.0,0.0,0.0,4.3463,4.5397,4.8035,5.0193,5.0237,5.0613,5.0851,5.039,4.7578,4.418,4.0957,3.9707,3.7871,3.375,3.3125,0.0,0.0,0.0,4.1387,4.4726,4.7012,4.832,4.832,4.7891,4.7246,4.6367,4.6308,4.6308,4.6308,4.5586,4.4766,4.3906,4.1484,3.8789,0.0,0.0,0.0,0.0,0.0,0.0,0.0,0.0,0.0,0.0,0.0,0.0,0.0,0.0,0.0,0.0,0.0,0.0,0.0,0.0,0.0,0.0,0.0,0.0,0.0,0.0,0.0,0.0,3.2016,3.4887,3.5317,3.7109,3.7184,0.0,0.0,0.0,0.0,0.0,0.0,4.3282,4.547,4.8224,5.166,5.3249,5.4754,5.6252,5.7142,5.7907,5.8532,5.8768,5.9218,5.9843,5.9843,5.9843,5.9824,5.9609,5.914,5.8183,5.3691,5.0937,4.9414,4.7891,4.6914,4.6543,4.8262,4.8613,4.8669,5.1638,5.2241,5.1296,4.8903,4.7677,4.6418,4.2463,0.0,0.0,0.0,0.0,4.6383,4.8946,5.0711,5.1842,5.1901,5.2403,5.2672,5.1888,5.1247,4.9725,4.6074,4.5,4.3203,3.8476,3.8027,0.0,3.8594,4.1348,4.4336,4.6953,4.8437,4.9238,4.9238,4.8652,4.7812,4.6738,4.6621,4.6543,4.6308,4.6308,4.6016,4.5351,4.3867,4.1953,3.9629,0.0,0.0,0.0,0.0,0.0,0.0,0.0,0.0,0.0,0.0,0.0,0.0,0.0,0.0,0.0,0.0,0.0,0.0,0.0,0.0,0.0,0.0,0.0,0.0,0.0,0.0,0.0,0.0,0.0,4.0524,4.2982,0.0,0.0,0.0,0.0,4.1947,4.5831,4.8642,4.9597,5.2866,5.5194,5.625,5.7154,5.8056,5.8896,5.9775,6.0225,6.0284,6.1104,6.1533,6.1573,6.1573,6.1573,6.1533,6.0694,6.0303,6.007,5.7382,5.5742,5.4824,5.3906,5.3516,5.3398,5.2695,5.2904,5.3422,5.2817,5.2528,5.2543,5.3128,5.1697,4.9659,4.9398,4.8732,0.0,0.0,5.0103,5.2083,5.2258,5.2944,5.3572,5.3576,5.3615,5.3444,5.2708,5.2505,5.195,5.0214,4.8535,4.7031,4.5918,0.0,4.4824,4.5664,4.5976,4.7051,4.9668,5.0078,5.0137,5.0137,5.0098,4.9375,4.7676,4.7539,4.7187,4.6348,4.6308,4.6289,4.623,4.5351,4.4023,4.2246,3.8809,0.0,0.0,0.0,0.0,0.0,0.0,0.0,0.0,0.0,0.0,0.0,0.0,0.0,0.0,0.0,0.0,0.0,0.0,0.0,0.0,0.0,0.0,0.0,0.0,0.0,0.0,0.0,0.0,4.4231,4.6222,0.0,4.4211,4.6027,4.7352,4.7352,5.0731,5.3162,5.404,5.5725,5.7313,5.8744,5.908,5.9635,6.0439,6.0804,6.0988,6.0988,6.1298,6.1439,6.1439,6.1439,6.1439,6.142,6.1108,6.0971,6.0913,5.9989,5.8835,5.758,5.7267,5.7108,5.6983,5.6671,5.6749,5.6937,5.6621,5.6135,5.5516,5.4626,5.3326,5.2089,5.2089,5.1869,5.1733,5.2295,5.3135,5.3983,5.4595,5.497,5.5065,5.4593,5.4461,5.426,5.3479,5.3311,5.3132,5.2555,5.0726,4.8828,4.7383,4.7344,4.7226,4.6425,4.7734,4.9139,5.0016,5.0622,5.0759,5.0192,5.0174,4.9491,4.7753,4.7597,4.7226,4.6366,4.5762,4.5469,4.5468,4.4629,4.3613,4.2422,4.0137,3.7129,0.0,0.0,0.0,0.0,0.0,0.0,0.0,0.0,0.0,0.0,0.0,0.0,0.0,0.0,0.0,0.0,0.0,0.0,0.0,0.0,0.0,0.0,0.0,0.0,0.0,4.2203,4.5709,4.7716,4.9744,5.0412,4.8967,5.1149,5.26,5.2574,5.5127,5.6942,5.7525,5.8266,5.9211,6.0363,6.0402,6.0662,6.1186,6.1233,6.1259,6.1266,6.1266,6.1272,6.1272,6.1272,6.1272,6.1272,6.1272,6.1272,6.1272,6.1272,6.0616,5.9619,5.9674,5.965,5.954,5.9248,5.9102,5.9024,5.8717,5.8217,5.7492,5.6009,5.5118,5.4564,5.4275,5.4178,5.4294,5.4873,5.5046,5.5172,5.5808,5.5971,5.5834,5.5358,5.5234,5.5019,5.4202,5.4039,5.3955,5.3706,5.2162,5.0541,4.9389,4.9448,4.9257,4.8113,4.9412,5.05,5.0469,5.0965,5.1089,5.0503,5.0471,4.9794,4.8057,4.7954,4.7448,4.6243,4.567,4.5222,4.4916,4.411,4.3393,4.2828,4.0898,3.8476,3.5566,0.0,0.0,0.0,0.0,0.0,0.0,0.0,0.0,0.0,0.0,0.0,0.0,0.0,0.0,0.0,0.0,0.0,0.0,0.0,0.0,0.0,0.0,0.0,4.3413,4.5846,4.8561,5.1066,5.3757,5.5017,5.4054,5.6212,5.7628,5.7495,5.9068,6.0026,6.0026,6.0764,6.1192,6.1192,6.1192,6.1192,6.1192,6.1192,6.1192,6.1192,6.1192,6.1192,6.1192,6.1192,6.1192,6.1192,6.1192,6.1192,6.1192,6.1192,6.112,6.102,6.122,6.1297,6.1174,6.0351,5.9936,5.9695,5.8761,5.8441,5.8306,5.7496,5.7226,5.7071,5.6203,5.5933,5.5933,5.5895,5.5895,5.5895,5.5895,5.5895,5.5895,5.5895,5.5895,5.5692,5.4917,5.4735,5.4527,5.3802,5.2955,5.2357,5.2309,5.1653,5.115,5.1188,5.1145,0.0,5.1188,5.1145,5.1108,5.1108,5.1108,5.0393,4.8681,4.8623,4.7912,4.6059,4.5995,4.5615,4.4744,4.3961,4.3567,4.3593,4.1185,3.9101,3.7402,0.0,0.0,0.0,0.0,0.0,0.0,0.0,0.0,0.0,0.0,0.0,0.0,0.0,0.0,0.0,0.0,0.0,0.0,0.0,0.0,0.0,4.3626,4.6691,4.6201,4.9953,5.3271,5.4593,5.6533,5.7653,5.7378,5.8564,5.9309,5.9288,6.0173,6.0726,6.0726,6.0848,6.0902,6.0902,6.0902,6.0902,6.0902,6.0902,6.0902,6.0902,6.0902,6.0902,6.0902,6.0902,6.0902,6.0902,6.0902,6.0902,6.0902,6.0902,6.088,6.0867,6.101,6.101,6.0905,6.0663,6.0555,6.0396,5.9502,5.9191,5.9056,5.8267,5.7998,5.7824,5.6969,5.6699,5.6564,5.5919,5.5745,5.5775,5.5797,5.5826,5.5836,5.5885,5.5895,5.5837,5.5614,5.5527,5.5441,5.5216,5.4483,5.3564,5.2486,5.2115,5.1755,5.1156,5.1031,5.103,5.105,5.1033,5.1031,5.1031,5.1033,5.0597,4.9522,4.8909,4.8061,4.6922,4.5133,4.43,4.4685,4.3284,4.282,4.3443,4.1546,4.0347,0.0,0.0,0.0,0.0,0.0,0.0,0.0,0.0,0.0,0.0,0.0,0.0,0.0,0.0,0.0,0.0,0.0,0.0,0.0,0.0,0.0,0.0,4.83,5.0947,5.1261,5.389,5.6257,5.7498,5.8593,5.9345,5.9646,6.0123,6.0409,6.0351,6.0703,6.0922,6.0922,6.0842,6.08,6.08,6.08,6.08,6.08,6.08,6.08,6.08,6.08,6.08,6.08,6.08,6.08,6.08,6.08,6.08,6.08,6.08,6.08,6.0812,0.0,0.0,0.0,0.0,6.08,6.0723,6.0223,6.0031,5.9915,5.9069,5.88,5.8646,5.78,5.753,5.7434,5.6934,5.653,5.6252,5.6284,5.6025,5.5766,5.5806,5.5816,5.5816,5.5816,5.5796,5.5756,5.5756,5.535,0.0,5.3437,5.263,5.1973,5.1528,5.1127,5.0886,5.0959,5.0918,5.0867,5.0867,5.087,5.0535,4.9695,4.9227,0.0,0.0,0.0,4.4658,4.4084,4.3441,0.0,0.0,0.0,0.0,0.0,0.0,0.0,0.0,4.3207,4.3798,0.0,0.0,0.0,0.0,0.0,0.0,0.0,0.0,0.0,0.0,0.0,0.0,0.0,0.0,0.0,0.0,5.2702,5.5472,5.706,5.7467,5.8142,5.9592,5.9966,6.0328,6.0925,6.0983,6.0923,6.0823,6.08,6.08,6.08,6.08,0.0,0.0,0.0,6.08,6.08,6.08,6.08,6.08,6.08,6.08,6.08,6.08,6.08,6.08,6.08,6.08,6.08,6.08,6.08,6.08,6.08,6.08,6.08,6.08,6.08,6.08,6.08,0.0,0.0,5.9896,5.9646,5.9492,5.8684,5.8434,5.8415,5.8338,5.7742,5.7157,5.7157,5.6569,5.5972,5.5857,5.5838,5.5818,5.5722,5.5703,5.5703,5.5703,5.5703,5.5472,5.4761,5.328,5.2175,5.2097,5.1362,5.0845,5.0875,5.0764,5.0712,5.0712,5.0712,0.0,4.9606,4.9558,4.8889,4.7287,4.7155,4.6073,4.371,4.4439,4.5014,4.524,4.7445,4.9082,5.0052,5.1542,5.1972,5.1311,4.6751,4.6733,0.0,0.0,0.0,0.0,0.0,0.0,0.0,0.0,0.0,0.0,0.0,0.0,0.0,0.0,0.0,5.1991,5.5338,5.7896,5.8877,5.9653,5.9964,5.9598,6.0201,6.0712,6.0842,6.0831,6.0839,6.0812,6.08,6.08,6.08,6.08,6.08,6.08,6.08,6.08,6.08,6.08,6.08,6.08,6.08,0.0,6.08,6.08,6.08,6.08,6.08,6.08,6.08,6.08,6.08,6.08,6.08,6.08,6.08,6.08,6.08,6.08,6.08,6.08,6.0762,6.0589,6.055,6.0396,5.9531,5.9281,0.0,5.8492,5.8184,5.805,5.805,5.7915,5.7627,5.6926,5.6753,5.656,5.5838,5.5703,5.5703,5.5703,5.5703,5.5645,5.5491,5.4645,5.3531,5.2146,5.179,5.1453,5.0817,5.0721,5.0712,5.0712,5.0712,5.0635,5.0462,4.9836,4.9297,4.8933,4.8268,4.7381,4.6234,4.6966,4.7743,4.8489,4.8962,5.0002,5.1578,5.1898,5.2679,5.3872,5.2413,5.2514,0.0,0.0,0.0,0.0,0.0,0.0,0.0,0.0,0.0,0.0,0.0,4.5126,4.7691,0.0,5.3395,5.5934,5.78,5.9184,6.0031,6.0531,6.0646,6.0204,6.0531,6.08,6.08,6.08,6.08,6.08,6.08,6.08,6.08,6.08,6.08,6.08,6.08,6.08,6.08,6.08,6.08,6.08,6.08,6.08,6.08,6.08,6.08,6.08,6.08,6.08,6.08,6.08,6.08,6.08,6.08,6.08,6.08,6.08,6.08,6.08,6.08,6.08,6.08,6.08,6.08,6.0723,6.0281,6.0146,6.0069,5.9665,5.9242,5.8896,5.8896,5.8607,5.8184,5.7742,5.7646,5.7415,5.6541,5.6349,5.6233,5.578,5.5703,5.5703,5.5703,5.5376,5.4664,5.3395,5.2837,5.226,5.1414,5.1298,5.1144,5.075,5.0712,5.0712,5.0712,4.9894,4.9394,4.9394,4.8586,4.8125,4.8144,4.8952,4.9808,5.0683,5.153,5.2386,5.3253,5.4081,5.4947,5.5787,5.5943,5.6029,0.0,0.0,0.0,0.0,0.0,0.0,0.0,4.0277,4.2085,4.4951,4.7836,5.0664,5.3433,5.5299,5.7107,5.9165,5.9646,5.9992,6.0704,6.08,6.08,6.08,6.08,6.08,6.08,6.08,6.08,6.08,6.08,6.08,6.08,6.08,6.08,6.08,6.08,6.08,6.08,6.08,6.08,6.08,6.08,6.08,6.08,6.08,6.08,6.08,6.08,6.08,6.08,6.08,6.08,6.08,6.08,6.08,6.08,6.08,6.08,6.08,6.08,6.08,6.08,6.08,6.08,6.08,6.08,6.08,6.08,6.08,6.0281,5.9742,5.9742,5.9281,5.8742,5.8569,5.8531,5.83,5.7434,5.7118,5.6791,5.6088,5.5818,5.5703,5.5703,5.5703,5.5434,5.4626,5.3895,5.3087,5.2019,5.1904,5.1587,5.0789,5.0712,5.0712,5.0712,5.0202,4.9894,4.9894,4.9394,4.9413,5.0106,5.0798,5.1587,5.2473,5.38,5.4666,5.4996,5.634,5.7099,5.7272,5.8132,5.8224,3.3812,3.455,3.6458,4.0993,4.0569,4.137,0.0,5.024,4.9413,5.3453,5.5214,5.6118,5.6503,5.7934,5.9165,5.9454,6.0146,6.0685,6.0781,6.08,6.08,6.08,6.08,6.08,6.08,6.08,6.08,6.08,6.08,6.08,6.08,6.08,6.08,6.08,6.08,6.08,6.08,6.08,6.08,6.08,6.08,6.08,6.08,6.08,6.08,6.08,6.08,6.08,6.08,6.08,6.08,6.08,6.08,6.08,6.08,6.08,6.08,6.08,6.08,6.08,6.08,6.08,6.08,6.08,6.08,6.08,6.08,6.08,6.0723,6.0646,6.0646,6.0589,6.0319,5.955,5.9377,5.9146,5.8338,5.755,5.6964,5.6868,5.6233,5.5703,5.5703,5.5703,5.5434,5.4626,5.4414,5.376,5.2115,5.1904,5.1587,5.0789,5.0712,5.0712,5.0712,5.1279,5.1615,5.1615,5.226,5.2664,5.2779,5.2876,5.3337,5.4194,5.4395,5.5233,5.6714,5.6907,5.7396,5.8165,5.8992,5.9364,4.0333,4.1124,4.2124,4.524,4.6701,4.8509,5.2779,5.3395,5.3857,5.6646,5.7877,5.8607,5.9119,5.9781,6.0262,6.0262,6.055,6.08,6.08,6.0358,6.0031,6.0031,6.0031,6.0242,6.0742,6.08,6.08,6.08,6.08,6.08,6.08,6.08,6.1031,6.1543,6.105,6.1031,6.155,6.105,6.08,6.08,6.13,6.1562,6.1581,6.2031,6.2243,6.2224,6.1762,6.1562,6.1524,6.1012,6.08,6.08,6.08,6.08,6.08,6.08,6.08,6.08,6.08,6.08,6.08,6.08,6.08,6.08,6.08,6.08,6.08,6.08,6.08,6.08,6.08,6.08,6.0704,6.0339,6.0262,6.0031,5.9184,5.8704,5.8165,5.7195,5.6714,5.631,5.578,5.5703,5.5588,5.5241,5.5203,5.4761,5.3568,5.3414,5.3087,5.2241,5.2145,5.2145,5.2145,5.2472,5.2654,5.2654,5.301,5.3433,5.3933,5.3953,5.4357,5.5184,5.5703,5.631,5.7003,5.7973,5.8646,5.9031,5.9858,6.0273,4.4306,4.5594,4.6797,4.8971,5.1722,5.4068,5.478,5.5876,5.7165,5.8684,5.925,5.9661,6.0319,6.0423,6.0423,6.0435,6.0646,6.08,6.08,6.005,5.9588,5.9838,5.9646,5.9838,6.0723,6.08,6.08,6.08,6.08,6.08,6.08,6.1031,6.1447,6.2082,6.1704,6.1781,6.2416,6.18,6.1493,6.1493,6.2127,6.2416,6.2454,6.3031,6.3288,6.3281,6.2685,6.2416,6.2358,6.1512,6.1146,6.1127,6.0877,6.08,6.08,6.08,6.08,6.08,6.08,6.08,6.08,6.08,6.08,6.08,6.08,6.08,6.08,6.08,6.08,6.08,6.08,6.08,6.08,6.08,6.08,6.0627,5.9992,5.9665,5.9146,5.7934,5.7511,5.708,5.6203,5.6049,5.5972,5.5742,5.5703,5.5415,5.4607,5.428,5.3895,5.328,5.3203,5.3203,5.3203,5.3414,5.3568,5.3568,5.378,5.4164,5.4799,5.4818,5.5222,5.603,5.6676,5.7234,5.7684,5.8915,5.9627,5.9877,6.0512,6.08,4.3355,4.5547,4.8836,5.2202,5.4357,5.6261,5.8742,5.9358,5.9646,6.0531,6.0022,5.9422,5.9519,5.9484,5.9461,5.9538,6.0242,6.08,6.08,6.005,5.9819,6.0666,6.0012,5.9838,6.0723,6.08,6.08,6.08,6.08,6.08,6.08,6.1601,6.2082,6.2101,6.2839,6.3231,6.3262,6.3231,6.3224,6.3224,6.325,6.3262,6.3262,6.3288,6.3288,6.3288,6.3281,6.3262,6.3192,6.2377,6.2062,6.1985,6.1127,6.08,6.08,6.08,6.08,6.08,6.08,6.08,6.08,6.08,6.08,6.08,6.08,6.08,6.08,6.08,6.08,6.08,6.08,6.08,6.08,6.08,6.08,6.0781,6.0762,6.0108,5.9473,5.9435,5.88,5.7973,5.7118,5.6964,5.6676,5.5818,5.5703,5.5415,5.4607,5.376,5.3241,5.3203,5.3203,5.3203,5.3203,5.3972,5.4453,5.4453,5.5184,5.5645,5.5665,5.5665,5.6069,5.6945,5.6983,5.78,5.9415,5.9473,5.9935,6.0762,6.0781,6.08,4.7595,5.0202,5.2895,5.5164,5.695,5.8531,5.9972,6.0263,6.0149,5.9854,5.9132,5.8371,5.7819,5.7692,5.7872,5.8472,5.9295,6.0068,6.0645,6.0027,5.9608,5.9896,5.9685,5.9627,5.9915,6.0454,6.08,6.08,6.08,6.105,6.1639,6.1947,6.262,6.3724,6.3455,6.3589,6.4166,6.3589,6.3288,6.3308,6.3897,6.4474,6.5032,6.5032,6.5032,6.4993,6.4416,6.4166,6.4109,6.3243,6.257,6.2082,6.1793,6.13,6.08,6.08,6.08,6.08,6.08,6.08,6.08,6.08,6.08,6.08,6.08,6.08,6.08,6.08,6.08,6.08,6.08,6.08,6.08,6.08,6.08,6.08,6.08,6.0569,6.0185,5.9608,5.9281,5.8838,5.8011,5.7857,5.7569,5.6695,5.6069,5.5588,5.5318,5.503,5.4857,5.4857,5.4857,5.4857,5.4857,5.5126,5.5299,5.5299,5.5549,5.5703,5.5703,5.5703,5.6107,5.6983,5.7569,5.8396,5.9492,6.0089,6.0512,6.08,6.08,6.08,5.0741,5.3201,5.5382,5.7396,5.8877,5.9989,6.057,6.0405,5.9818,5.8648,5.7505,5.6355,5.5228,5.5017,5.5497,5.6935,5.7923,5.9014,6.0486,5.9991,5.9585,5.9915,5.9685,5.9627,5.9935,6.0473,6.08,6.08,6.08,6.1166,6.2062,6.2358,6.3166,6.457,6.4359,6.4493,6.5051,6.4512,6.4224,6.4243,6.4801,6.5359,6.5897,6.5897,6.5897,6.5859,6.5301,6.5051,6.4993,6.4128,6.3455,6.2916,6.2332,6.1774,6.1223,6.0916,6.08,6.08,6.08,6.08,6.08,6.08,6.08,6.08,6.08,6.08,6.08,6.08,6.08,6.08,6.08,6.08,6.08,6.08,6.08,6.08,6.08,6.08,6.0627,6.0069,5.9954,5.9704,5.8877,5.8492,5.8107,5.755,5.6992,5.6395,5.578,5.5703,5.5703,5.5703,5.5703,5.5703,5.5703,5.5703,5.5703,5.5703,5.5703,5.5838,5.6156,5.6145,5.6703,5.7868,5.8434,5.9146,5.9973,6.0531,6.08,6.08,6.08,6.08,5.2722,5.4592,5.646,5.8919,6.0046,6.0553,6.052,5.9792,5.8611,5.6848,5.5095,5.3398,5.1754,5.1593,5.2483,5.4917,5.623,5.7831,6.0339,5.9962,5.9775,6.0692,6.0027,5.9854,6.0723,6.0839,6.0858,6.0858,6.0858,6.1243,6.212,6.2935,6.3782,6.4647,6.5474,6.5897,6.5897,6.5897,6.5897,6.5897,6.5897,6.5897,6.5897,6.5897,6.5897,6.5897,6.5897,6.5897,6.584,6.5013,6.4647,6.4436,6.2801,6.2139,6.1985,6.1108,6.08,6.08,6.08,6.08,6.08,6.08,6.08,6.08,6.08,6.08,6.08,6.08,6.08,6.08,6.08,6.08,6.08,6.08,6.08,6.08,6.08,6.08,6.08,6.08,6.08,6.0531,5.9704,5.8896,5.8357,5.8357,5.8338,5.7703,5.6049,5.5818,5.5818,5.5818,5.5818,5.5818,5.5818,5.5818,5.5818,5.5818,5.5818,5.6203,5.7041,5.708,5.7819,5.9473,5.9492,5.9935,6.08,6.08,6.08,6.08,6.08,6.08,5.55,5.7678,5.9496,5.986,6.0041,5.974,5.8208,5.7172,5.5741,5.2858,5.0913,4.9094,4.7039,4.8693,5.0856,5.2351,5.5465,5.8387,6.0284,6.013,6.0067,6.0666,6.0225,6.0127,6.0738,6.1329,6.1714,6.1762,6.1774,6.2127,6.2954,6.3801,6.4666,6.5532,6.5782,6.5897,6.5897,6.5897,6.5897,6.5897,6.5897,6.5897,6.5897,6.5897,6.5897,6.5897,6.5897,6.5897,6.5878,6.5647,6.5186,6.4493,6.3416,6.2627,6.1985,6.1108,6.08,6.08,6.08,6.08,6.08,6.08,6.08,6.08,6.08,6.08,6.08,6.08,6.08,6.08,6.08,6.08,6.08,6.08,6.08,6.08,6.08,6.08,6.08,6.08,6.08,6.0723,6.0512,5.9762,5.9184,5.9184,5.8684,5.8146,5.7684,5.7646,5.7646,5.7646,5.7646,5.7646,5.7646,5.7646,5.7646,5.7646,5.7646,5.7742,5.7953,5.7973,5.8454,5.9473,5.9492,5.9935,6.08,6.08,6.08,6.08,6.08,6.08,5.7615,5.9254,6.0368,6.0165,5.9657,5.853,5.5899,5.4352,5.2215,4.7834,4.6177,4.4678,4.1978,4.4628,4.7738,4.9321,5.3223,5.6858,5.9136,5.9749,6.0049,6.0362,6.0627,6.0912,6.121,6.183,6.226,6.236,6.2522,6.2905,6.357,6.4068,6.4665,6.5354,6.5359,6.547,6.5635,6.5795,6.5897,6.5897,6.5897,6.5814,6.5635,6.5827,6.5795,6.5649,6.5827,6.5897,6.5897,6.5897,6.5609,6.507,6.4205,6.3358,6.2512,6.1685,6.1127,6.08,6.08,6.08,6.08,6.08,6.08,6.08,6.08,6.08,6.08,6.08,6.08,6.08,6.08,6.08,6.08,6.08,6.08,6.08,6.08,6.08,6.08,6.08,6.08,6.08,6.08,6.0396,6.0069,6.0069,5.9685,5.9396,5.9396,5.8761,5.83,5.83,5.83,5.83,5.83,5.83,5.83,5.83,5.83,5.8473,5.8819,5.8838,5.9223,6.005,6.0069,6.03,6.08,6.08,6.08,6.08,6.08,6.08,5.9153,5.9827,6.0026,5.9802,5.8765,5.688,5.3416,5.1133,4.8176,4.2628,4.1299,4.0253,3.7261,4.0344,4.4113,4.6445,5.052,5.4474,5.7644,5.8996,5.9719,5.9889,6.0943,6.1652,6.168,6.2228,6.2677,6.2791,6.323,6.3606,6.3906,6.4039,6.428,6.4697,6.4751,6.494,6.5299,6.5696,6.5897,6.5897,6.584,6.5635,6.5299,6.5608,6.5547,6.5253,6.5589,6.5736,6.5736,6.5736,6.5768,6.5731,6.4866,6.409,6.3358,6.2435,6.162,6.0954,6.0839,6.08,6.08,6.08,6.08,6.08,6.08,6.08,6.08,6.08,6.08,6.08,6.08,6.08,6.08,6.08,6.08,6.08,6.08,6.08,6.08,6.08,6.08,6.08,6.08,6.08,6.08,6.08,6.08,6.08,6.08,5.9531,5.8627,5.8627,5.8627,5.8627,5.8627,5.8627,5.8627,5.8627,5.8627,5.8934,5.9646,5.9665,6.0031,6.0781,6.08,6.08,6.08,6.08,6.08,6.08,6.08,6.08,5.9786,5.9968,5.9617,5.8277,5.6781,5.4503,5.0158,4.6871,4.3513,3.9191,3.7197,3.5922,3.489,3.8153,4.2069,4.5388,4.9442,5.3562,5.7465,5.8196,5.8587,5.9334,6.0235,6.0851,6.0966,6.2353,6.3281,6.3367,6.404,6.4189,6.3628,6.4217,6.4617,6.4716,6.5025,6.5238,6.5299,6.5696,6.5897,6.5897,6.5561,6.5363,6.5284,6.5041,6.4854,6.4803,6.489,6.4923,6.4923,6.4923,6.5105,6.5316,6.4436,6.4208,6.4185,6.2647,6.2005,6.1774,6.105,6.08,6.08,6.08,6.08,6.08,6.08,6.08,6.08,6.08,6.08,6.08,6.08,6.08,6.08,6.08,6.08,6.08,6.08,6.08,6.08,6.08,6.08,6.08,6.08,6.08,6.08,6.08,6.08,6.08,6.08,6.055,6.0358,6.0358,6.0358,6.0358,6.0358,6.0358,6.0358,6.0358,6.0358,6.0435,6.0569,6.0569,6.0646,6.08,6.08,6.08,6.08,6.08,6.08,6.08,6.08,6.08,5.9845,5.9701,5.9027,5.7825,5.582,5.2803,4.761,4.3938,4.0246,3.5326,3.3678,3.28,3.1703,3.5349,3.9285,4.1671,4.564,5.0058,5.4836,5.5678,5.6743,5.9267,6.0567,6.1468,6.1956,6.3012,6.3688,6.3804,6.3947,6.3985,6.3861,6.4045,6.4133,6.4133,6.452,6.4738,6.4738,6.5093,6.5284,6.5265,6.5073,6.4892,6.4738,6.4718,6.4592,6.4445,6.461,6.4699,6.4699,6.4699,6.4803,6.4987,6.4764,6.4527,6.4227,6.3617,6.2839,6.2043,6.162,6.1166,6.08,6.08,6.08,6.08,6.08,6.08,6.08,6.08,6.08,6.08,6.08,6.08,6.08,6.08,6.08,6.08,6.08,6.08,6.08,6.08,6.08,6.08,6.08,6.08,6.08,6.08,6.08,6.08,6.08,6.08,6.08,6.08,6.08,6.08,6.08,6.08,6.08,6.08,6.08,6.08,6.08,6.08,6.08,6.08,6.08,6.08,6.08,6.08,6.08,6.08,6.08,6.08,5.9364,5.9173,5.8486,5.7362,5.4911,5.1308,4.5718,4.168,3.7658,3.248,3.114,3.0558,2.9464,3.2754,3.6311,3.8367,4.1865,4.6275,5.1908,5.3339,5.5206,5.9019,6.0838,6.2089,6.2836,6.3474,6.3873,6.3977,6.365,6.3632,6.4046,6.3764,6.3602,6.3602,6.4002,6.419,6.419,6.4538,6.4699,6.4699,6.4628,6.4464,6.421,6.4388,6.4311,6.4087,6.435,6.4445,6.4445,6.4445,6.452,6.4628,6.5025,6.4802,6.4297,6.4526,6.3762,6.257,6.2216,6.1658,6.105,6.0858,6.08,6.08,6.08,6.08,6.08,6.08,6.08,6.08,6.08,6.08,6.08,6.08,6.08,6.08,6.08,6.08,6.08,6.08,6.08,6.08,6.08,6.08,6.08,6.08,6.08,6.08,6.08,6.08,6.08,6.08,6.08,6.08,6.08,6.08,6.08,6.08,6.08,6.08,6.08,6.08,6.08,6.08,6.08,6.08,6.08,6.08,6.08,6.08,6.08,6.08,5.8086,5.8409,5.8171,5.6249,5.3398,4.9739,4.4727,3.9992,3.5624,3.2131,3.0246,2.939,2.9989,3.1091,3.3401,3.7955,4.0246,4.3716,5.0123,5.2617,5.4923,5.7973,6.0171,6.1666,6.2239,6.3096,6.3624,6.3665,6.3602,6.3602,6.3647,6.3624,6.3602,6.3602,6.4002,6.419,6.419,6.4538,6.4699,6.4699,6.4388,6.423,6.419,6.3854,6.3673,6.3669,6.3695,6.3695,6.3695,6.3695,6.3918,6.4271,6.4629,6.4935,6.5119,6.4737,6.4493,6.4147,6.2627,6.2062,6.1851,6.105,6.08,6.08,6.08,6.08,6.08,6.08,6.08,6.08,6.08,6.08,6.08,6.08,6.08,6.08,6.08,6.08,6.08,6.08,6.08,6.08,6.08,6.08,6.08,6.08,6.08,6.08,6.08,6.08,6.08,6.08,6.08,6.08,6.08,6.08,6.08,6.08,6.08,6.08,6.08,6.08,6.08,6.08,6.08,6.08,6.08,6.08,6.08,6.08,6.08,6.08,5.6388,5.7229,5.7213,5.5934,5.317,4.9517,4.4635,3.9769,3.5367,3.2076,3.0118,2.9097,2.9427,3.0136,3.1953,3.583,3.7004,3.9701,4.6195,4.7832,5.0394,5.5956,5.7959,5.9909,6.2549,6.3303,6.3602,6.3602,6.3602,6.3602,6.3602,6.3602,6.3602,6.3602,6.3761,6.3851,6.3851,6.3965,6.4029,6.4029,6.3899,6.3851,6.383,6.365,6.3602,6.3602,6.3602,6.3602,6.3602,6.3602,6.3695,6.3897,6.4464,6.4803,6.4968,6.5266,6.5051,6.4493,6.3839,6.2935,6.2043,6.1697,6.1223,6.08,6.08,6.08,6.08,6.08,6.08,6.08,6.08,6.08,6.08,6.08,6.08,6.08,6.08,6.08,6.08,6.08,6.08,6.0734,6.0533,6.0666,6.0734,6.0533,6.0666,6.08,6.08,6.0629,6.0572,6.0788,6.08,6.08,6.08,6.08,6.08,6.08,6.08,6.08,6.08,6.08,6.08,6.08,6.08,6.08,6.08,6.08,6.08,6.08,6.08,6.08,5.4,5.5217,5.5556,5.473,5.2105,4.8489,4.3846,3.9221,3.5,3.1715,2.9941,2.9005,2.9005,2.9464,3.0821,3.3812,3.4692,3.7096,4.3132,4.4801,4.7682,5.3857,5.5883,5.8208,6.1837,6.3039,6.3602,6.3602,6.3602,6.3602,6.3602,6.3602,6.3602,6.3602,6.3602,6.3602,6.3602,6.3602,6.3602,6.3602,6.3602,6.3602,6.3602,6.3602,6.3602,6.3602,6.3602,6.3602,6.3602,6.3602,6.3602,6.365,6.4292,6.461,6.4786,6.547,6.541,6.4955,6.4686,6.3666,6.2416,6.2178,6.1524,6.08,6.08,6.08,6.08,6.08,6.08,6.08,6.08,6.08,6.08,6.08,6.0722,6.0654,6.0654,6.0572,6.0488,6.0488,6.0488,6.0436,6.0194,6.0354,6.0422,6.0194,6.0349,6.0488,6.0488,6.0293,6.0251,6.0475,6.0488,6.0585,6.0769,6.08,6.08,6.08,6.08,6.08,6.08,6.08,6.08,6.08,6.08,6.08,6.08,6.08,6.08,6.08,6.105,6.13,5.0761,5.2262,5.3041,5.2234,4.9572,4.6085,4.2031,3.7958,3.4105,3.0889,2.9574,2.9005,2.9005,2.9005,2.9812,3.2234,3.3959,3.671,4.1625,4.5058,4.8363,5.1808,5.4352,5.687,5.9566,6.2105,6.3602,6.3602,6.3602,6.3602,6.3602,6.3602,6.3602,6.3602,6.3602,6.3602,6.3602,6.3602,6.3602,6.3602,6.3602,6.3602,6.3602,6.3602,6.3602,6.3602,6.3602,6.3602,6.3602,6.3602,6.3602,6.3647,6.4046,6.4426,6.4751,6.5156,6.5561,6.5763,6.4897,6.4032,6.3166,6.237,6.1524,6.08,6.08,6.08,6.08,6.08,6.08,6.08,6.08,6.08,6.08,6.08,6.0546,6.0307,6.0307,6.0042,5.9807,5.9807,5.9807,5.9807,5.9809,5.9807,5.9807,5.9809,5.9807,5.9807,5.9807,5.9807,5.9807,5.9807,5.9807,6.0072,6.0746,6.08,6.08,6.08,6.08,6.08,6.08,6.08,6.08,6.08,6.08,6.08,6.08,6.08,6.08,6.0819,6.1678,6.2512,4.4757,4.6249,4.7076,4.5718,4.4195,4.2086,3.8615,3.5936,3.3421,3.076,2.9555,2.9005,2.9005,2.9005,3.0528,3.5183,3.6376,3.8395,4.3259,4.6232,4.9189,5.262,5.7747,6.1355,6.2309,6.3134,6.3602,6.3602,6.3602,6.3602,6.3602,6.3602,6.3602,6.3602,6.3602,6.3602,6.3602,6.3602,6.3602,6.3602,6.3602,6.3602,6.3602,6.3602,6.3602,6.3602,6.3602,6.3602,6.3602,6.3602,6.3602,6.3647,6.4046,6.4251,6.4407,6.4753,6.4973,6.5051,6.475,6.374,6.2502,6.2235,6.1225,6.0121,6.0121,6.0279,6.0409,6.0194,6.0121,6.0121,6.0121,6.0121,6.0121,6.0121,6.0026,5.995,5.995,5.9871,5.9791,5.9791,5.9791,5.9708,5.945,5.9624,5.9708,5.9432,5.9622,5.9791,5.9791,5.9554,5.9502,5.9774,5.9554,5.9605,6.0072,6.0121,6.0223,6.0436,6.0449,6.0559,6.08,6.08,6.08,6.08,6.08,6.08,6.08,6.08,6.08,6.0819,6.1697,6.2531,3.9363,4.1222,4.2213,4.1185,4.012,3.8597,3.5954,3.4082,3.2302,3.0191,2.9354,2.9005,2.9005,2.9005,3.0363,3.4518,3.5954,3.8157,4.2691,4.5993,4.9524,5.3861,5.8906,6.2186,6.2587,6.3226,6.3602,6.3602,6.3602,6.3602,6.3602,6.3602,6.3602,6.3602,6.3602,6.3602,6.3602,6.3602,6.3602,6.3602,6.3602,6.3602,6.3602,6.3602,6.3602,6.3602,6.3602,6.3602,0.0,6.3602,6.3602,6.3624,6.3894,6.4067,6.423,6.4426,6.4574,6.4661,6.4356,6.3352,6.214,6.1854,6.0852,5.9774,5.9605,5.9839,6.0057,5.9855,5.9791,5.9791,5.9791,5.9791,5.9791,5.9791,5.9692,5.9571,5.9571,5.9469,5.938,5.938,5.938,5.9326,5.9045,5.9234,5.9289,5.9064,5.9215,5.938,5.938,5.9178,5.9121,5.9363,5.9159,5.9102,5.9362,5.9641,5.9887,6.0087,6.0102,6.0265,6.0604,6.0616,6.0666,6.08,6.08,6.08,6.08,6.08,6.1127,6.1762,6.23,6.3166,0.0,3.6743,3.7991,3.7881,3.6762,3.5275,3.366,3.2173,0.0,2.9225,2.8913,2.8987,2.9207,2.9207,2.9831,3.1856,3.405,3.6967,4.113,4.5292,5.0008,5.5681,5.8508,6.0296,6.1089,6.2643,6.3602,6.3602,6.3602,6.3602,6.3602,6.3602,6.3602,6.3602,6.3602,6.3602,6.3602,6.3602,6.3602,6.3602,6.3602,6.3602,6.3602,6.3602,6.3602,6.3602,6.3602,6.3602,6.3602,6.3602,6.3602,6.3602,6.3602,6.383,6.4169,6.4169,6.4312,6.4439,6.368,6.2811,6.1902,6.1105,6.0331,5.9658,5.9289,5.945,5.9758,5.9725,5.9725,5.9725,5.9725,5.9725,5.9725,5.9725,5.9432,5.9159,5.9159,5.8926,5.8716,5.8716,5.8716,5.8716,5.8716,5.8716,5.8716,5.8716,5.8716,5.8716,5.8716,5.8716,5.8716,5.8716,5.8716,5.8716,5.8716,5.9326,5.9725,5.9758,5.9758,5.9903,6.0251,6.0265,6.0409,6.0722,6.0746,6.0788,6.08,6.08,6.1627,6.3224,6.3281,6.4205,2.7673,0.0,3.0986,2.9739,2.9622,2.9531,0.0,2.8484,2.8551,2.8154,2.8081,2.8833,3.1298,3.1256,3.2779,3.8762,4.0212,4.2248,4.7022,5.1357,5.5431,5.9228,6.0922,6.2068,6.2775,6.3311,6.3602,6.3602,6.3602,6.3602,6.3602,6.3602,6.3602,6.3602,6.3602,6.3602,6.3602,6.3602,6.3602,6.3602,6.3602,6.3602,6.3602,6.3602,6.3602,6.3602,6.3602,6.3602,6.3602,6.3602,6.3602,6.3602,6.3602,6.3669,6.3739,6.3739,6.3416,6.2904,6.2718,6.1672,6.0309,5.9488,5.9114,5.8945,5.8864,5.9064,5.9289,5.9024,5.8965,5.8965,5.8965,5.8965,5.8965,5.8965,5.8885,5.8823,5.8823,5.876,5.8716,5.8716,5.8716,5.8716,5.8716,5.8716,5.8716,5.8716,5.8716,5.8716,5.8716,5.8716,5.8716,5.8716,5.8716,5.8716,5.8716,5.8864,5.9082,5.9306,5.9343,5.9501,5.9903,5.9918,5.995,6.0026,6.0279,6.0546,6.08,6.08,6.1339,6.2397,6.3012,6.3878,2.4842,2.742,2.9898,2.9017,2.9402,2.9898,2.9445,2.8833,2.8356,2.8356,2.8356,2.9108,3.1586,3.2008,3.3733,3.9203,4.1332,4.4432,5.0538,5.4677,5.803,6.0589,6.1737,6.2621,6.3418,6.3557,6.3602,6.3602,6.3602,6.3602,6.3602,6.3602,6.3602,6.3602,6.3602,6.3602,6.3602,6.3602,6.3602,6.3602,6.3602,6.3602,6.3602,6.3602,6.3602,6.3602,6.3602,6.3602,6.3602,6.3602,6.3602,6.3602,6.3602,6.3602,6.3565,6.3193,6.2784,6.2301,6.1521,6.0425,5.9292,5.8846,5.8716,5.8716,5.8716,5.8843,5.8946,5.876,5.8716,5.8716,5.8716,5.8716,5.8716,5.8716,5.8716,5.8716,5.8716,5.8716,5.8716,5.8716,5.8716,5.8716,5.8716,5.8716,5.8716,5.8716,5.8716,5.8716,5.8716,5.8716,5.8716,5.8716,5.8716,5.8716,5.8716,5.8716,5.8782,5.8947,5.8967,5.914,5.9502,5.952,5.9605,5.9791,5.9981,6.0165,6.0335,6.0704,6.1417,6.2452,6.3244,6.4193,2.4795,2.8287,3.1624,3.0864,3.1549,3.2344,3.2106,3.0473,2.9023,2.9152,2.928,2.9959,3.1966,3.3091,3.4871,3.8377,4.1805,4.6305,5.2862,5.6255,5.8777,6.0582,6.1552,6.2413,6.3297,6.3523,6.3602,6.3602,6.3602,6.3602,6.3602,6.3602,6.3602,6.3602,6.3602,6.3602,6.3602,6.3602,6.3602,6.3602,6.3602,6.3602,6.3602,6.3602,6.3602,6.3602,6.3602,6.3602,6.3602,6.3602,6.3602,6.3602,6.3602,6.3527,6.3342,6.2654,6.2246,6.18,6.0258,5.9274,5.8716,5.8716,5.8716,5.8716,5.8716,5.8716,5.8716,5.8716,5.8716,5.8716,5.8716,5.8716,5.8716,5.8716,5.8716,5.8716,5.8716,5.8716,5.8716,5.8716,5.8716,5.8716,5.8716,5.8716,5.8716,5.8716,5.8716,5.8716,5.8716,5.8716,5.8716,5.8716,5.8716,5.8716,5.8716,5.8716,5.8716,5.8716,5.8716,5.8825,5.9103,5.9122,5.9307,5.9708,5.9708,5.9741,5.9791,6.0608,6.1587,6.2737,6.3528,6.4575,2.753,3.0882,3.2582,2.839,2.9475,3.1219,2.9867,2.928,2.9189,2.9879,3.0558,3.2168,3.5877,3.7786,4.0286,4.4874,4.9084,5.2667,5.5159,5.6712,5.8185,5.9715,6.0766,6.1623,6.2353,6.3126,6.3602,6.3602,6.3602,6.3602,6.3602,6.3602,6.3602,6.3602,6.3602,6.3602,6.3602,6.3602,6.3602,6.3602,6.3602,6.3602,6.3602,6.3602,6.3602,6.3602,6.3602,6.3602,6.3602,6.3602,6.3602,6.3602,6.3602,6.3193,6.258,6.245,6.1503,6.0165,5.9218,5.8809,5.8716,5.8716,5.8716,5.8716,5.8716,5.8716,5.8716,5.8716,5.8716,5.8716,5.8716,5.8716,5.8716,5.8716,5.8716,5.8716,5.8716,5.8716,5.8716,5.8716,5.8716,5.8716,5.8716,5.8716,5.8716,5.8716,5.8716,5.8716,5.8716,5.8716,5.8716,5.8716,5.8716,5.8716,5.8716,5.8716,5.8716,5.8716,5.8716,5.8719,5.8762,5.8782,5.8946,5.9289,5.9288,5.9467,5.9791,6.0608,6.1456,6.23,6.3175,6.4044,2.5999,2.9453,3.2109,2.9869,3.2709,3.5855,3.5106,3.3907,3.3054,3.3421,3.3788,3.5028,3.8269,4.0197,4.3194,4.8974,5.2665,5.5237,5.6417,5.7389,5.8415,5.9622,6.0147,6.0766,6.1582,6.2034,6.2301,6.2301,6.2301,6.2301,6.2301,6.2301,6.2301,6.2301,6.2729,6.2747,6.232,6.2747,6.3175,6.3602,6.3602,6.3602,6.3602,6.3602,6.3602,6.3602,6.3602,6.3602,6.3583,6.3137,6.2952,6.2914,6.2469,6.2079,6.1689,6.1224,6.0295,5.9218,5.8846,5.8716,5.8716,5.8716,5.8716,5.8716,5.8716,5.8716,5.8716,5.8716,5.8716,5.8716,5.8716,5.8716,5.8716,5.8716,5.8716,5.8716,5.8716,5.8716,5.8716,5.8716,5.8716,5.8716,5.8716,5.8716,5.8716,5.8716,5.8716,5.8716,5.8716,5.8716,5.8716,5.8716,5.8716,5.8716,5.8716,5.8716,5.8716,5.8716,5.8716,5.8716,5.8716,5.8716,5.8762,5.8926,5.8926,5.9024,5.9197,6.0491,6.1394,6.1956,6.3276,6.4179,2.5137,2.8379,3.174,3.2551,3.5984,3.9359,4.0114,3.8685,3.7367,3.7926,3.8345,3.9163,4.0864,4.3166,4.6558,5.1986,5.4907,5.6737,5.742,5.807,5.8742,5.9458,5.9702,6.0095,6.0812,6.1076,6.1206,6.1206,6.1206,6.1206,6.1206,6.1206,6.1206,6.1206,6.18,6.1819,6.1206,6.1819,6.2432,6.3044,6.3249,6.323,6.3044,6.3249,6.323,6.3044,6.3044,6.3044,6.3007,6.2376,6.2134,6.206,6.1447,6.1076,6.0797,5.9921,5.9237,5.8716,5.8716,5.8716,5.8716,5.8716,5.8716,5.8716,5.8716,5.8716,5.8716,5.8716,5.8716,5.8716,5.8716,5.8716,5.8716,5.8716,5.8716,5.8716,5.8716,5.8716,5.8716,5.8716,5.8716,5.8716,5.8716,5.8716,5.8716,5.8716,5.8716,5.8716,5.8716,5.8716,5.8716,5.8716,5.8716,5.8716,5.8716,5.8654,5.8654,5.8656,5.8677,5.8716,5.8716,5.8716,5.8716,5.8716,5.8716,5.8716,5.8716,6.0388,6.1342,6.1613,6.3299,6.4192,2.794,3.0194,3.2396,3.5401,3.6404,3.7448,4.043,4.0489,4.0535,4.2728,4.4435,4.5388,4.4761,4.8439,5.2243,5.4199,5.6668,5.8323,5.8397,5.8556,5.8714,5.877,5.9438,5.9921,5.9977,6.0741,6.1206,6.1206,6.1206,6.1206,6.1206,6.1206,6.1206,6.1206,6.1261,6.1261,6.1206,6.1261,6.1317,6.1391,6.2134,6.2116,6.141,6.2153,6.2079,6.1373,6.1373,6.1373,6.1373,6.1317,6.1298,6.128,6.1224,6.0723,5.9884,5.9088,5.8754,5.8716,5.8716,5.8716,5.8716,5.8716,5.8716,5.8716,5.8716,5.8716,5.8716,5.8716,5.8716,5.8716,5.8716,5.8716,5.8716,5.8716,5.8716,5.8716,5.8716,5.8716,5.8716,5.8716,5.8716,5.8716,5.8716,5.8716,5.8716,5.8716,5.8716,5.8716,5.8716,5.8716,5.8716,5.8716,5.8716,5.8716,5.8716,5.8526,5.844,5.8511,5.8635,5.8716,5.8716,5.8716,5.8716,5.8716,5.8716,5.8716,5.8716,6.0388,6.1209,6.1267,6.2885,6.3669,2.572,2.9186,3.2847,3.4526,3.6897,3.9531,4.2218,4.3753,4.5139,4.704,4.8421,4.9196,4.8918,5.1658,5.4179,5.4789,5.698,5.8635,5.8635,5.8656,5.8716,5.8716,5.8977,5.9162,5.9162,5.9459,5.9664,5.9664,5.9664,5.9664,5.9664,5.9664,5.9664,5.9664,6.0128,6.0165,5.9664,6.0147,6.0147,5.9664,6.102,6.1503,6.1206,6.1521,6.1503,6.1206,6.1206,6.1206,6.1168,6.063,6.0407,6.0351,5.985,5.9441,5.9125,5.8828,5.8716,5.8716,5.8716,5.8716,5.8716,5.8716,5.8716,5.8716,5.8716,5.8716,5.8716,5.8716,5.8716,5.8716,5.8716,5.8716,5.8716,5.8716,5.8716,5.8716,5.8716,5.8716,5.8716,5.8716,5.8716,5.8716,5.8716,5.8635,5.8593,5.8593,5.8548,5.8505,5.8505,5.8505,5.8505,5.8505,5.8505,5.8505,5.8505,5.8437,5.8415,5.844,5.8483,5.8505,5.8505,5.8551,5.8551,5.8505,5.8551,5.8593,5.8593,6.0262,6.1122,6.1243,6.2859,6.3602,2.54,2.9252,3.3531,3.4565,3.7951,4.1792,4.4718,4.6645,4.8494,5.0857,5.1469,5.1731,5.2288,5.3626,5.4797,5.5336,5.7268,5.8716,5.8716,5.8716,5.8716,5.8716,5.8716,5.8716,5.8716,5.8716,5.8716,5.8716,5.8716,5.8716,5.8716,5.8716,5.8716,5.8716,5.9237,5.9274,5.8716,5.9255,5.9255,5.8716,5.9868,6.0425,6.0425,6.0685,6.0648,6.0425,6.0425,6.0425,6.037,5.9775,5.9534,5.9457,5.8921,5.8716,5.8716,5.8716,5.8716,5.8716,5.8716,5.8716,5.8716,5.8716,5.8716,5.8716,5.8716,5.8716,5.8716,5.8716,5.8716,5.8716,5.8716,5.8716,5.8716,5.8716,5.8716,5.8716,5.8716,5.8716,5.8696,5.8635,5.8656,5.8696,5.8612,5.8551,5.8489,5.8486,5.8418,5.8393,5.8393,5.8393,5.8393,5.8393,5.8371,5.8349,5.8393,5.8327,5.8286,5.8349,5.8305,5.8327,5.8393,5.844,5.8462,5.8393,5.8462,5.8465,5.8465,5.9874,6.0752,6.1159,6.2491,6.3251,2.7988,3.099,3.4525,3.6205,3.9667,4.3742,4.7897,4.8894,5.008,5.4122,5.3717,5.3144,5.4723,5.437,5.4388,5.6023,5.7658,5.8716,5.8716,5.8716,5.8716,5.8716,5.8716,5.8716,5.8716,5.8716,5.8716,5.8716,5.8716,5.8716,5.8716,5.8716,5.8716,5.8716,5.8716,5.8716,5.8716,5.8716,5.8716,5.8716,5.8716,5.8716,5.8735,5.9513,5.9459,5.8716,5.8716,5.8716,5.8716,5.8716,5.8716,5.8716,5.8716,5.8716,5.8716,5.8716,5.8716,5.8716,5.8716,5.8716,5.8716,5.8716,5.8716,5.8716,5.8716,5.8716,5.8716,5.8716,5.8716,5.8716,5.8716,5.8716,5.8716,5.8716,5.8716,5.8716,5.8716,5.8716,5.8656,5.8532,5.8614,5.8633,5.8437,5.8443,5.8486,5.8415,5.8393,5.8393,5.8393,5.8393,5.8393,5.8393,5.8282,5.8242,5.8371,5.8152,5.8042,5.8197,5.8065,5.8129,5.8393,5.8393,5.8393,5.8393,5.8393,5.8393,5.8393,5.9206,6.0085,6.1011,6.1694,6.2489,2.738,3.1339,3.6176,3.7747,4.2199,4.7097,5.062,5.1862,5.3271,5.6835,5.6685,5.5904,5.591,5.619,5.6376,5.632,5.7658,5.8716,5.8716,5.8716,5.8716,5.8716,5.8716,5.8716,5.8716,5.8716,5.8716,5.8716,5.8716,5.8716,5.8716,5.8716,5.8716,5.8716,5.8716,5.8716,5.8716,5.8716,5.8716,5.8716,5.8716,5.8716,5.8716,5.8958,5.8939,5.8716,5.8716,5.8716,5.8716,5.8716,5.8716,5.8716,5.8716,5.8716,5.8716,5.8716,5.8716,5.8716,5.8716,5.8716,5.8716,5.8716,5.8716,5.8716,5.8716,5.8716,5.8716,5.8716,5.8716,5.8716,5.8716,5.8716,5.8716,5.8716,5.8716,5.8716,5.8716,5.8716,5.8696,5.8656,5.8656,5.8696,5.8633,5.8551,5.8486,5.8415,5.8327,5.8219,5.8129,5.8129,5.8129,5.8129,5.8065,5.8084,5.8129,5.8042,5.802,5.8042,5.802,5.8042,5.8129,5.8197,5.8219,5.8129,5.8219,5.8264,5.8264,5.9075,5.9954,6.088,6.1629,6.2442,3.0517,3.448,3.9063,4.1295,4.5039,4.9207,5.3105,5.4626,5.5869,5.8213,5.7744,5.6982,5.721,5.7138,5.7082,5.723,5.8085,5.8716,5.8716,5.8716,5.8716,5.8716,5.8716,5.8716,5.8716,5.8716,5.8716,5.8716,5.8716,5.8716,5.8716,5.8716,5.8716,5.8716,5.8716,5.8716,5.8716,5.8716,5.8716,5.8716,5.8716,5.8716,5.8716,5.8716,5.8716,5.8716,5.8716,5.8716,5.8716,5.8716,5.8716,5.8716,5.8716,5.8716,5.8716,5.8716,5.8716,5.8716,5.8716,5.8716,5.8716,5.8716,5.8716,5.8716,5.8716,5.8716,5.8716,5.8716,5.8716,5.8716,5.8716,5.8716,5.8716,5.8716,5.8716,5.8716,5.8716,5.8716,5.8677,5.8635,5.8656,5.8656,5.859,5.8551,5.8486,5.8415,5.8305,5.8152,5.802,5.7997,5.7997,5.7997,5.7997,5.7997,5.7997,5.7997,5.7997,5.7997,5.7997,5.7997,5.7997,5.8084,5.8065,5.7997,5.8065,5.8129,5.8129,5.8607,5.9486,6.0725,6.1158,6.2006,3.5267,3.8706,4.2296,4.5658,4.7999,5.0636,5.515,5.6822,5.7639,5.8531,5.7546,5.697,5.8438,5.7509,5.7008,5.8475,5.8716,5.8716,5.8716,5.8716,5.8716,5.8716,5.8716,5.8716,5.8716,5.8716,5.8716,5.8716,5.8716,5.8716,5.8716,5.8716,5.8716,5.8716,5.8716,5.8716,5.8716,5.8716,5.8716,5.8716,5.8716,5.8716,5.8716,5.8716,5.8716,5.8716,5.8716,5.8716,5.8716,5.8716,5.8716,5.8716,5.8716,5.8716,5.8716,5.8716,5.8716,5.8716,5.8716,5.8716,5.8716,5.8716,5.8716,5.8716,5.8716,5.8716,5.8716,5.8716,5.8716,5.8716,5.8716,5.8716,5.8716,5.8716,5.8716,5.8716,5.8716,5.8716,5.8656,5.8532,5.8614,5.8654,5.8459,5.8465,5.8486,5.8415,5.8305,5.8152,5.802,5.7997,5.7997,5.7997,5.7997,5.7997,5.7997,5.7997,5.7997,5.7997,5.7997,5.7997,5.7997,5.7997,5.7997,5.7997,5.7997,5.7997,5.7997,5.7997,5.8855,6.048,6.0412,6.1299,3.2644,3.6527,4.1516,4.5444,5.008,5.398,5.5039,5.5949,5.697,5.8401,5.8419,5.8289,5.8642,5.8419,5.8308,5.8642,5.8716,5.8716,5.8716,5.8716,5.8716,5.8716,5.8716,5.8716,5.8716,5.8716,5.8716,5.8716,5.8716,5.8716,5.8716,5.8716,5.8716,5.8716,5.8716,5.8716,5.8716,5.8716,5.8716,5.8716,5.8716,5.8716,5.8716,5.8716,5.8716,5.8716,5.8716,5.8716,5.8716,5.8716,5.8716,5.8716,5.8716,5.8716,5.8716,5.8716,5.8716,5.8716,5.8716,5.8716,5.8716,5.8716,5.8716,5.8716,5.8716,5.8716,5.8716,5.8716,5.8716,5.8716,5.8716,5.8716,5.8716,5.8716,5.8716,5.8716,5.8716,5.8716,5.8677,5.8656,5.8677,5.8696,5.8654,5.8654,5.8612,5.8437,5.8305,5.8152,5.802,5.7997,5.7997,5.7997,5.7997,5.7997,5.7997,5.7997,5.7997,5.7997,5.7997,5.7997,5.7997,5.7997,5.7997,5.7997,5.7997,5.7997,5.7997,5.7997,5.8534,5.9507,6.0107,6.0957,3.3431,3.7063,4.1556,4.6852,5.1027,5.4054,5.4834,5.5354,5.6042,5.7286,5.7862,5.8141,5.8141,5.8438,5.8716,5.8716,5.8716,5.8716,5.8716,5.8716,5.8716,5.8716,5.8716,5.8716,5.8716,5.8716,5.8716,5.8716,5.8716,5.8716,5.8716,5.8716,5.8716,5.8716,5.8716,5.8716,5.8716,5.8716,5.8716,5.8716,5.8716,5.8716,5.8716,5.8716,5.8716,5.8716,5.8716,5.8716,5.8716,5.8716,5.8716,5.8716,5.8716,5.8716,5.8716,5.8716,5.8716,5.8716,5.8716,5.8716,5.8716,5.8716,5.8716,5.8716,5.8716,5.8716,5.8716,5.8716,5.8716,5.8716,5.8716,5.8716,5.8716,5.8716,5.8716,5.8716,5.8716,5.8716,5.8716,5.8716,5.8716,5.8716,5.8716,5.8716,5.8633,5.8437,5.8349,5.8242,5.8111,5.8042,5.7997,5.7997,5.7997,5.7997,5.7997,5.7997,5.7997,5.7997,5.7997,5.7997,5.7997,5.7997,5.7997,5.7997,5.7997,5.7997,5.7997,5.7997,5.8419,5.9221,6.0034,6.0823,3.4048,3.7831,4.2032,4.8316,5.1045,5.2587,5.4221,5.4593,5.4834,5.5689,5.6636,5.7286,5.7286,5.7843,5.8289,5.8289,5.8289,5.8345,5.8475,5.8494,5.8549,5.8679,5.8716,5.8716,5.8716,5.8716,5.8716,5.8716,5.8716,5.8716,5.8716,5.8716,5.8716,5.8716,5.8716,5.8716,5.8716,5.8716,5.8716,5.8716,5.8716,5.8716,5.8716,5.8716,5.8716,5.8716,5.8716,5.8716,5.8716,5.8716,5.8716,5.8716,5.8716,5.8716,5.8716,5.8716,5.8716,5.8716,5.8716,5.8716,5.8716,5.8716,5.8716,5.8716,5.8716,5.8716,5.8716,5.8716,5.8716,5.8677,5.8656,5.8675,5.8656,5.8654,5.8654,5.8654,5.8656,5.8675,5.8656,5.8654,5.8654,5.8654,5.8654,5.8654,5.859,5.8393,5.8371,5.8327,5.8174,5.8065,5.7997,5.7997,5.7997,5.7997,5.7997,5.7997,5.7997,5.7997,5.7997,5.7997,5.7997,5.7997,5.7997,5.7997,5.7997,5.7997,5.7997,5.7997,5.8345,5.9001,5.9832,6.0621,2.9625,3.5668,4.2667,4.7776,4.9763,5.0878,5.2549,5.2921,5.3144,5.398,5.5373,5.6469,5.6469,5.6543,5.6617,5.6617,5.6617,5.6859,5.7565,5.7658,5.7918,5.8624,5.8716,5.8716,5.8716,5.8716,5.8716,5.8716,5.8716,5.8716,5.8716,5.8716,5.8716,5.8716,5.8716,5.8716,5.8716,5.8716,5.8716,5.8716,5.8716,5.8716,5.8716,5.8716,5.8716,5.8716,5.8716,5.8716,5.8716,5.8716,5.8716,5.8716,5.8716,5.8716,5.8716,5.8716,5.8716,5.8716,5.8716,5.8716,5.8716,5.8716,5.8716,5.8716,5.8716,5.8716,5.8716,5.8716,5.8716,5.8656,5.8553,5.8532,5.8511,5.844,5.8437,5.8459,5.8511,5.8532,5.8508,5.844,5.8437,5.8437,5.8437,5.8437,5.8393,5.8242,5.8219,5.8174,5.8042,5.802,5.7997,5.7997,5.7997,5.7997,5.7997,5.7997,5.7997,5.7997,5.7997,5.7997,5.7997,5.7997,5.7997,5.7997,5.7997,5.7997,5.7997,5.7997,5.8052,5.818,5.9006,5.9771,3.0611,3.6001,4.1375,4.6327,4.85,4.9763,5.0971,5.1602,5.2159,5.2958,5.372,5.45,5.541,5.5967,5.6302,5.6302,5.6302,5.6413,5.6785,5.684,5.697,5.7323,5.7751,5.8029,5.8029,5.8438,5.8716,5.8716,5.8716,5.8716,5.8716,5.8716,5.8716,5.8716,5.8716,5.8716,5.8716,5.8716,5.8716,5.8716,5.8716,5.8716,5.8716,5.8716,5.8716,5.8716,5.8716,5.8716,5.8716,5.8716,5.8716,5.8716,5.8716,5.8716,5.8716,5.8716,5.8716,5.8716,5.8716,5.8716,5.8716,5.8716,5.8716,5.8716,5.8716,5.8716,5.8716,5.8716,5.8635,5.8574,5.8511,5.8486,5.844,5.8415,5.8349,5.8286,5.8334,5.8378,5.844,5.8415,5.8393,5.8371,5.8305,5.8349,5.8349,5.8219,5.8197,5.8174,5.8129,5.8042,5.7997,5.7997,5.7997,5.7997,5.7997,5.7997,5.7997,5.7997,5.7997,5.7997,5.7997,5.7997,5.7997,5.7997,5.7997,5.7997,5.7997,5.7997,5.7997,5.8015,5.8841,5.9386,3.0759,3.4543,3.7922,4.328,4.5844,4.7423,4.8927,5.0042,5.1008,5.1825,5.2159,5.2661,5.3868,5.4946,5.567,5.567,5.567,5.5744,5.5949,5.5967,5.606,5.6265,5.684,5.7212,5.7212,5.7918,5.8401,5.8401,5.8586,5.8716,5.8716,5.8716,5.8716,5.8716,5.8716,5.8716,5.8716,5.8716,5.8716,5.8716,5.8716,5.8716,5.8716,5.8716,5.8716,5.8716,5.8716,5.8716,5.8716,5.8716,5.8716,5.8716,5.8716,5.8716,5.8716,5.8716,5.8716,5.8716,5.8716,5.8716,5.8716,5.8716,5.8716,5.8716,5.8716,5.8716,5.8677,5.8656,5.8593,5.8489,5.8425,5.8396,5.8349,5.8305,5.8219,5.8174,5.8197,5.8242,5.8305,5.8349,5.8327,5.8264,5.8174,5.8219,5.8264,5.8174,5.8152,5.8152,5.8152,5.8065,5.7997,5.7997,5.7997,5.7997,5.7997,5.7997,5.7997,5.7997,5.7997,5.7997,5.7997,5.7997,5.7997,5.7997,5.7997,5.7997,5.7997,5.7997,5.7997,5.8015,5.8621,5.8982,2.7169,2.9093,3.144,3.7875,4.0736,4.2797,4.5974,4.7906,4.928,5.0153,5.0933,5.1491,5.1565,5.2865,5.3943,5.3943,5.3943,5.4203,5.4964,5.5076,5.5373,5.6209,5.6339,5.6357,5.6357,5.71,5.7565,5.7565,5.8271,5.8716,5.8716,5.8716,5.8716,5.8716,5.8716,5.8716,5.8716,5.8716,5.8716,5.8716,5.8716,5.8716,5.8716,5.8716,5.8716,5.8716,5.8716,5.8716,5.8716,5.8716,5.8716,5.8716,5.8716,5.8716,5.8716,5.8716,5.8716,5.8716,5.8716,5.8716,5.8716,5.8716,5.8716,5.8716,5.8716,5.8716,5.8656,5.8553,5.8511,5.8446,5.8286,5.8219,5.8174,5.8042,5.802,5.8042,5.8174,5.8106,5.8065,5.8197,5.8106,5.802,5.802,5.802,5.802,5.802,5.802,5.802,5.802,5.7997,5.7997,5.7997,5.7997,5.7997,5.7997,5.7997,5.7997,5.7997,5.7997,5.7997,5.7997,5.7997,5.7997,5.7997,5.7997,5.7997,5.7997,5.7997,5.7997,5.7997,5.8033,5.8474,2.6253,2.8225,3.0339,3.4835,3.8419,4.114,4.2314,4.5064,4.7738,4.9094,4.9596,5.0116,5.1193,5.2289,5.3032,5.3032,5.346,5.3905,5.4203,5.424,5.4351,5.4667,5.515,5.5466,5.5466,5.6227,5.6729,5.6729,5.7008,5.7398,5.7899,5.7936,5.8178,5.8679,5.8716,5.8716,5.8716,5.8716,5.8716,5.8716,5.8716,5.8716,5.8716,5.8716,5.8716,5.8716,5.8716,5.8716,5.8716,5.8716,5.8716,5.8716,5.8716,5.8716,5.8716,5.8716,5.8716,5.8716,5.8716,5.8716,5.8716,5.8716,5.8716,5.8677,5.8593,5.8553,5.8532,5.8462,5.8356,5.829,5.8219,5.8152,5.8065,5.802,5.7997,5.802,5.8065,5.802,5.802,5.8065,5.802,5.7997,5.7997,5.7997,5.7997,5.7997,5.7997,5.7997,5.7997,5.7997,5.7997,5.7997,5.7997,5.7997,5.7997,5.7997,5.7997,5.7997,5.7997,5.7997,5.7997,5.7997,5.7997,5.7997,5.7997,5.7997,5.7997,5.7997,5.7997,5.7997,5.7997,5.8143,2.4487,2.6355,2.8585,3.2757,3.5454,3.7732,4.0234,4.2686,4.4989,4.6865,4.7701,4.8519,4.9893,5.0822,5.1546,5.2104,5.2661,5.3088,5.3367,5.3404,5.3497,5.3775,5.4277,5.4611,5.4611,5.5373,5.5874,5.5874,5.6134,5.6525,5.7082,5.71,5.7472,5.8271,5.8568,5.8716,5.8716,5.8716,5.8716,5.8716,5.8716,5.8716,5.8716,5.8716,5.8716,5.8716,5.8716,5.8716,5.8716,5.8716,5.8716,5.8716,5.8716,5.8716,5.8716,5.8716,5.8716,5.8716,5.8716,5.8716,5.8677,5.8656,5.8635,5.8614,5.8508,5.8465,5.8443,5.8353,5.8264,5.8197,5.8133,5.8065,5.7997,5.7997,5.7997,5.7997,5.7997,5.7997,5.7997,5.7997,5.7997,5.7997,5.7997,5.7997,5.7997,5.7997,5.7997,5.7997,5.7997,5.7997,5.7997,5.7997,5.7997,5.7997,5.7997,5.7997,5.7997,5.7997,5.7997,5.7997,5.7997,5.7997,5.7997,5.7997,5.7997,5.7997,5.7997,5.7997,5.7997,5.7997,5.7997,5.7997,0.0,0.0,0.0,3.1344,3.1593,3.2368,3.9621,4.0717,4.0921,4.3429,4.5194,4.6605,4.7497,4.8296,4.9373,5.1026,5.1342,5.1676,5.2457,5.2568,5.2847,5.3645,5.3757,5.3775,5.3775,5.45,5.4964,5.4964,5.5763,5.6246,5.6265,5.6302,5.6673,5.7472,5.8271,5.8679,5.8716,5.8716,5.8716,5.8716,5.8716,5.8716,5.8716,5.8716,5.8716,5.8716,5.8716,5.8716,5.8716,5.8716,5.8716,5.8716,5.8716,5.8716,5.8716,5.8716,5.8716,5.8716,5.8716,5.8696,5.8656,5.8532,5.8489,5.8468,5.8415,5.8393,5.8371,5.8219,5.8197,5.8174,5.802,5.7997,5.7997,5.7997,5.7997,5.7997,5.7997,5.7997,5.7997,5.7997,5.7997,5.7997,5.7997,5.7997,5.7997,5.7997,5.7997,5.7997,5.7997,5.7997,5.7997,5.7997,5.7997,5.7997,5.7997,5.7997,5.7997,5.7997,5.7997,5.7997,5.7997,5.7997,5.7997,5.7997,5.7997,5.7997,5.7997,5.7997,5.7997,5.7997,5.7997,5.7997,2.2967,0.0,0.0,0.0,0.0,0.0,3.3039,3.4822,3.7113,4.1386,4.2166,4.3058,4.6252,4.7014,4.7516,4.8556,5.0228,5.1472,5.1695,5.1732,5.1806,5.2048,5.2587,5.294,5.294,5.3664,5.4128,5.4128,5.437,5.476,5.5336,5.5967,5.6673,5.7472,5.7732,5.8122,5.8698,5.8716,5.8716,5.8716,5.8716,5.8716,5.8716,5.8716,5.8716,5.8716,5.8716,5.8716,5.8716,5.8716,5.8716,5.8716,5.8716,5.8716,5.8716,5.8716,5.8716,5.8716,5.8716,5.8635,5.8553,5.8511,5.8465,5.8396,5.8286,5.826,5.8219,5.8088,5.8042,5.8042,5.7997,5.7997,5.7997,5.7997,5.7997,5.7997,5.7997,5.7997,5.7997,5.7997,5.7997,5.7997,5.7997,5.7997,5.7997,5.7997,5.7997,5.7997,5.7997,5.7997,5.7997,5.7997,5.7997,5.7997,5.7997,5.7997,5.7997,5.7997,5.7997,5.7997,5.7997,5.7997,5.7997,5.7997,5.7997,5.7997,5.7997,5.7997,5.7997,5.7997,5.7997,5.7997,2.4958,2.5662,2.6857,2.7758,0.0,0.0,3.1979,3.2667,3.4005,3.8613,3.9435,4.0401,4.3819,4.4729,4.5342,4.6513,4.8184,4.9707,5.0729,5.0859,5.0989,5.1361,5.1806,5.2104,5.2104,5.2828,5.3311,5.3311,5.3608,5.3998,5.4481,5.5299,5.5967,5.645,5.7138,5.7732,5.8196,5.8531,5.8716,5.8716,5.8716,5.8716,5.8716,5.8716,5.8716,5.8716,5.8716,5.8716,5.8716,5.8716,5.8716,5.8716,5.8716,5.8675,5.8635,5.8677,5.8656,5.8614,5.8614,5.8572,5.8489,5.8403,5.8353,5.8286,5.8152,5.8129,5.8088,5.802,5.7997,5.7997,5.7997,5.7997,5.7997,5.7997,5.7997,5.7997,5.7997,5.7997,5.7997,5.7997,5.7997,5.7997,5.7997,5.7997,5.7997,5.7997,5.7997,5.7997,5.7997,5.7997,5.7997,5.7997,5.7997,5.7997,5.7997,5.7997,5.7997,5.7997,5.7997,5.7997,5.7997,5.7997,5.7997,5.7997,5.7997,5.7997,5.7997,5.7997,5.7997,5.7997,5.7997,5.7997,2.7687,2.8093,0.0,3.1968,3.0097,0.0,3.3491,3.2425,3.1515,3.525,3.6532,3.7726,4.0308,4.1516,4.2612,4.4098,4.5324,4.6921,4.9355,4.9707,5.0023,5.0896,5.1063,5.1156,5.1249,5.1992,5.2475,5.2475,5.3218,5.372,5.3813,5.4481,5.4927,5.5001,5.645,5.7268,5.7379,5.8159,5.8586,5.8586,5.8661,5.8716,5.8716,5.8716,5.8716,5.8716,5.8716,5.8716,5.8716,5.8716,5.8716,5.8716,5.8677,5.8596,5.8511,5.8614,5.8593,5.8489,5.8489,5.8468,5.8425,5.8264,5.8197,5.8152,5.8042,5.7997,5.7997,5.7997,5.7997,5.7997,5.7997,5.7997,5.7997,5.7997,5.7997,5.7997,5.7997,5.7997,5.7997,5.7997,5.7997,5.7997,5.7997,5.7997,5.7997,5.7997,5.7997,5.7997,5.7997,5.7997,5.7997,5.7997,5.7997,5.7997,5.7997,5.7997,5.7997,5.7997,5.7997,5.7997,5.7997,5.7997,5.7997,5.7997,5.7997,5.7997,5.7997,5.7997,5.7997,5.7997,5.7997,5.7997,3.1236,3.1894,3.2532,3.0586,3.1448,0.0,2.9229,2.9118,3.0028,3.1496,3.1403,3.1998,3.507,3.6872,3.8,3.8321,4.1274,4.4376,4.6865,4.72,4.7516,4.8314,4.8983,4.9652,5.0302,5.1138,5.1639,5.1639,5.2382,5.3125,5.3775,5.3961,5.4333,5.4983,5.5336,5.5819,5.6525,5.7342,5.7732,5.7751,5.8401,5.8716,5.8716,5.8716,5.8716,5.8716,5.8716,5.8716,5.8716,5.8716,5.8716,5.8696,5.8574,5.8532,5.8489,5.8462,5.8437,5.8437,5.8437,5.8353,5.8264,5.8219,5.8129,5.8042,5.7997,5.7997,5.7997,5.7997,5.7997,5.7997,5.7997,5.7997,5.7997,5.7997,5.7997,5.7997,5.7997,5.7997,5.7997,5.7997,5.7997,5.7997,5.7997,5.7997,5.7997,5.7997,5.7997,5.7997,5.7997,5.7997,5.7997,5.7997,5.7997,5.7997,5.7997,5.7997,5.7997,5.7997,5.7997,5.7997,5.7997,5.7997,5.7997,5.7997,5.7997,5.7997,5.7997,5.7997,5.7997,5.7997,5.7997,5.7997,3.4079,3.4228,3.4562,3.3336,0.0,0.0,0.0,2.9954,3.0084,3.2537,3.1106,3.0511,3.4172,3.5182,3.5603,3.603,3.9208,4.1739,4.2147,4.4692,4.6643,4.7051,4.746,4.7868,4.8277,4.9429,5.0506,5.1342,5.1769,5.2345,5.3162,5.32,5.3571,5.4388,5.4797,5.5224,5.5652,5.6487,5.71,5.7509,5.7918,5.8308,5.8716,5.8716,5.8716,5.8716,5.8716,5.8656,5.8614,5.8614,5.8572,5.8548,5.8511,5.8446,5.8356,5.8393,5.8349,5.8305,5.8305,5.826,5.8197,5.8129,5.8042,5.7997,5.7997,5.7997,5.7997,5.7997,5.7997,5.7997,5.7997,5.7997,5.7997,5.7997,5.7997,5.7997,5.7997,5.7997,5.7997,5.7997,5.7997,5.7997,5.7997,5.7997,5.7997,5.7997,5.7997,5.7997,5.7997,5.7997,5.7997,5.7997,5.7997,5.7997,5.7997,5.7997,5.7997,5.7997,5.7997,5.7997,5.7997,5.7997,5.7997,5.7997,5.7997,5.7997,5.7997,5.7997,5.7997,5.7997,5.7997,5.7997,0.0,0.0,3.7071,0.0,0.0,3.4643,0.0,0.0,0.0,3.3763,3.1701,3.04,3.3726,3.3763,3.3436,3.3986,3.6959,3.8562,3.6742,4.1181,4.4729,4.5045,4.5621,4.6011,4.6011,4.6903,4.8389,5.0525,5.0246,5.0599,5.2048,5.2419,5.2902,5.3553,5.4351,5.4779,5.4779,5.5633,5.6376,5.7026,5.7193,5.7695,5.8475,5.8475,5.8547,5.8656,5.8656,5.8593,5.8486,5.8486,5.8422,5.8371,5.8422,5.8356,5.8197,5.8286,5.8242,5.8174,5.8174,5.8174,5.8133,5.8042,5.7997,5.7997,5.7997,5.7997,5.7997,5.7997,5.7997,5.7997,5.7997,5.7997,5.7997,5.7997,5.7997,5.7997,5.7997,5.7997,5.7997,5.7997,5.7997,5.7997,5.7997,5.7997,5.7997,5.7997,5.7997,5.7997,5.7997,5.7997,5.7997,5.7997,5.7997,5.7997,5.7997,5.7997,5.7997,5.7997,5.7997,5.7997,5.7997,5.7997,5.7997,5.7997,5.7997,5.7997,5.7997,5.7997,5.7997,5.7997,5.7997,5.7997,0.0,0.0,0.0,0.0,3.9212,0.0,0.0,0.0,3.3039,3.0604,0.0,2.9527,3.001,0.0,0.0,2.9043,3.2295,3.4086,3.1756,3.512,3.8339,3.977,4.25,4.4283,4.4283,4.315,4.4005,4.7831,4.6085,4.6457,5.019,5.1788,5.2642,5.2735,5.3534,5.3943,5.3943,5.4741,5.5206,5.5299,5.6079,5.6859,5.7639,5.7639,5.7967,5.8532,5.8532,5.8486,5.8415,5.8415,5.8349,5.8219,5.8242,5.8219,5.8197,5.8065,5.8042,5.802,5.802,5.802,5.802,5.7997,5.7997,5.7997,5.7997,5.7997,5.7997,5.7997,5.7997,5.7997,5.7997,5.7997,5.7997,5.7997,5.7997,5.7997,5.7997,5.7997,5.7997,5.7997,5.7997,5.7997,5.7997,5.7997,5.7997,5.7997,5.7997,5.7997,5.7997,5.7997,5.7997,5.7997,5.7997,5.7997,5.7997,5.7997,5.7997,5.7997,5.7997,5.7997,5.7997,5.7997,5.7997,5.7997,5.7997,5.7997,5.7997,5.7997,5.7997,5.7997,5.7997,5.7997,0.0,0.0,0.0,0.0,0.0,0.0,3.4544,0.0,3.3559,0.0,0.0,0.0,0.0,0.0,0.0,0.0,3.0697,3.1422,2.9434,3.1868,3.4637,3.6773,3.8228,3.9807,4.172,4.1293,4.2184,4.5324,4.3726,4.4395,4.85,4.9819,5.1119,5.2549,5.294,5.333,5.3813,5.4128,5.4556,5.5001,5.5373,5.5946,5.6704,5.7165,5.7511,5.7774,5.8237,5.8375,5.8264,5.8264,5.8197,5.8065,5.8065,5.8065,5.8084,5.802,5.7997,5.7997,5.7997,5.7997,5.7997,5.7997,5.7997,5.7997,5.7997,5.7997,5.7997,5.7997,5.7997,5.7997,5.7997,5.7997,5.7997,5.7997,5.7997,5.7997,5.7997,5.7997,5.7997,5.7997,5.7997,5.7997,5.7997,5.7997,5.7997,5.7997,5.7997,5.7997,5.7997,5.7997,5.7997,5.7997,5.7997,5.7997,5.7997,5.7997,5.7997,5.7997,5.7997,5.7997,5.7997,5.7997,5.7997,5.7997,5.7997,5.7997,5.7997,5.7997,5.7997,5.7997,5.7997,5.7997,4.2482,0.0,0.0,0.0,0.0,0.0,0.0,0.0,0.0,0.0,0.0,0.0,0.0,0.0,0.0,0.0,0.0,2.9861,2.7743,2.9174,3.1292,3.3559,3.4618,3.6272,3.9115,3.8358,3.9069,4.2407,4.0754,4.165,4.6438,4.7887,4.9596,5.1844,5.2364,5.2976,5.3755,5.3793,5.4071,5.4588,5.4627,5.5014,5.5749,5.6321,5.6795,5.7186,5.7759,5.808,5.8152,5.8152,5.8106,5.7997,5.7997,5.7997,5.7997,5.7997,5.7997,5.7997,5.7997,5.7997,5.7997,5.7997,5.7997,5.7997,5.7997,5.7997,5.7997,5.7997,5.7997,5.7997,5.7997,5.7997,5.7997,5.7997,5.7997,5.7997,5.7997,5.7997,5.7997,5.7997,5.7997,5.7997,5.7997,5.7997,5.7997,5.7997,5.7997,5.7997,5.7997,5.7997,5.7997,5.7997,5.7997,5.7997,5.7997,5.7997,5.7997,5.7997,5.7997,5.7997,5.7997,5.7997,5.7997,5.7997,5.7997,5.7997,5.7997,5.7997,5.7997,5.7997,5.7997,5.7997,0.0,0.0,0.0,3.9342,0.0,0.0,0.0,0.0,3.5213,0.0,0.0,0.0,0.0,0.0,0.0,0.0,0.0,0.0,0.0,2.6516,2.7687,2.9378,3.2351,3.4922,3.6662,3.3189,3.3159,3.8822,3.627,3.7259,4.3763,4.642,4.85,5.0135,5.1751,5.2957,5.3695,5.3774,5.3735,5.3556,5.3693,5.408,5.4757,5.4776,5.5618,5.7,5.7037,5.7412,5.7997,5.7997,5.7997,5.7997,5.7997,5.7997,5.7997,5.7997,5.7997,5.7997,5.7997,5.7997,5.7997,5.7997,5.7997,5.7997,5.7997,5.7997,5.7997,5.7997,5.7997,5.7997,5.7997,5.7997,5.7997,5.7997,5.7997,5.7997,5.7997,5.7997,5.7997,5.7997,5.7997,5.7997,5.7997,5.7997,5.7997,5.7997,5.7997,5.7997,5.7997,5.7997,5.7997,5.7997,5.7997,5.7997,5.7997,5.7997,5.7997,5.7997,5.7997,5.7997,5.7997,5.7997,5.7997,5.7997,5.7997,5.7997,5.7997,5.7997,5.7997,5.7997,5.7997,5.7997,0.0,0.0,4.6178,4.1497,0.0,0.0,0.0,0.0,0.0,0.0,0.0,0.0,0.0,0.0,0.0,0.0,0.0,0.0,0.0,2.5931,2.6321,2.6879,3.0264,3.2379,3.1905,3.1514,3.2801,3.6445,3.5601,3.7335,4.2835,4.5447,4.7542,4.9192,5.0805,5.2047,5.2824,5.3341,5.3579,5.3499,5.3558,5.3647,5.3803,5.432,5.4828,5.5346,5.6408,5.6991,5.7262,5.7776,5.7997,5.7997,5.7997,5.7997,5.7997,5.7997,5.7997,5.7997,5.7997,5.7997,5.7997,5.7997,5.7997,5.7997,5.7997,5.7997,5.7997,5.7997,5.7997,5.7997,5.7997,5.7997,5.7997,5.7997,5.7997,5.7997,5.7997,5.7997,5.7997,5.7997,5.7997,5.7997,5.7997,5.7997,5.7997,5.7997,5.7997,5.7997,5.7997,5.7997,5.7997,5.7997,5.7997,5.7997,5.7997,5.7997,5.7997,5.7997,5.7997,5.7997,5.7997,5.7997,5.7997,5.7997,5.7997,5.7997,5.7997,5.7997,5.7997,5.7997,5.7997,5.7997,4.6587,4.7088,0.0,4.2983,4.2017,0.0,3.6866,0.0,3.7076,0.0,0.0,0.0,0.0,0.0,0.0,0.0,0.0,0.0,0.0,2.5522,2.5596,2.5317,2.8046,2.9694,2.9006,2.9275,3.0932,3.4346,3.421,3.625,4.1529,4.4119,4.6323,4.8251,5.0176,5.1545,5.2283,5.3094,5.3459,5.3378,5.3418,5.3359,5.3293,5.3808,5.417,5.4454,5.55,5.6271,5.684,5.7373,5.774,5.7997,5.7997,5.7997,5.7997,5.7997,5.7997,5.7997,5.7997,5.7997,5.7997,5.7997,5.7997,5.7997,5.7997,5.7997,5.7997,5.7997,5.7997,5.7997,5.7997,5.7997,5.7997,5.7997,5.7997,5.7997,5.7997,5.7997,5.7997,5.7997,5.7997,5.7997,5.7997,5.7997,5.7997,5.7997,5.7997,5.7997,5.7997,5.7997,5.7997,5.7997,5.7997,5.7997,5.7997,5.7997,5.7997,5.7997,5.7997,5.7997,5.7997,5.7997,5.7997,5.7997,5.7997,5.7997,5.7997,5.7997,5.7997,5.7997,5.7997,5.7997]}]]